[[{"header":{"parameterUnit":"m.s-1","parameterCategory":1,"la1":30.6,"la2":29.2853,"lo1":-89.7004,"lo2":-87.6739,"dy":0.0162,"dx":0.0183,"nx":112,"ny":82,"refTime":"2026-04-17T00:00:00:Z","depth":0,"parameterNumber":2,"parameterNumberName":"U-component_of_WINDS"},"data":[0.0,0.0,0.0,0.0,0.0,0.0,0.0,0.0,0.0,0.0,0.0,0.0,0.0,0.0,0.0,0.0,0.0,0.0,0.0,0.0,0.0,0.0,0.0,0.0,0.0,0.0,0.0,0.0,0.0,0.0,0.0,0.0,0.0,0.0,0.0,0.0,0.0,0.0,0.0,0.0,0.0,0.0,0.0,0.0,0.0,0.0,0.0,0.0,0.0,0.0,0.0,0.0,0.0,0.0,0.0,0.0,0.0,0.0,0.0,0.0,0.0,0.0,0.0,0.0,0.0,0.0,0.0,0.0,0.0,0.0,0.0,0.0,0.0,0.0,0.0,0.0,0.0,0.0,0.0,0.0,0.0,0.0,0.0,0.0,0.0,0.0,0.0,0.0,0.0,0.0,-3.4457,-3.8857,-4.3469,-4.5558,-4.3892,-4.1545,-3.8955,-3.6103,0.0,0.0,0.0,0.0,0.0,0.0,0.0,0.0,0.0,0.0,0.0,0.0,0.0,0.0,0.0,0.0,0.0,0.0,0.0,0.0,0.0,0.0,0.0,0.0,0.0,0.0,0.0,0.0,0.0,0.0,0.0,0.0,0.0,0.0,0.0,0.0,0.0,0.0,0.0,0.0,0.0,0.0,0.0,0.0,0.0,0.0,0.0,0.0,0.0,0.0,0.0,0.0,0.0,0.0,0.0,0.0,0.0,0.0,0.0,0.0,0.0,0.0,0.0,0.0,0.0,0.0,0.0,0.0,0.0,0.0,0.0,0.0,0.0,0.0,0.0,0.0,0.0,0.0,0.0,0.0,0.0,0.0,0.0,0.0,0.0,0.0,0.0,0.0,0.0,0.0,0.0,0.0,0.0,0.0,0.0,0.0,0.0,0.0,0.0,0.0,0.0,0.0,0.0,0.0,-3.4756,-4.1101,-4.3999,-4.5027,-4.3949,-4.2117,-3.9827,-3.7033,0.0,0.0,0.0,0.0,0.0,0.0,0.0,0.0,0.0,0.0,0.0,0.0,0.0,0.0,0.0,0.0,0.0,0.0,0.0,0.0,0.0,0.0,0.0,0.0,0.0,0.0,0.0,0.0,0.0,0.0,0.0,0.0,0.0,0.0,0.0,0.0,0.0,0.0,0.0,0.0,0.0,0.0,0.0,0.0,0.0,0.0,0.0,0.0,0.0,0.0,0.0,0.0,0.0,0.0,0.0,0.0,0.0,0.0,0.0,0.0,0.0,0.0,0.0,0.0,0.0,0.0,0.0,0.0,0.0,0.0,0.0,0.0,0.0,0.0,0.0,0.0,0.0,0.0,0.0,0.0,0.0,0.0,0.0,0.0,0.0,0.0,0.0,0.0,0.0,0.0,0.0,0.0,0.0,0.0,0.0,0.0,0.0,0.0,0.0,0.0,0.0,0.0,0.0,-3.4029,-3.8334,-4.2196,-4.45,-4.5035,-4.3276,-4.1231,-3.8807,-3.5958,-3.0797,0.0,0.0,0.0,0.0,0.0,0.0,0.0,0.0,0.0,0.0,0.0,0.0,0.0,0.0,0.0,0.0,0.0,0.0,0.0,0.0,0.0,0.0,0.0,0.0,0.0,0.0,0.0,0.0,0.0,0.0,0.0,0.0,0.0,0.0,0.0,0.0,0.0,0.0,0.0,0.0,0.0,0.0,0.0,0.0,0.0,0.0,0.0,0.0,0.0,0.0,0.0,0.0,0.0,0.0,0.0,0.0,0.0,0.0,0.0,0.0,0.0,0.0,0.0,0.0,0.0,0.0,0.0,0.0,0.0,0.0,0.0,0.0,0.0,0.0,0.0,0.0,0.0,0.0,0.0,0.0,0.0,0.0,0.0,0.0,0.0,0.0,0.0,0.0,0.0,0.0,0.0,0.0,0.0,0.0,0.0,0.0,0.0,0.0,0.0,0.0,0.0,0.0,-3.7979,-4.1386,-4.2646,-4.4702,-4.5035,-4.2641,-4.0163,-3.7472,-3.458,-2.9306,0.0,0.0,0.0,0.0,0.0,0.0,0.0,0.0,0.0,0.0,0.0,0.0,0.0,0.0,0.0,0.0,0.0,0.0,0.0,0.0,0.0,0.0,0.0,0.0,0.0,0.0,0.0,0.0,0.0,0.0,0.0,0.0,0.0,0.0,0.0,0.0,0.0,0.0,0.0,0.0,0.0,0.0,0.0,0.0,0.0,0.0,0.0,0.0,0.0,0.0,0.0,0.0,0.0,0.0,0.0,0.0,0.0,0.0,0.0,0.0,0.0,0.0,0.0,0.0,0.0,0.0,0.0,0.0,0.0,0.0,0.0,0.0,0.0,0.0,0.0,0.0,0.0,0.0,0.0,0.0,0.0,0.0,0.0,0.0,0.0,0.0,0.0,0.0,0.0,0.0,0.0,0.0,0.0,0.0,0.0,0.0,0.0,0.0,0.0,0.0,0.0,0.0,-3.797,-4.1459,-4.2272,-4.4378,-4.4818,-4.2516,-3.9648,-3.6705,-3.3694,-2.7927,0.0,0.0,0.0,0.0,0.0,0.0,0.0,0.0,0.0,0.0,0.0,0.0,0.0,0.0,0.0,0.0,0.0,0.0,0.0,0.0,0.0,0.0,0.0,0.0,0.0,0.0,0.0,0.0,0.0,0.0,0.0,0.0,0.0,0.0,0.0,0.0,0.0,0.0,0.0,0.0,0.0,0.0,0.0,0.0,0.0,0.0,0.0,0.0,0.0,0.0,0.0,0.0,0.0,0.0,0.0,0.0,0.0,0.0,0.0,0.0,0.0,0.0,0.0,0.0,0.0,0.0,0.0,0.0,0.0,0.0,0.0,0.0,0.0,0.0,0.0,0.0,0.0,0.0,0.0,0.0,0.0,0.0,0.0,0.0,0.0,0.0,0.0,0.0,0.0,0.0,0.0,0.0,0.0,0.0,0.0,0.0,0.0,0.0,0.0,0.0,0.0,0.0,-3.8633,-4.2151,-4.2929,-4.5026,-4.5094,-4.188,-3.8903,-3.5723,-3.2239,0.0,0.0,0.0,0.0,0.0,0.0,0.0,0.0,0.0,0.0,0.0,0.0,0.0,0.0,0.0,0.0,0.0,0.0,0.0,0.0,0.0,0.0,0.0,0.0,0.0,0.0,0.0,0.0,0.0,0.0,0.0,0.0,0.0,0.0,0.0,0.0,0.0,0.0,0.0,0.0,0.0,0.0,0.0,0.0,0.0,0.0,0.0,0.0,0.0,0.0,0.0,0.0,0.0,0.0,0.0,0.0,0.0,0.0,0.0,0.0,0.0,0.0,0.0,0.0,0.0,0.0,0.0,0.0,0.0,0.0,0.0,0.0,0.0,0.0,0.0,0.0,0.0,0.0,0.0,0.0,0.0,0.0,0.0,0.0,0.0,0.0,0.0,0.0,0.0,0.0,0.0,0.0,0.0,0.0,0.0,0.0,0.0,0.0,0.0,0.0,0.0,0.0,-3.4167,-3.9411,-4.2929,-4.3707,-4.5805,-4.5635,-4.188,-3.8633,-3.5204,-3.1427,0.0,0.0,0.0,0.0,0.0,0.0,0.0,0.0,0.0,0.0,0.0,0.0,0.0,0.0,0.0,0.0,0.0,0.0,0.0,0.0,0.0,0.0,0.0,0.0,0.0,0.0,0.0,0.0,0.0,0.0,0.0,0.0,0.0,0.0,0.0,0.0,0.0,0.0,0.0,0.0,0.0,0.0,0.0,0.0,0.0,0.0,0.0,0.0,0.0,0.0,0.0,0.0,0.0,0.0,0.0,0.0,0.0,0.0,0.0,0.0,0.0,0.0,0.0,0.0,0.0,0.0,0.0,0.0,0.0,0.0,0.0,0.0,0.0,0.0,0.0,0.0,0.0,0.0,0.0,0.0,0.0,0.0,0.0,0.0,0.0,0.0,0.0,0.0,0.0,0.0,0.0,0.0,0.0,0.0,0.0,0.0,0.0,0.0,0.0,0.0,0.0,0.0,-3.4923,-4.0164,-4.3707,-4.4513,-4.6583,-4.638,-4.2591,-3.8928,-3.5204,0.0,0.0,0.0,0.0,0.0,0.0,0.0,0.0,0.0,0.0,0.0,0.0,0.0,0.0,0.0,0.0,0.0,0.0,0.0,0.0,0.0,0.0,0.0,0.0,0.0,0.0,0.0,0.0,0.0,0.0,0.0,0.0,0.0,0.0,0.0,0.0,0.0,0.0,0.0,0.0,0.0,0.0,0.0,0.0,0.0,0.0,0.0,0.0,0.0,0.0,0.0,0.0,0.0,0.0,0.0,0.0,0.0,0.0,0.0,0.0,0.0,0.0,0.0,0.0,0.0,0.0,0.0,0.0,0.0,0.0,0.0,0.0,0.0,0.0,0.0,0.0,0.0,0.0,0.0,0.0,0.0,0.0,0.0,0.0,0.0,0.0,0.0,0.0,0.0,0.0,0.0,0.0,0.0,0.0,0.0,0.0,0.0,0.0,0.0,0.0,0.0,0.0,0.0,-3.569,-4.0527,-4.3707,-4.4513,-4.6109,-4.5602,-4.1847,-3.9106,-3.5757,-3.1461,0.0,0.0,0.0,0.0,0.0,0.0,0.0,0.0,0.0,0.0,0.0,0.0,0.0,0.0,0.0,0.0,0.0,0.0,0.0,0.0,0.0,0.0,0.0,0.0,0.0,0.0,0.0,0.0,0.0,0.0,0.0,0.0,0.0,0.0,0.0,0.0,0.0,0.0,0.0,0.0,0.0,0.0,0.0,0.0,0.0,0.0,0.0,0.0,0.0,0.0,0.0,0.0,0.0,0.0,0.0,0.0,0.0,0.0,0.0,0.0,0.0,0.0,0.0,0.0,0.0,0.0,0.0,0.0,0.0,0.0,0.0,0.0,0.0,0.0,0.0,0.0,0.0,0.0,0.0,0.0,0.0,0.0,0.0,0.0,0.0,0.0,0.0,0.0,0.0,0.0,0.0,0.0,0.0,0.0,0.0,0.0,0.0,0.0,0.0,0.0,0.0,0.0,-3.6295,-4.0946,-4.3951,-4.4754,-4.617,-4.5664,-4.2227,-3.9876,-3.6734,-3.2231,0.0,0.0,0.0,0.0,0.0,0.0,0.0,0.0,0.0,0.0,0.0,0.0,0.0,0.0,0.0,0.0,0.0,0.0,0.0,0.0,0.0,0.0,0.0,0.0,0.0,0.0,0.0,0.0,0.0,0.0,0.0,0.0,0.0,0.0,0.0,0.0,0.0,0.0,0.0,0.0,0.0,0.0,0.0,0.0,0.0,0.0,0.0,0.0,0.0,0.0,0.0,0.0,0.0,0.0,0.0,0.0,0.0,0.0,0.0,0.0,0.0,0.0,0.0,0.0,0.0,0.0,0.0,0.0,0.0,0.0,0.0,0.0,0.0,0.0,0.0,0.0,0.0,0.0,0.0,0.0,0.0,0.0,0.0,0.0,0.0,0.0,0.0,0.0,0.0,0.0,0.0,0.0,0.0,0.0,0.0,0.0,0.0,0.0,0.0,0.0,0.0,0.0,-3.6683,-4.127,-4.4244,-4.4942,-4.6316,-4.6015,-4.3069,-4.0896,-3.7853,-3.3417,0.0,0.0,0.0,0.0,0.0,0.0,0.0,0.0,0.0,0.0,0.0,0.0,0.0,0.0,0.0,0.0,0.0,0.0,0.0,0.0,0.0,0.0,0.0,0.0,0.0,0.0,0.0,0.0,0.0,0.0,0.0,0.0,0.0,0.0,0.0,0.0,0.0,0.0,0.0,0.0,0.0,0.0,0.0,0.0,0.0,0.0,0.0,0.0,0.0,0.0,0.0,0.0,0.0,0.0,0.0,0.0,0.0,0.0,0.0,0.0,-2.8833,-2.6896,0.0,0.0,0.0,0.0,0.0,0.0,0.0,0.0,0.0,0.0,0.0,0.0,0.0,0.0,0.0,0.0,0.0,0.0,0.0,0.0,0.0,0.0,0.0,0.0,0.0,0.0,0.0,0.0,0.0,0.0,0.0,0.0,0.0,0.0,0.0,0.0,0.0,0.0,0.0,0.0,-3.6199,-4.0682,-4.3391,-4.3523,-4.484,-4.4511,-4.1613,-4.0367,-3.7933,-3.359,-3.0105,0.0,0.0,0.0,0.0,0.0,0.0,0.0,0.0,0.0,0.0,0.0,0.0,0.0,0.0,0.0,0.0,0.0,0.0,0.0,0.0,0.0,0.0,0.0,0.0,0.0,0.0,0.0,0.0,0.0,0.0,0.0,0.0,0.0,0.0,0.0,0.0,0.0,0.0,0.0,0.0,0.0,0.0,0.0,0.0,0.0,0.0,0.0,0.0,0.0,0.0,0.0,0.0,0.0,0.0,0.0,0.0,0.0,0.0,0.0,-3.2737,-3.0686,0.0,0.0,0.0,0.0,0.0,0.0,0.0,0.0,0.0,0.0,0.0,0.0,0.0,0.0,0.0,0.0,0.0,0.0,0.0,0.0,0.0,0.0,0.0,0.0,0.0,0.0,0.0,0.0,0.0,0.0,0.0,0.0,0.0,0.0,0.0,0.0,0.0,0.0,0.0,0.0,-3.5565,-3.9548,-4.1977,-4.23,-4.3299,-4.3041,-4.0821,-3.9725,-3.7733,-3.4432,-3.1182,0.0,0.0,0.0,0.0,0.0,0.0,0.0,0.0,0.0,0.0,0.0,0.0,0.0,0.0,0.0,0.0,0.0,0.0,0.0,0.0,0.0,0.0,0.0,0.0,0.0,0.0,0.0,0.0,0.0,0.0,0.0,0.0,0.0,0.0,0.0,0.0,0.0,0.0,0.0,0.0,0.0,0.0,0.0,0.0,0.0,0.0,0.0,0.0,0.0,0.0,0.0,0.0,0.0,-3.7277,-3.813,-3.9094,-3.9683,-4.0002,-3.9913,-3.7529,-3.5642,-3.4205,-3.2777,0.0,0.0,0.0,0.0,0.0,0.0,0.0,0.0,0.0,0.0,0.0,0.0,0.0,0.0,0.0,0.0,0.0,0.0,0.0,0.0,0.0,0.0,0.0,0.0,-3.4942,-3.3812,0.0,0.0,0.0,0.0,0.0,0.0,0.0,0.0,0.0,0.0,0.0,0.0,-3.504,-3.8522,-4.0699,-4.1264,-4.199,-4.1832,-4.0382,-3.9125,-3.7492,-3.5303,-3.206,-2.9108,0.0,0.0,0.0,0.0,0.0,0.0,0.0,0.0,0.0,0.0,0.0,0.0,0.0,0.0,0.0,0.0,0.0,0.0,0.0,0.0,0.0,0.0,0.0,0.0,0.0,0.0,0.0,0.0,0.0,0.0,0.0,0.0,-2.6758,-2.7393,0.0,0.0,0.0,0.0,0.0,0.0,0.0,0.0,0.0,0.0,0.0,0.0,0.0,-3.6073,-3.7823,-3.9618,-4.0768,-4.1397,-4.2587,-4.3218,-4.3383,-4.3986,-4.4261,-4.4255,-4.3421,0.0,-3.5847,-3.4093,0.0,0.0,0.0,0.0,0.0,0.0,0.0,0.0,0.0,0.0,0.0,0.0,0.0,0.0,0.0,0.0,0.0,0.0,0.0,0.0,0.0,0.0,-3.7143,-3.8402,-3.7803,-3.6967,0.0,-3.4516,-3.2207,-3.1854,-2.9231,0.0,0.0,0.0,0.0,0.0,0.0,0.0,-3.525,-3.8553,-4.0554,-4.0612,-4.1299,-4.1144,-3.9751,-3.8915,-3.7588,-3.5491,-3.3272,-3.0917,-2.8334,-2.6375,0.0,0.0,0.0,0.0,0.0,0.0,0.0,0.0,0.0,0.0,0.0,0.0,0.0,0.0,0.0,0.0,0.0,0.0,0.0,0.0,0.0,0.0,0.0,0.0,0.0,0.0,0.0,0.0,0.0,-2.5913,-2.7769,-2.8425,-2.8179,-2.8053,0.0,0.0,0.0,0.0,0.0,0.0,0.0,0.0,0.0,-3.6747,-3.853,-4.0287,-4.1993,-4.3506,-4.457,-4.5103,-4.6035,-4.6622,-4.6969,-4.7235,-4.7155,-4.6782,-4.5929,-4.3819,-4.0849,-3.8487,-3.6445,-3.4622,0.0,0.0,0.0,0.0,-3.3026,-3.3737,-3.4396,-3.4669,-3.4522,-3.3723,0.0,0.0,0.0,0.0,0.0,0.0,0.0,0.0,0.0,0.0,-3.932,-4.0277,-4.0068,-3.9709,-4.0008,-3.8898,-3.7237,0.0,-3.2673,-3.0258,-2.9214,0.0,0.0,0.0,0.0,-3.1344,-3.5339,-3.7895,-3.9455,-3.9814,-4.0182,-4.0122,-3.9481,-3.8485,-3.7482,-3.6572,-3.4667,-3.2634,-3.054,-2.8658,-2.6302,0.0,0.0,0.0,0.0,0.0,0.0,0.0,0.0,0.0,0.0,0.0,0.0,0.0,0.0,0.0,0.0,0.0,0.0,0.0,0.0,0.0,0.0,0.0,0.0,0.0,0.0,0.0,0.0,-2.7777,-2.9306,-3.0019,-3.0005,-3.0169,0.0,0.0,0.0,0.0,0.0,0.0,-3.5652,-3.6724,-3.8318,-4.0618,-4.2526,-4.4173,-4.5611,-4.6761,-4.7571,-4.7989,-4.8407,-4.8773,-4.9087,-4.9087,-4.8747,-4.812,-4.7127,-4.6029,-4.4724,-4.207,-3.9969,-3.8154,-3.6631,-3.6192,-3.6315,-3.5949,-3.646,-3.7478,-3.8128,-3.8391,-3.8447,-3.8112,-3.678,-3.504,-3.4053,0.0,0.0,0.0,0.0,-3.6061,-3.8512,-4.0038,-4.1055,-4.1713,-4.1743,-4.1662,-4.1662,-4.1662,-4.0868,0.0,-3.5605,-3.3422,-3.1873,0.0,0.0,0.0,-3.064,-3.2484,-3.5937,-3.7725,-3.8841,-3.9379,-3.9559,-3.9619,-3.9403,-3.8332,-3.7584,-3.7434,-3.54,-3.3517,-3.1915,-3.005,-2.766,-2.4657,0.0,0.0,0.0,0.0,0.0,0.0,0.0,0.0,0.0,0.0,0.0,0.0,0.0,0.0,0.0,0.0,0.0,0.0,0.0,0.0,0.0,0.0,0.0,0.0,0.0,0.0,0.0,0.0,0.0,-3.3308,-3.4521,0.0,0.0,0.0,0.0,-3.5809,-3.7952,-3.9259,-3.9337,-4.1428,-4.2944,-4.3624,-4.5872,-4.7388,-4.8015,-4.9139,-4.974,-4.9766,-4.9793,-4.9557,-4.9087,-4.9087,-4.8747,-4.8146,-4.7545,-4.6573,-4.5401,-4.3075,-4.162,-4.0611,-3.8631,-3.7772,-3.7675,-3.8047,-3.8593,-3.9332,-4.1035,-4.196,-4.2275,-4.2166,-3.9888,-3.7255,-3.7195,-3.5789,0.0,0.0,-3.7674,-3.8661,-4.0733,-4.1782,-4.247,-4.309,-4.2761,-4.2351,-4.2351,-4.2351,-4.179,0.0,-3.7952,-3.6209,-3.5064,0.0,-3.1518,-3.3508,-3.4243,-3.5299,-3.7345,-3.8647,-3.9343,-3.9373,-3.9978,-4.0098,-3.9433,-3.8751,-3.8063,-3.7434,-3.4981,-3.3006,-3.1771,-2.9917,-2.7735,-2.5216,-2.3229,0.0,0.0,0.0,0.0,0.0,0.0,0.0,0.0,0.0,0.0,0.0,0.0,0.0,0.0,0.0,0.0,0.0,0.0,0.0,0.0,0.0,0.0,0.0,0.0,0.0,0.0,0.0,0.0,-3.6527,-3.7388,0.0,-3.9217,-3.9029,-3.9618,-4.1483,-4.2788,-4.3964,-4.5062,-4.5898,-4.6944,-4.8277,-4.9453,-5.0368,-5.0943,-5.1753,-5.1962,-5.157,-5.1178,-5.0707,-5.0159,-4.9427,-4.8956,-4.8721,-4.7754,-4.7043,-4.6547,-4.5036,-4.3415,-4.1878,-4.1069,-4.083,-4.0911,-4.0958,-4.1474,-4.2323,-4.3462,-4.4121,-4.4327,-4.3956,-4.2525,-4.0918,-4.0501,-3.9719,-3.9176,-4.0314,-4.1085,-4.1863,-4.297,-4.3449,-4.3688,-4.3898,-4.3479,-4.3,-4.3,-4.2641,-4.2201,-4.1558,-4.0177,-3.8712,-3.7462,-3.5384,-3.4361,-3.5475,-3.5771,-3.646,-3.7957,-3.8876,-3.9589,-4.0008,-4.0277,-4.0307,-4.0068,-3.902,-3.7943,-3.6896,-3.4711,-3.2946,-3.1627,-3.0153,-2.8548,-2.6784,-2.4359,-2.2405,0.0,0.0,0.0,0.0,0.0,0.0,0.0,0.0,0.0,0.0,0.0,0.0,0.0,0.0,0.0,0.0,0.0,0.0,0.0,0.0,0.0,0.0,0.0,0.0,0.0,-3.4981,-3.7813,-3.95,-4.051,-4.1557,-4.2723,-4.2679,-4.3329,-4.5233,-4.6286,-4.7205,-4.8146,-4.8538,-4.9296,-5.0446,-5.1413,-5.2093,-5.2485,-5.3269,-5.3269,-5.2485,-5.2093,-5.1518,-5.076,-4.9793,-4.9244,-4.9035,-4.8041,-4.7519,-4.7226,-4.6469,-4.5116,-4.352,-4.301,-4.2944,-4.3065,-4.2722,-4.3139,-4.3904,-4.4797,-4.5222,-4.5281,-4.508,-4.4381,-4.3531,-4.3312,-4.3001,-4.2791,-4.3279,-4.3688,-4.4137,-4.4526,-4.4646,-4.4646,-4.4646,-4.4317,-4.3888,-4.3678,-4.315,-4.268,-4.244,-4.1512,-4.0367,-3.926,-3.7823,-3.6985,-3.7404,-3.7285,-3.7524,-3.8601,-3.914,-3.9679,-4.0337,-4.0606,-4.0636,-4.0427,-3.9379,-3.8093,-3.6567,-3.4412,-3.2557,-3.1212,-2.9953,-2.8633,-2.7285,-2.4837,-2.2981,-2.1695,0.0,0.0,0.0,0.0,0.0,0.0,0.0,0.0,0.0,0.0,0.0,0.0,0.0,0.0,0.0,0.0,0.0,0.0,0.0,0.0,0.0,0.0,0.0,-3.4575,-3.814,-4.1003,-4.2187,-4.3967,-4.5092,-4.5124,-4.5693,-4.6352,-4.6895,-4.8276,-4.8904,-4.8303,-4.9296,-4.9871,-4.9897,-5.1544,-5.2459,-5.2485,-5.3635,-5.3661,-5.2537,-5.2537,-5.1936,-5.0786,-5.0159,-4.9584,-4.9061,-4.8433,-4.7885,-4.7304,-4.7278,-4.6626,-4.5558,-4.4382,-4.3912,-4.3833,-4.3284,-4.3413,-4.4031,-4.5016,-4.5295,-4.5296,-4.577,-4.5424,-4.4952,-4.5492,-4.5522,-4.5364,-4.5364,-4.5364,-4.5364,-4.5364,-4.5334,-4.5334,-4.5334,-4.5304,-4.5125,-4.4466,-4.3838,-4.318,-4.256,-4.1901,-4.1235,-4.0546,-3.9888,-3.9469,-3.9403,-3.8841,0.0,-3.932,-3.9409,-3.9649,-4.0367,-4.0995,-4.1115,-4.0487,-3.9798,-3.8571,-3.6596,-3.3993,-3.1928,-3.0582,-2.9295,-2.7979,-2.6656,-2.4657,-2.3041,-2.1754,0.0,0.0,0.0,0.0,0.0,0.0,0.0,0.0,0.0,0.0,0.0,0.0,0.0,0.0,0.0,0.0,0.0,0.0,0.0,0.0,0.0,-3.3524,-3.5794,-3.6433,-3.9848,-4.2861,-4.4392,-4.6084,-4.7363,-4.8013,-4.8248,-4.8748,-4.9533,-4.9929,-5.0038,-4.9715,-4.9196,-4.9213,-4.9871,-5.0786,-5.1648,-5.2485,-5.4053,-5.4471,-5.3739,-5.3347,-5.2537,-5.1335,-5.0342,-4.9584,-4.9061,-4.8433,-4.8094,-4.7911,-4.7492,-4.7096,-4.6704,-4.5584,-4.4879,-4.446,-4.4304,-4.4732,-4.547,-4.5912,-4.6044,-4.6073,-4.6616,-4.6396,-4.6015,-4.6544,-4.6726,-4.6741,-4.6741,-4.6741,-4.6741,-4.6741,-4.6411,-4.6052,-4.6052,-4.5663,-4.5125,-4.4466,-4.3808,-4.326,-4.309,-4.291,-4.2432,-4.1294,-4.0965,-4.0696,-4.0217,-3.914,0.0,-3.932,-3.899,-3.929,-4.0935,-4.1265,-4.1362,-4.1115,-4.0068,-3.8571,-3.6596,-3.3993,-3.2108,-3.1241,-2.9535,-2.7979,-2.6656,-2.5585,-2.4418,0.0,0.0,0.0,0.0,0.0,0.0,0.0,0.0,0.0,0.0,0.0,0.0,0.0,0.0,0.0,0.0,0.0,0.0,0.0,0.0,0.0,0.0,-3.6259,-3.8592,-3.9727,-4.2493,-4.4895,-4.6326,-4.7757,-4.8825,-4.9343,-4.9558,-4.9838,-5.0334,-5.0525,-5.0421,-5.0131,-4.9351,-4.9239,-5.0054,-5.075,-5.1701,-5.2877,-5.4367,-5.4811,-5.421,-5.387,-5.3112,-5.1936,-5.1021,-5.0315,-4.9766,-4.9165,-4.8773,-4.8538,-4.8198,-4.778,0.0,0.0,0.0,0.0,0.0,-4.5046,-4.5475,-4.5635,-4.5498,-4.543,-4.6197,-4.6182,-4.5995,-4.6749,-4.6742,-4.6471,-4.6471,-4.6052,-4.5753,-4.6322,-4.6381,-4.6339,-4.6681,-4.6651,-4.6292,-4.5364,-4.4366,-4.3708,-4.3708,-4.3708,0.0,-4.2731,-4.2372,-4.1983,-4.1324,-4.0098,-3.9379,-3.9768,-3.923,-3.9469,-4.1205,-4.1422,-4.1422,-4.1422,-4.0427,0.0,0.0,0.0,-3.2677,-3.1122,-2.9744,0.0,0.0,0.0,0.0,0.0,0.0,0.0,0.0,-2.42,-2.468,0.0,0.0,0.0,0.0,0.0,0.0,0.0,0.0,0.0,0.0,0.0,0.0,0.0,0.0,0.0,0.0,-3.8365,-4.1076,-4.3511,-4.5434,-4.6906,-4.7983,-4.9088,-4.9766,-4.969,-4.9948,-5.0116,-5.0065,-5.0295,-5.032,-4.9859,-4.9466,0.0,0.0,0.0,-5.2108,-5.34,-5.4524,-5.4837,-5.4314,-5.4314,-5.3713,-5.2589,-5.1962,-5.1361,-5.076,-5.0159,-4.961,-4.9165,-4.9113,-4.8381,-4.7174,-4.6133,-4.5689,-4.5558,-4.5036,-4.4774,-4.4668,-4.4668,0.0,0.0,-4.5227,-4.5481,-4.5532,-4.6523,-4.6197,-4.552,-4.546,-4.4594,-4.3967,-4.5173,-4.598,-4.6681,-4.7189,-4.7818,-4.7938,-4.6621,-4.5394,-4.4526,-4.4436,-4.4496,-4.4526,-4.4436,-4.3858,-4.324,-4.262,-4.1235,-4.0307,-4.0397,-3.9768,-3.9798,-4.1115,0.0,0.0,-4.1422,-4.0846,-3.9469,-3.6956,-3.5372,-3.3305,-3.0731,-3.0013,-2.9385,-2.8727,-2.9355,-2.9172,-2.8034,-2.9924,-3.0582,-3.0101,-2.8068,-2.72,0.0,0.0,0.0,0.0,0.0,0.0,0.0,0.0,0.0,0.0,0.0,0.0,0.0,0.0,0.0,-3.6942,-3.9275,-4.1792,-4.4673,-4.6777,-4.8397,-4.9174,-5.0268,-5.077,-5.0293,-5.0333,-5.0132,-4.9769,-4.9783,-4.9861,-5.0041,-4.9138,-4.9285,-5.0939,-5.1131,-5.1944,-5.34,-5.4524,-5.5046,-5.4942,0.0,0.0,-5.3191,-5.2589,-5.1753,-5.076,-5.0159,-4.9819,-4.9688,-4.927,-4.8381,-4.7257,-4.6578,-4.6029,-4.5611,-4.5506,-4.514,-4.4668,-4.4668,-4.4643,-4.4727,-4.5634,-4.611,-4.6398,-4.6747,-4.694,0.0,-4.6505,-4.628,-4.6261,-4.6529,-4.7268,-4.7818,-4.7399,-4.7818,-4.7938,-4.6621,-4.607,-4.5783,-4.5214,-4.5544,-4.5753,-4.5214,-4.4556,-4.3898,-4.32,-4.1115,-3.9798,-4.0337,-3.9349,-3.911,-4.0457,-4.1055,-4.1422,-4.1422,-4.1265,-4.0516,-3.896,-3.6088,-3.3544,-3.1391,-3.0702,-3.0043,-2.9415,-3.0013,-3.0462,-3.0733,-3.2228,-3.3125,-3.3515,-3.1509,-3.0823,0.0,0.0,0.0,0.0,0.0,0.0,0.0,0.0,0.0,0.0,0.0,-3.1398,-3.2504,0.0,-3.6263,-3.7767,-3.9695,-4.1792,-4.4098,-4.6456,-4.844,-4.9719,-5.0522,-5.088,-5.0581,-5.0438,-5.0419,-5.0444,-5.0167,-5.0207,-5.068,-5.0026,-5.0206,-5.1434,-5.1782,-5.2453,-5.3531,-5.4614,-5.4942,-5.4654,-5.4654,-5.4053,-5.2929,-5.2642,-5.2014,-5.1178,-5.0864,-5.042,-4.9819,-4.8982,-4.8277,-4.7728,-4.744,-4.663,-4.5581,-4.5581,-4.519,-4.4668,-4.4668,-4.4668,-4.483,-4.5529,-4.589,-4.6086,-4.6433,-4.6007,-4.5401,-4.5702,-4.5288,-4.511,-4.6372,-4.7495,-4.8297,-4.8297,-4.8775,-4.8895,-4.7578,-4.7309,-4.71,-4.6441,-4.6322,-4.6202,-4.5873,-4.4975,-4.4197,-4.3828,-4.2162,-4.0995,-4.1354,-4.0217,-3.9888,-4.1272,-4.1422,-4.1542,-4.1871,-4.0965,-4.0127,-3.9469,-3.6626,-3.4562,-3.3514,-3.2557,-3.1539,-3.0582,-3.1509,-3.2018,-3.1989,-3.3694,-3.4831,-3.5459,-3.4801,-3.4291,0.0,0.0,0.0,0.0,0.0,0.0,0.0,-2.691,-2.7862,-2.9484,-3.1827,-3.3833,-3.4588,-3.5706,-3.7071,-3.8419,-3.9929,-4.1484,-4.3105,-4.5522,-4.7607,-4.9008,-5.0068,-5.069,-5.0727,-5.073,-5.0896,-5.1247,-5.0845,-5.0845,-5.1398,-5.1261,-5.1459,-5.2083,-5.2638,-5.3174,-5.3731,-5.453,-5.4586,-5.4013,-5.3882,-5.3231,-5.2138,-5.2033,-5.1643,-5.1096,-5.1132,-5.0672,-4.9758,-4.8773,-4.8303,-4.8172,-4.8172,-4.7205,-4.5794,-4.5794,-4.5349,-4.4668,-4.4668,-4.4668,-4.4776,-4.5341,-4.5526,-4.5617,-4.5942,-4.4989,-4.3966,-4.4828,-4.4355,-4.4052,-4.6137,-4.7614,-4.8731,-4.9119,-4.9717,-4.9837,-4.8566,-4.8177,-4.7938,-4.7399,-4.677,-4.6309,-4.6459,-4.5394,-4.4466,-4.4347,-4.309,-4.2261,-4.2381,-4.1115,-4.0726,-4.2081,-4.1722,-4.1722,-4.253,-4.0965,-3.9888,-3.9619,-3.7375,-3.5938,-3.5699,-3.4412,-3.3185,-3.2079,-3.3155,-3.3544,-3.3275,-3.504,-3.6357,-3.7255,-3.7764,-3.7225,-2.0382,-2.2243,-2.5086,-2.6951,-2.8131,-2.9166,0.0,-3.045,-3.1054,-3.3859,-3.5504,-3.6613,-3.7144,-3.7674,-3.825,-3.9022,-3.9949,-4.1169,-4.2995,-4.4798,-4.5904,-4.6127,-4.8777,-5.0659,-5.0842,-5.1519,-5.1749,-5.1322,-5.1222,-5.1423,-5.1975,-5.195,-5.2379,-5.3275,-5.3343,-5.3572,-5.3962,-5.4106,-5.3849,-5.3284,-5.2745,-5.1923,-5.0907,-5.0367,-4.979,-4.9338,-4.9532,-4.9576,-4.9447,-4.9124,-4.8669,-4.8172,-4.8172,-4.744,-4.6395,-4.6395,-4.5689,-4.4668,-4.4668,-4.4668,-4.4776,-4.5126,-4.5555,-4.5871,-4.5644,-4.5751,-4.5924,-4.5671,-4.6022,-4.6557,-4.7069,-4.8465,-4.9591,-4.9086,-4.958,-4.9837,-4.8566,-4.7818,-4.7399,-4.7309,-4.677,-4.6501,-4.71,-4.6082,-4.4975,-4.4407,-4.2701,-4.1752,-4.2321,-4.0696,-4.0038,-4.1392,-4.1414,-4.1893,-4.308,-4.2491,-4.1572,-4.0367,-3.8901,-3.7554,-3.6417,-3.507,-3.4324,-3.4174,-3.4324,-3.4953,-3.6028,-3.6836,-3.8153,-3.9978,-4.0038,-3.902,-2.3473,-2.5475,-2.8028,-2.9818,-3.1795,-3.343,-3.3989,-3.4403,-3.5106,-3.6643,-3.7966,-3.8747,-3.8402,-3.8657,-3.9038,-3.9302,-4.0177,-4.1074,-4.2152,-4.3282,-4.391,-4.3582,-4.4727,-4.647,-4.8844,-4.9865,-5.0531,-5.0888,-5.1139,-5.1523,-5.2076,-5.2402,-5.2772,-5.3136,-5.341,-5.3546,-5.3725,-5.3929,-5.3535,-5.2664,-5.2075,-5.1293,-5.0164,-4.96,-4.924,-4.9009,-4.8772,-4.8739,-4.8894,-4.8477,-4.8231,-4.8172,-4.8172,-4.7675,-4.6944,-4.6604,-4.5741,-4.4668,-4.4668,-4.4668,-4.4722,-4.483,-4.5046,-4.5208,-4.5077,-4.4969,-4.5042,-4.5486,-4.5856,-4.6367,-4.7426,-4.8692,-4.9732,-4.9828,-5.0305,-5.0451,-4.9134,-4.8327,-4.7758,-4.7369,-4.6441,-4.5933,-4.6621,-4.5633,-4.4616,-4.4347,-4.3299,-4.2611,-4.288,-4.1205,-4.0217,-4.0756,-4.1542,-4.2312,-4.32,-4.2731,-4.1991,-4.1025,-3.9709,-3.8571,-3.7614,-3.636,-3.5639,-3.5639,-3.5639,-3.6088,-3.7015,-3.8063,-3.92,-4.0397,-4.0786,-4.0516,-2.6238,-2.8214,-3.0367,-3.2457,-3.4755,-3.6556,-3.6804,-3.7384,-3.8005,-3.846,-3.9226,-3.962,-3.891,-3.9019,-3.9247,-3.9426,-4.0282,-4.0986,-4.1338,-4.2166,-4.2481,-4.1665,-4.1507,-4.2616,-4.5582,-4.7416,-4.8877,-5.0033,-5.1022,-5.1674,-5.2076,-5.2628,-5.2929,-5.2929,-5.3204,-5.3341,-5.3341,-5.3589,-5.3097,-5.1976,-5.1328,-5.0385,-4.9237,-4.8574,-4.8345,-4.8447,-4.7947,-4.7949,-4.8292,-4.7759,-4.7703,-4.7964,-4.812,-4.7776,-4.723,-4.6814,-4.5939,-4.4929,-4.4929,-4.4853,-4.4668,-4.4668,-4.4668,-4.4668,-4.4668,-4.4434,-4.4306,-4.5209,-4.5579,-4.5934,-4.7299,-4.8524,-4.9513,-5.0038,-5.0614,-5.0636,-4.9371,-4.8611,-4.7999,-4.7342,-4.6309,-4.5783,-4.6471,-4.5484,-4.4586,-4.4586,-4.3828,-4.329,-4.329,-4.1773,-4.0516,-4.0157,-4.1294,-4.241,-4.3,-4.2791,-4.2282,-4.1482,-4.0487,-3.9649,-3.896,-3.7883,-3.7375,-3.7554,-3.7375,-3.7614,-3.8242,-3.92,-4.0127,-4.0935,-4.1482,-4.1743,-2.7751,-2.9891,-3.1961,-3.4652,-3.639,-3.7674,-3.8497,-3.8724,-3.8869,-3.9323,-3.9096,-3.8807,-3.8786,-3.8502,-3.8523,-3.9323,-4.0282,-4.0882,-4.0903,-4.1762,-4.1752,-4.0339,-4.0345,-4.0605,-4.0997,-4.4354,-4.714,-4.8632,-5.0813,-5.2076,-5.2101,-5.2628,-5.2929,-5.2929,-5.2929,-5.2929,-5.2929,-5.2929,-5.2377,-5.1339,-5.0207,-4.9101,-4.7908,-4.6828,-4.6652,-4.7129,-4.6939,-4.711,-4.7602,-4.7317,-4.7205,-4.7316,-4.788,-4.7718,-4.7231,-4.7205,-4.6501,-4.5555,-4.5555,-4.5218,-4.4668,-4.4668,-4.4668,-4.4668,-4.4668,-4.4668,-4.4776,-4.5126,-4.5582,-4.6138,-4.669,-4.7819,-4.8923,-4.9248,-4.9941,-5.0147,-4.8791,-4.8176,-4.7703,-4.705,-4.6569,-4.6501,-4.716,-4.6172,-4.5274,-4.5274,-4.4167,-4.329,-4.329,-4.2162,-4.0876,-3.9553,-4.0636,-4.1722,-4.2381,-4.294,-4.2761,-4.1474,-4.1354,-4.1025,-4.0367,-3.9679,-3.9619,-4.0277,-3.9649,-3.9649,-4.0307,-4.0337,-4.1025,-4.2351,-4.2351,-4.2671,-2.9177,-3.1774,-3.4051,-3.5894,-3.7839,-3.9392,-3.9661,-3.9972,-4.0075,-3.962,-3.8688,-3.8046,-3.8357,-3.8046,-3.8212,-3.9744,-4.1007,-4.1866,-4.1866,-4.2311,-4.2094,-4.036,-3.9448,-3.8882,-3.8787,-4.1857,-4.4625,-4.6424,-4.8559,-5.0107,-5.0783,-5.1674,-5.2169,-5.2169,-5.2446,-5.2585,-5.2585,-5.2792,-5.2377,-5.1247,-4.9364,-4.7908,-4.6828,-4.6476,-4.6401,-4.6577,-4.6522,-4.6727,-4.7085,-4.7358,-4.7589,-4.7846,-4.841,-4.8538,-4.8247,-4.7949,-4.7324,-4.6463,-4.5412,-4.4638,-4.4148,-4.4148,-4.4148,-4.4203,-4.4367,-4.4422,-4.4531,-4.4802,-4.5281,-4.5764,-4.5955,-4.6883,-4.7778,-4.7852,-4.8374,-4.8694,-4.8153,-4.7887,-4.7616,-4.7346,-4.7094,-4.704,-4.7279,-4.6172,-4.5005,-4.4137,-4.3589,-4.2811,-4.1564,-4.1773,-4.1572,-4.0217,-4.0846,-4.1692,-4.2351,-4.2162,-4.1654,-4.0786,-4.0726,-4.0636,-4.0397,-3.9768,-3.9918,-4.1025,-4.0397,-4.0397,-4.1055,-4.1542,-4.1961,-4.241,-4.2791,-4.312,-3.1443,-3.3906,-3.6059,-3.7446,-3.9019,-4.022,-4.0199,-4.0303,-4.0054,-3.8812,-3.7343,-3.637,-3.666,-3.6597,-3.7115,-3.8957,-4.08,-4.2094,-4.2094,-4.2538,-4.2373,-4.0882,-3.964,-3.8807,-3.8608,-4.024,-4.1965,-4.3595,-4.5889,-4.7642,-4.8656,-4.988,-5.0694,-5.1,-5.1492,-5.1911,-5.2213,-5.2654,-5.2176,-5.0645,-4.8786,-4.7355,-4.6326,-4.6527,-4.6602,-4.6627,-4.6803,-4.7,-4.7207,-4.7561,-4.781,-4.807,-4.8629,-4.8858,-4.8782,-4.8222,-4.7663,-4.6951,-4.5502,-4.4668,-4.4156,-4.3976,-4.3899,-4.3955,-4.4119,-4.4203,-4.4367,-4.4531,-4.5057,-4.559,-4.55,-4.6277,-4.7,-4.6955,-4.7331,-4.7673,-4.7433,-4.7518,-4.751,-4.7444,-4.7421,-4.7376,-4.7507,-4.6488,-4.5274,-4.4197,-4.3798,-4.288,-4.0696,-4.1145,-4.1145,-3.9828,-4.0277,-4.0846,-4.1265,-4.1145,-4.0756,-4.0098,-4.0038,-4.0277,-4.0726,-4.0337,-4.0726,-4.2043,-4.1654,-4.1654,-4.2073,-4.2491,-4.2701,-4.2731,-4.315,-4.3409,-3.4339,-3.6246,-3.7984,-3.9288,-3.9951,-4.0282,-4.0241,-3.9847,-3.891,-3.7115,-3.5211,-3.3906,-3.3948,-3.436,-3.5272,-3.7136,-3.9744,-4.1545,-4.1607,-4.2393,-4.2621,-4.1731,-4.0841,-4.0236,-4.0034,-3.9356,-3.9367,-4.0475,-4.3091,-4.5024,-4.6012,-4.7459,-4.8575,-4.939,-5.0151,-5.0928,-5.1652,-5.2391,-5.1632,-4.9475,-4.8397,-4.7319,-4.6316,-4.6867,-4.7118,-4.7143,-4.7682,-4.7908,-4.7908,-4.7933,-4.7958,-4.8008,-4.8586,-4.8812,-4.8736,-4.8134,-4.7606,-4.6989,-4.5974,-4.5175,-4.4587,-4.4049,-4.387,-4.3844,-4.3899,-4.4039,-4.4258,-4.4284,-4.4944,-4.5532,-4.5283,-4.5954,-4.6679,-4.6353,-4.6662,-4.6936,-4.6666,-4.7029,-4.7376,-4.7262,-4.7352,-4.7523,-4.7807,-4.6943,-4.604,-4.5352,-4.4695,-4.3349,-4.0816,-4.0487,-3.9978,-3.8631,-3.908,-3.9433,-3.9433,-4.0008,-4.0098,-3.9469,-3.9403,-4.0038,-4.1324,-4.1414,-4.2013,-4.326,-4.329,-4.329,-4.329,-4.329,-4.329,-4.329,-4.3319,-4.3678,-3.6183,-3.8378,-4.0096,-4.0448,-4.0882,-4.1048,-4.0386,-3.9599,-3.8331,-3.6225,-3.3513,-3.1754,-3.2437,-3.2375,-3.3285,-3.6473,-3.9268,-4.1296,-4.2053,-4.287,-4.3221,-4.2642,-4.2083,-4.1493,-4.0734,-3.9875,-3.9621,-4.0277,-4.241,-4.4323,-4.5746,-4.6803,-4.7631,-4.814,-4.9223,-4.9842,-4.9977,-5.0166,-4.962,-4.8259,-4.7922,-4.7356,-4.65,-4.7047,-4.7483,-4.7707,-4.7857,-4.7908,-4.7933,-4.8385,-4.856,-4.8611,-4.9163,-4.9389,-4.9264,-4.8284,-4.7832,-4.7481,-4.6027,-4.4875,-4.4017,-4.3866,-4.3538,-4.3265,-4.3462,-4.3572,-4.376,-4.4442,-4.5093,-4.5459,-4.4948,-4.5374,-4.5641,-4.4765,-4.4639,-4.4832,-4.5103,-4.5633,-4.6095,-4.6434,-4.6719,-4.6924,-4.6904,-4.6298,-4.5572,-4.4892,-4.427,-4.3386,-4.2073,-4.1901,-4.1392,-4.0038,-4.0038,-4.0157,-4.0157,-3.9858,-3.9553,-3.9403,-3.9888,-4.0516,-4.1392,-4.1901,-4.2491,-4.329,-4.329,-4.329,-4.329,-4.329,-4.329,-4.329,-4.3798,-4.4167,-3.8191,-3.9909,-4.1172,-4.1172,-4.1089,-4.0634,-3.933,-3.815,-3.6577,-3.3906,-3.1133,-2.9394,-3.0098,-3.0367,-3.1588,-3.5045,-3.8067,-4.0365,-4.1503,-4.2269,-4.2683,-4.2642,-4.2228,-4.1908,-4.1576,-4.0841,-4.0613,-4.1069,-4.1897,-4.2878,-4.4113,-4.5066,-4.581,-4.6404,-4.7411,-4.799,-4.8263,-4.7869,-4.7208,-4.6394,-4.6439,-4.6391,-4.6273,-4.7153,-4.7805,-4.8309,0.0,-4.8661,-4.8686,-4.8987,-4.9138,-4.9163,-4.9464,-4.959,-4.949,-4.8611,-4.8284,-4.8083,-4.6702,-4.5623,-4.4769,-4.4041,-4.3589,-4.3344,-4.326,-4.3473,-4.3894,-4.4418,-4.5195,-4.5745,-4.495,-4.5155,-4.5283,-4.4156,-4.3899,-4.401,-4.4422,-4.4858,-4.5369,-4.6048,-4.6532,-4.6708,-4.6372,-4.6027,-4.5562,-4.4938,-4.4414,-4.3621,-4.2404,-4.1932,-4.1186,-3.9839,-3.9691,-3.981,-4.0077,-3.9743,-3.9773,-4.0396,-4.0783,-4.1377,-4.2327,-4.2753,-4.3299,-4.4035,-4.4035,-4.4035,-4.4035,-4.4035,-4.4035,-4.4065,-4.4422,-4.4792,-4.0054,-4.1027,-4.1721,-4.1659,-4.0882,-3.9723,-3.7757,-3.6142,-3.4176,-3.105,-2.8545,-2.7055,-2.7552,-2.8462,-3.016,-3.3285,-3.6535,-3.9123,-4.0427,-4.1048,-4.1565,-4.2094,-4.1772,-4.1752,-4.2281,-4.2,-4.2,-4.2414,-4.169,-4.1565,-4.2311,-4.3159,-4.3995,-4.488,-4.5382,-4.6055,-4.6747,-4.576,-4.4935,-4.443,-4.4747,-4.5167,-4.583,-4.7053,-4.8056,-4.8785,-4.9261,0.0,-4.9461,-4.9461,-4.9461,-4.9525,-4.9525,-4.9525,-4.954,-4.8987,-4.8761,-4.8636,-4.7581,-4.6878,-4.615,-4.4543,-4.3915,-4.374,-4.3313,-4.3714,-4.4294,-4.439,-4.5355,-4.6064,-4.5036,-4.5195,-4.5297,-4.4173,-4.3891,-4.3921,-4.4119,-4.4367,-4.4888,-4.5799,-4.6349,-4.651,-4.6005,-4.5846,-4.5591,-4.5071,-4.4619,-4.3772,-4.209,-4.1288,-4.0359,-3.8944,-3.8797,-3.9092,-3.9761,-3.985,-4.0409,-4.1724,-4.1901,-4.2431,-4.3561,-4.3708,-4.4128,-4.4971,-4.4971,-4.4971,-4.4971,-4.4971,-4.4971,-4.4971,-4.509,-4.5543,-4.0997,-4.1731,-4.2115,-4.1742,-4.0882,-3.9558,-3.6949,-3.4714,-3.2395,-2.9559,-2.6868,-2.5254,-2.6082,-2.7303,-2.9083,-3.1884,-3.5397,-3.8067,-3.9061,-3.993,-4.0634,-4.1069,-4.1379,-4.1752,-4.2281,-4.287,-4.3284,-4.3366,-4.3221,-4.3035,-4.2828,-4.3325,-4.4125,-4.5256,-4.4923,-4.5124,-4.5875,-4.4885,-4.4142,-4.3602,-4.4414,-4.5087,-4.5662,-4.6627,-4.7617,-4.8648,-4.8747,0.0,-4.8772,-4.8772,-4.8967,-4.9202,-4.9202,-4.9332,-4.954,-4.8987,-4.8761,-4.8686,-4.8008,-4.7431,-4.6803,-4.5598,-4.4568,-4.3865,-4.4242,-4.4148,-4.4048,-4.5062,-4.5464,-4.5624,-4.5422,-4.5448,-4.5221,-4.4112,-4.3834,-4.3708,-4.331,-4.3653,-4.4232,-4.4834,-4.4996,-4.5115,-4.5434,-4.5021,-4.4616,-4.4556,-4.4015,-4.3129,-4.1615,-4.1286,-4.0598,-3.8974,-3.8797,-3.9268,-4.0439,-4.0557,-4.1077,-4.2372,-4.2931,-4.3384,-4.359,-4.412,-4.46,-4.4971,-4.4803,-4.4803,-4.4971,-4.4803,-4.4803,-4.5,-4.5565,-4.602,-4.1596,-4.2249,-4.2435,-4.1731,-4.0365,-3.8378,-3.5376,-3.2747,-3.016,-2.7427,-2.5254,-2.4053,-2.4716,-2.5771,-2.7379,-3.018,-3.3285,-3.5832,-3.7218,-3.8212,-3.9061,-3.9744,-4.0427,-4.1131,-4.1908,-4.2932,-4.3615,-4.3615,-4.3615,-4.3511,-4.3284,-4.3491,-4.3843,-4.4428,-4.3976,-4.3602,-4.3594,-4.2812,-4.2231,-4.1757,-4.2569,-4.3436,-4.4324,-4.5118,-4.5978,-4.6851,-4.6851,0.0,-4.6851,-4.7274,-4.7738,-4.824,-4.8657,-4.9112,-4.9565,-4.9289,-4.9213,-4.9113,-4.856,-4.8184,-4.7857,-4.7029,-4.5799,-4.4669,-4.4644,-4.4644,-4.4794,-4.5347,-4.5698,-4.5849,-4.5573,-4.5497,-4.5271,-4.4443,-4.4016,-4.3639,-4.3087,-4.3376,-4.3764,-4.4177,-4.4405,-4.4466,-4.4546,-4.4306,-4.3962,-4.367,-4.3621,-4.3118,-4.169,-4.1786,-4.1097,-3.8739,-3.8501,-3.9136,-4.0773,-4.124,-4.2117,-4.3725,-4.4426,-4.4806,-4.4806,-4.5098,-4.5376,-4.5593,-4.5506,-4.5506,-4.5636,-4.5506,-4.5506,-4.5622,-4.5946,-4.6225,-4.1968,-4.2505,-4.2513,-4.1472,-3.9419,-3.6817,-3.3523,-3.0599,-2.786,-2.5372,-2.3763,-2.2999,-2.3494,-2.4322,-2.573,-2.8173,-3.0946,-3.3368,-3.5004,-3.6287,-3.7384,-3.8228,-3.9371,-4.0406,-4.1338,-4.2745,-4.3615,-4.3615,-4.3615,-4.3615,-4.3615,-4.3615,-4.3615,-4.3615,-4.3159,-4.2538,-4.1731,-4.1255,-4.08,-4.0323,-4.1046,-4.1914,-4.2958,-4.3653,-4.4321,-4.4983,-4.4983,0.0,0.0,-4.5752,-4.6493,-4.7226,-4.7911,-4.8657,-4.9396,-4.9396,-4.9396,-4.9411,-4.9024,-4.8798,-4.8686,-4.8234,-4.7079,-4.5748,-4.5296,-4.5397,-4.5673,-4.5673,-4.5974,-4.62,-4.5773,-4.5673,-4.5522,-4.4945,-4.4392,-4.3865,-4.3413,-4.3406,-4.3584,-4.3832,-4.3976,-4.3939,-4.3666,-4.3642,-4.3486,-4.2993,-4.3311,-4.3169,-4.1892,-4.2127,-4.1414,-3.8808,-3.8533,-3.9207,-4.0879,-4.1629,-4.2724,-4.4498,-4.5293,-4.5685,-4.573,-4.5776,-4.5911,-4.6225,-4.618,-4.6238,-4.6429,-4.6384,-4.6384,-4.6429,-4.6576,-4.6681,-4.1977,-4.2357,-4.1997,-4.031,-3.7929,-3.5093,-3.156,-2.8389,-2.5756,-2.4,-2.2574,-2.1855,-2.2503,-2.337,-2.4488,-2.5958,-2.8856,-3.1278,-3.2215,-3.4258,-3.5956,-3.6887,-3.8523,-3.9951,-4.0841,-4.2559,-4.3615,-4.3615,-4.3615,-4.3615,-4.3615,-4.3615,-4.3615,-4.3615,-4.3159,-4.2683,-4.2281,-4.1731,-4.1276,-4.082,-4.1268,-4.1834,-4.2538,-4.3027,-4.3584,-4.4321,-4.4321,0.0,0.0,-4.4778,-4.5595,-4.6493,-4.6917,-4.7762,-4.8731,-4.8731,-4.8902,-4.9137,-4.9087,-4.8932,-4.8761,-4.8711,-4.7908,-4.6979,-4.6928,-4.6602,-4.6225,-4.6225,-4.6276,-4.6301,-4.625,-4.6225,-4.61,-4.5547,-4.497,-4.4543,-4.4493,-4.4066,-4.3771,-4.3771,-4.3425,-4.3129,-4.3078,-4.3053,-4.3053,-4.3002,-4.3041,-4.2756,-4.1878,-4.1831,-4.1282,-3.9798,-3.96,-3.9858,-4.0675,-4.1295,-4.2225,-4.3539,-4.4429,-4.4954,-4.5184,-4.5413,-4.573,-4.6225,-4.6001,-4.6321,-4.7131,-4.6874,-4.6874,-4.7131,-4.7687,-4.7721,-4.0024,-4.1167,-4.1359,-3.914,-3.6527,-3.3638,-3.0077,-2.6927,-2.4267,-2.2838,-2.2005,-2.1591,-2.1853,-2.2525,-2.3412,-2.4531,-2.6889,-2.9042,-3.0222,-3.2354,-3.4238,-3.5438,-3.6949,-3.846,-3.993,-4.1483,-4.2725,-4.3553,-4.3615,-4.3615,-4.3615,-4.3615,-4.3615,-4.3615,-4.3428,-4.3118,-4.2663,-4.2207,-4.1825,-4.1296,-4.1242,-4.131,-4.1573,-4.1714,-4.1926,-4.2187,-4.2187,0.0,0.0,-4.284,-4.3653,-4.4458,-4.5074,-4.582,-4.6626,-4.7117,-4.7581,-4.8174,-4.8567,-4.8988,-4.9264,-4.9264,-4.8962,-4.8485,-4.7807,-4.723,-4.6803,-4.6803,-4.6577,-4.6301,-4.6301,-4.6301,-4.6175,-4.5623,-4.5321,-4.5045,-4.4694,-4.4443,-4.4192,-4.3865,-4.389,-4.3865,-4.3539,-4.3463,-4.3463,-4.3463,-4.3321,-4.307,-4.2573,-4.2631,-4.2236,-4.0799,-3.9825,-3.9552,-4.0172,-4.0491,-4.1168,-4.2378,-4.349,-4.4228,-4.462,-4.5018,-4.5504,-4.6001,-4.6289,-4.6637,-4.6991,-4.7277,-4.7451,-4.7573,-4.7806,-4.7823,-3.8154,-3.9798,-4.0497,-3.7714,-3.5176,-3.2375,-2.872,-2.5605,-2.3148,-2.201,-2.1566,-2.1359,-2.1397,-2.1816,-2.2405,-2.3268,-2.5106,-2.6884,-2.8297,-3.047,-3.2437,-3.3803,-3.5169,-3.6722,-3.8543,-4.0448,-4.2145,-4.3511,-4.3615,-4.3615,-4.3615,-4.3615,-4.3615,-4.3615,-4.3615,-4.3387,-4.2932,-4.2476,-4.2021,-4.1565,-4.1089,-4.0882,-4.0882,-4.0882,-4.0882,-4.0882,-4.0882,0.0,0.0,-4.1594,-4.2278,-4.2958,-4.3653,-4.4321,-4.4983,-4.5685,-4.6426,-4.7226,-4.7846,-4.8592,-4.9292,-4.9292,-4.9292,-4.9142,-4.8344,-4.7846,-4.7556,-4.7168,-4.6728,-4.6301,-4.6301,-4.6301,-4.62,-4.5824,-4.5723,-4.5623,-4.5196,-4.4995,-4.4769,-4.4367,-4.4468,-4.4493,-4.4116,-4.4041,-4.3991,-4.3815,-4.3633,-4.3402,-4.3063,-4.315,-4.2776,-4.1389,-4.0174,-3.9568,-3.9734,-3.9826,-4.0301,-4.134,-4.2493,-4.343,-4.4121,-4.4621,-4.5249,-4.5959,-4.6419,-4.6735,-4.686,-4.7367,-4.7568,-4.7568,-4.7817,-4.7952,-3.6636,-3.8517,-3.9096,-3.609,-3.3753,-3.1211,-2.7337,-2.4394,-2.2308,-2.1648,-2.1213,-2.0994,-2.1167,-2.1205,-2.1444,-2.2124,-2.335,-2.4787,-2.6392,-2.8566,-3.0532,-3.1843,-3.3265,-3.4817,-3.666,-3.9702,-4.2145,-4.3511,-4.3615,-4.3615,-4.3615,-4.3615,-4.3615,-4.3615,-4.3615,-4.3387,-4.2932,-4.2476,-4.2021,-4.1565,-4.1089,-4.0882,-4.0882,-4.0882,-4.0882,0.0,0.0,0.0,0.0,-4.1331,-4.1877,-4.2538,-4.2958,-4.3584,-4.4252,-4.464,-4.5528,-4.6426,-4.6808,-4.7696,-4.86,-4.86,-4.86,-4.86,-4.8576,-4.87,-4.8535,-4.7431,-4.6728,-4.6301,-4.6301,-4.6301,-4.6301,-4.6301,-4.6301,-4.6301,-4.6301,-4.5874,-4.5472,-4.5472,-4.502,-4.4618,-4.4618,-4.4618,-4.4418,-4.389,-4.379,-4.3589,-4.3092,-4.3017,-4.2559,-4.143,-4.0802,-4.021,-3.9559,-3.9547,-3.9856,-4.0383,-4.1501,-4.2579,-4.3638,-4.4206,-4.5018,-4.6146,-4.6174,-4.6483,-4.7101,-4.7101,-4.7101,-4.7101,-4.7769,-4.8252,-3.2909,-3.4532,-3.529,-3.2883,-3.0917,-2.873,-2.5723,-2.3516,-2.1877,-2.1036,-2.0879,-2.0916,-2.0974,-2.1089,-2.1245,-2.1464,-2.2513,-2.3944,-2.5694,-2.7971,-3.0263,-3.2215,-3.5107,-3.7343,-3.8564,-4.0717,-4.2476,-4.3532,-4.3615,-4.3615,-4.3615,-4.3615,-4.3615,-4.3615,-4.3615,-4.3532,-4.3387,-4.2642,-4.226,-4.2115,-4.1255,-4.0882,-4.0882,-4.0882,-4.0882,0.0,0.0,0.0,0.0,-4.1025,-4.1239,-4.1431,-4.1573,-4.1714,-4.1975,-4.263,-4.3445,-4.4252,-4.4801,-4.5617,-4.6291,-4.6291,-4.6291,-4.6291,-4.6291,-4.7154,-4.7838,-4.6998,-4.6636,-4.6473,-4.6341,-4.6301,-4.6301,-4.6301,-4.6301,-4.6301,-4.6301,-4.6175,-4.5949,-4.5573,-4.5648,-4.5648,-4.5271,-4.5221,-4.5146,-4.497,-4.4292,-4.374,-4.3564,-4.3212,-4.2559,-4.1401,-4.0852,-4.0253,-3.9702,-3.9321,-3.9499,-4.044,-4.1158,-4.2032,-4.3095,-4.3656,-4.4293,-4.4984,-4.5445,-4.5747,-4.5938,-4.635,-4.6541,-4.6541,-4.6785,-4.7153,-2.9078,-3.0818,-3.1624,-2.9665,-2.8262,-2.6699,-2.4258,-2.2637,-2.1445,-2.0742,-2.0702,-2.078,-2.078,-2.0896,-2.1012,-2.1051,-2.1688,-2.2898,-2.5092,-2.7309,-2.9831,-3.2901,-3.6052,-3.8321,-3.9158,-4.0956,-4.2435,-4.3532,-4.3615,-4.3615,-4.3615,-4.3615,-4.3615,-4.3615,-4.3615,-4.3615,-4.3615,-4.2704,-4.2322,-4.2322,-4.1317,-4.0882,-4.0882,-4.0882,-4.0882,0.0,0.0,0.0,0.0,-4.0882,-4.0882,-4.0882,-4.0882,-4.0882,-4.0954,-4.1594,-4.2278,-4.2958,-4.3584,-4.4252,-4.4846,-4.4846,-4.4846,-4.4846,-4.4846,-4.5782,-4.6859,-4.6651,-4.6647,-4.6687,-4.6631,-4.6627,-4.6577,-4.6351,-4.6301,-4.6301,-4.6301,-4.6301,-4.62,-4.5874,-4.6075,-4.62,-4.5849,-4.5799,-4.5723,-4.5522,-4.4895,-4.4367,-4.4141,-4.3639,-4.2936,-4.2057,-4.1455,-4.0827,-4.0074,-3.9295,-3.9346,-4.045,-4.092,-4.167,-4.2916,-4.3337,-4.386,-4.4488,-4.4887,-4.5127,-4.5127,-4.5501,-4.5688,-4.5688,-4.5688,-4.6006,0.0,-2.7285,-2.8242,-2.6621,-2.5898,-2.4992,-2.2949,-2.1836,0.0,-2.0703,-2.0605,-2.0605,-2.0605,-2.0605,-2.0664,-2.0897,-2.1015,-2.2048,-2.4836,-2.6941,-2.9788,-3.3955,-3.639,-3.8078,-3.8955,-4.0668,-4.2207,-4.3511,-4.3615,-4.3615,-4.3615,-4.3615,-4.3615,-4.3615,-4.3615,-4.3615,-4.3615,-4.2704,-4.2322,-4.2322,-4.1317,-4.0882,-4.0882,-4.0882,-4.0882,0.0,0.0,0.0,0.0,-4.0882,-4.0882,-4.0882,-4.0882,-4.0882,-4.0954,-4.1331,-4.1877,-4.2468,-4.2818,-4.3375,-4.3976,-4.3976,-4.3976,-4.3976,-4.3976,-4.4663,-4.5606,-4.6305,-4.6706,-4.6879,-4.7022,-4.7082,-4.6932,-4.6491,-4.6341,-4.6316,-4.6316,-4.6266,-4.624,-4.6301,-4.6301,-4.6301,-4.6301,-4.6301,-4.6125,-4.5623,-4.5522,-4.5296,-4.4744,-4.4192,-4.3639,-4.3037,-4.2539,-4.176,-4.0601,-3.9572,-3.9446,-4.0501,-4.0761,-4.1531,-4.292,-4.3216,-4.3743,-4.4559,-4.4559,-4.4559,-4.4559,-4.4559,-4.4559,-4.4559,-4.4559,-4.4884,-2.1818,0.0,-2.5723,-2.4668,-2.4316,-2.3848,0.0,-2.1621,-2.1113,-2.0703,-2.0605,-2.0605,-2.0605,-2.0605,-2.0723,-2.1075,-2.1845,-2.3295,-2.6028,-3.0394,-3.4158,-3.6563,-3.8246,-3.9546,-4.0401,-4.1506,-4.2515,-4.3553,-4.3615,-4.3615,-4.3615,-4.3615,-4.3615,-4.3615,-4.3615,-4.3615,-4.3615,-4.2704,-4.2322,-4.2322,-4.1317,-4.0882,-4.0882,-4.0882,-4.0882,0.0,0.0,0.0,-4.0882,-4.0882,-4.0882,-4.0882,-4.0882,-4.0882,-4.0954,-4.1025,-4.1167,-4.1289,-4.136,-4.1502,-4.1714,-4.1714,-4.1714,-4.1714,-4.1714,-4.3218,-4.5071,-4.5658,-4.6061,-4.6391,-4.6816,-4.6945,-4.692,-4.6772,-4.6427,-4.6192,-4.6439,-4.6238,-4.5999,-4.624,-4.6301,-4.6301,-4.6301,-4.6301,-4.6276,-4.6125,-4.5748,-4.5447,-4.5296,-4.4794,-4.4066,-4.3087,-4.2539,-4.176,-4.0601,-4.0275,-4.0425,-4.105,-4.1207,-4.1739,-4.2957,-4.3063,-4.3169,-4.3406,-4.3406,-4.3406,-4.3406,-4.3406,-4.3406,-4.3406,-4.3406,-4.3708,-2.0605,-2.1914,-2.3144,-2.2523,-2.2461,-2.2383,-2.1484,-2.1094,-2.0859,-2.0644,-2.0605,-2.0605,-2.0605,-2.0742,-2.1074,-2.1719,-2.2781,-2.4952,-2.8967,-3.3282,-3.6757,-3.8521,-3.9838,-4.0838,-4.1304,-4.2124,-4.2815,-4.3289,-4.3462,-4.3511,-4.3304,-4.3304,-4.3304,-4.3304,-4.3304,-4.3387,-4.3615,-4.2704,-4.2322,-4.2322,-4.1317,-4.0882,-4.0882,-4.0882,-4.0882,0.0,0.0,0.0,-4.0882,-4.0882,-4.0882,-4.0882,-4.0882,-4.0882,-4.0882,-4.0882,-4.0882,-4.0882,-4.0882,-4.0882,-4.0882,-4.0882,-4.0882,-4.0882,-4.0882,-4.2018,-4.3423,-4.4233,-4.482,-4.5309,-4.5651,-4.577,-4.577,-4.5705,-4.5581,-4.558,-4.6022,-4.6044,-4.5993,-4.623,-4.6301,-4.6301,-4.6301,-4.6301,-4.6301,-4.6301,-4.605,-4.5874,-4.5874,-4.5372,-4.4694,-4.384,-4.3237,-4.2559,-4.1731,-4.1656,-4.1555,-4.13,-4.158,-4.2082,-4.2936,-4.2986,-4.2986,-4.2986,-4.2986,-4.3112,-4.3363,-4.3363,-4.3489,-4.374,-4.374,-4.3967,-2.0683,-2.1035,-2.1268,-2.0801,-2.1055,-2.1268,-2.0899,-2.0801,-2.0801,-2.0801,-2.0742,-2.0742,-2.0879,-2.123,-2.1814,-2.2852,-2.4414,-2.7305,-3.2461,-3.5625,-3.8027,-3.9687,-4.0951,-4.1695,-4.1773,-4.239,-4.2851,-4.3024,-4.331,-4.3332,-4.2952,-4.2911,-4.2911,-4.2911,-4.2849,-4.3035,-4.3491,-4.2683,-4.2302,-4.2219,-4.1276,-4.0882,-4.0882,-4.0882,-4.0882,0.0,0.0,0.0,-4.0882,-4.0882,-4.0924,-4.0986,-4.0903,-4.0924,-4.0965,-4.0903,-4.0882,-4.0882,-4.0882,-4.0882,-4.0882,-4.0882,-4.0882,-4.0882,-4.0882,-4.1167,-4.1615,-4.2489,-4.3375,-4.4094,-4.4323,-4.4344,-4.4344,-4.4276,-4.4444,-4.4753,-4.5443,-4.5827,-4.6055,-4.6348,-4.637,-4.637,-4.637,-4.637,-4.6345,-4.627,-4.6245,-4.628,-4.6205,-4.5839,-4.5338,-4.4819,-4.4267,-4.3689,-4.3162,-4.3112,-4.271,-4.1727,-4.2158,-4.266,-4.3212,-4.3237,-4.3237,-4.3237,-4.3237,-4.3463,-4.3915,-4.3915,-4.4166,-4.4618,-4.4618,-4.4734,-2.1035,-2.1678,-2.2129,-2.1288,-2.1738,-2.2207,-2.1777,-2.168,-2.168,-2.168,-2.1387,-2.1307,-2.209,-2.2578,-2.3379,-2.4933,-2.8111,-3.1504,-3.457,-3.6621,-3.834,-3.9726,-4.0721,-4.1405,-4.1773,-4.1927,-4.2236,-4.2927,-4.3081,-4.3049,-4.2952,-4.2911,-4.2911,-4.2911,-4.2559,-4.258,-4.3014,-4.2518,-4.2136,-4.1669,-4.1131,-4.0882,-4.0882,-4.0882,-4.0882,0.0,0.0,-4.0882,-4.0882,-4.0882,-4.111,-4.1421,-4.1027,-4.111,-4.1421,-4.1027,-4.0882,-4.0882,-4.0882,-4.0882,-4.0882,-4.0882,-4.0882,-4.0882,-4.0882,-4.0954,-4.1025,-4.1218,-4.2187,-4.3423,-4.4094,-4.4208,-4.4208,-4.4208,-4.4188,-4.4361,-4.538,-4.5503,-4.5702,-4.6644,-4.6808,-4.6808,-4.6808,-4.6808,-4.666,-4.6217,-4.6143,-4.6093,-4.5892,-4.5803,-4.5675,-4.5422,-4.4844,-4.4267,-4.3714,-4.3689,-4.3589,-4.3438,-4.3489,-4.379,-4.4342,-4.4367,-4.4367,-4.4367,-4.4367,-4.4418,-4.4493,-4.4493,-4.4543,-4.4618,-4.4618,-4.4618,-2.0465,-2.1137,-2.1717,-2.1291,-2.2388,-2.3437,-2.3008,-2.3086,-2.3262,-2.3262,-2.291,-2.2871,-2.373,-2.4453,-2.5918,-2.9043,-3.1836,-3.4277,-3.6152,-3.7695,-3.8926,-3.9785,-4.0644,-4.125,-4.1483,-4.1695,-4.1828,-4.1972,-4.218,-4.2104,-4.1562,-4.1522,-4.1522,-4.1522,-4.1559,-4.1686,-4.1891,-4.1927,-4.1772,-4.1565,-4.1089,-4.0882,-4.0882,-4.0882,-4.0882,-4.0882,0.0,-4.0882,-4.0882,-4.0882,-4.1007,-4.1172,-4.0965,-4.1007,-4.1172,-4.0944,-4.0882,-4.0882,-4.0882,-4.0882,-4.0882,-4.0882,-4.0882,-4.0882,-4.0882,-4.0882,-4.0882,-4.0882,-4.136,-4.1975,-4.2327,-4.2398,-4.2462,-4.272,-4.3035,-4.3511,-4.4342,-4.4755,-4.5112,-4.579,-4.5851,-4.5851,-4.5851,-4.5681,-4.5421,-4.5184,-4.5047,-4.5059,-4.5291,-4.5478,-4.5533,-4.5488,-4.5246,-4.4995,-4.4744,-4.4719,-4.4568,-4.4267,-4.4242,-4.4367,-4.4618,-4.4618,-4.4618,-4.4618,-4.4618,-4.4769,-4.5095,-4.5095,-4.5246,-4.5547,-4.5547,-4.5547,-1.9561,-2.0157,-2.0773,-2.0866,-2.2511,-2.4035,-2.3822,-2.4249,-2.4667,-2.4763,-2.4531,-2.457,-2.547,-2.6575,-2.861,-3.239,-3.427,-3.5743,-3.7119,-3.8224,-3.9116,-3.9678,-4.0395,-4.0938,-4.0938,-4.1152,-4.1209,-4.0833,-4.1099,-4.0948,-4.0144,-4.0184,-4.0244,-4.0244,-4.0438,-4.0605,-4.0706,-4.0849,-4.111,-4.14,-4.1048,-4.0882,-4.0882,-4.0882,-4.0882,-4.0882,-4.0882,-4.0882,-4.0882,-4.0882,-4.0944,-4.1027,-4.0924,-4.0882,-4.0882,-4.0986,-4.0965,-4.0882,-4.0882,-4.0882,-4.0882,-4.0882,-4.0882,-4.0882,-4.0882,-4.0882,-4.0882,-4.0882,-4.0882,-4.0882,-4.0882,-4.0882,-4.0965,-4.1317,-4.1905,-4.2664,-4.337,-4.4008,-4.4623,-4.5071,-4.5141,-4.5141,-4.5141,-4.4732,-4.4414,-4.4233,-4.4144,-4.4232,-4.4793,-4.5126,-4.5466,-4.5799,-4.571,-4.5585,-4.5435,-4.5435,-4.526,-4.4811,-4.4778,-4.4895,-4.502,-4.502,-4.502,-4.502,-4.502,-4.5246,-4.5673,-4.5673,-4.5899,-4.6301,-4.6301,-4.6301,-1.8573,-1.9054,-1.9539,-1.9887,-2.1561,-2.3199,-2.3624,-2.46,-2.5547,-2.5875,-2.5932,-2.6107,-2.6956,-2.8842,-3.0907,-3.3179,-3.4364,-3.5521,-3.7172,-3.7798,-3.8406,-3.924,-3.9715,-3.9981,-3.9981,-3.9981,-4.0044,-3.999,-4.0048,-3.9814,-3.9312,-3.9645,-3.986,-3.986,-3.9488,-3.9543,-3.986,-3.9151,-3.9558,-4.0924,-4.0903,-4.0882,-4.0882,-4.0882,-4.0882,-4.0882,-4.0882,-4.0882,-4.0882,-4.0882,-4.1131,-4.1483,-4.1048,-4.0882,-4.0924,-4.1358,-4.1255,-4.0882,-4.0882,-4.0882,-4.0882,-4.0882,-4.0882,-4.0882,-4.0882,-4.0882,-4.0882,-4.0882,-4.0882,-4.0882,-4.0882,-4.0882,-4.0882,-4.0924,-4.1301,-4.1925,-4.2949,-4.3534,-4.4233,-4.5363,-4.5572,-4.5572,-4.5572,-4.5169,-4.4676,-4.4206,-4.403,-4.4201,-4.4765,-4.5083,-4.5702,-4.6718,-4.6376,-4.5884,-4.5367,-4.5342,-4.5318,-4.5269,-4.5341,-4.5648,-4.6175,-4.62,-4.62,-4.62,-4.62,-4.62,-4.625,-4.625,-4.6276,-4.6301,-4.6301,-4.6301,-1.7802,-1.8162,-1.8574,-1.8945,-2.0446,-2.2066,-2.309,-2.4703,-2.6078,-2.6654,-2.7046,-2.7337,-2.7688,-2.9013,-3.0544,-3.1908,-3.3108,-3.4248,-3.5259,-3.5953,-3.6468,-3.6849,-3.7223,-3.7365,-3.7195,-3.7177,-3.6988,-3.6498,-3.6677,-3.6569,-3.6088,-3.643,-3.6664,-3.6664,-3.6479,-3.6561,-3.6725,-3.6402,-3.6571,-3.7215,-3.8951,-3.9806,-3.9806,-4.0002,-4.0002,-3.9806,-4.0379,-4.0573,-4.0593,-4.1097,-4.1451,-4.1524,-4.1048,-4.0882,-4.0903,-4.1069,-4.1027,-4.0882,-4.0882,-4.0882,-4.0882,-4.0882,-4.0882,-4.0882,-4.0882,-4.0882,-4.0882,-4.0882,-4.0882,-4.0882,-4.0882,-4.0882,-4.0882,-4.0882,-4.1253,-4.1647,-4.2102,-4.2731,-4.3394,-4.3857,-4.4134,-4.4347,-4.4347,-4.3943,-4.3559,-4.3388,-4.3206,-4.3346,-4.3978,-4.4301,-4.4679,-4.5193,-4.4613,-4.4024,-4.3812,-4.32,-4.3236,-4.4027,-4.5049,-4.5775,-4.5999,-4.618,-4.6301,-4.6301,-4.6301,-4.6301,-4.6301,-4.6301,-4.6301,-4.6301,-4.6301,-4.6301,-1.6755,-1.6988,-1.7307,-1.7838,-1.9241,-2.0931,-2.244,-2.4713,-2.6644,-2.7319,-2.7944,-2.8343,-2.8219,-2.9006,-2.997,-3.0803,-3.1977,-3.3075,-3.3906,-3.448,-3.4965,-3.5122,-3.5456,-3.5456,-3.5163,-3.5129,-3.4823,-3.4077,-3.4365,-3.4338,-3.3872,-3.425,-3.452,-3.452,-3.4562,-3.4513,-3.447,-3.4322,-3.429,-3.4169,-3.6497,-3.7773,-3.817,-3.8599,-3.8584,-3.8383,-3.918,-3.9672,-3.984,-4.0847,-4.1392,-4.1545,-4.1379,-4.1131,-4.0903,-4.1048,-4.1007,-4.0882,-4.0882,-4.0882,-4.0882,-4.0882,-4.0882,-4.0882,-4.0882,-4.0882,-4.0882,-4.0882,-4.0882,-4.0882,-4.0882,-4.0882,-4.0882,-4.0882,-4.1131,-4.14,-4.1545,-4.2062,-4.258,-4.287,-4.318,-4.3387,-4.3387,-4.3118,-4.287,-4.2725,-4.268,-4.2912,-4.363,-4.3986,-4.4222,-4.4211,-4.3369,-4.2776,-4.2616,-4.182,-4.1817,-4.2753,-4.4175,-4.5184,-4.5611,-4.6059,-4.6301,-4.6301,-4.6301,-4.6301,-4.6301,-4.6301,-4.6301,-4.6301,-4.6301,-4.6301,-1.5396,-1.5396,-1.5672,-1.6683,-1.815,-1.9813,-2.1759,-2.4657,-2.7115,-2.7851,-2.857,-2.8963,-2.8671,-2.8884,-2.9412,-3.0222,-3.1019,-3.1993,-3.3463,-3.3677,-3.3925,-3.4554,-3.4636,-3.4585,-3.4302,-3.4269,-3.3971,-3.3166,-3.3463,-3.3417,-3.3039,-3.3651,-3.4045,-3.4045,-3.4045,-3.3961,-3.3677,-3.3203,-3.2841,-3.2571,-3.3703,-3.4872,-3.6127,-3.6549,-3.6657,-3.6657,-3.7477,-3.8025,-3.8463,-3.9824,-4.0875,-4.1628,-4.2083,-4.169,-4.0924,-4.1379,-4.1276,-4.0882,-4.0882,-4.0882,-4.0882,-4.0882,-4.0882,-4.0882,-4.0882,-4.0882,-4.0882,-4.0882,-4.0882,-4.0882,-4.0882,-4.0882,-4.0882,-4.0882,-4.0882,-4.1007,-4.1462,-4.1565,-4.1835,-4.2745,-4.2911,-4.2911,-4.2911,-4.2911,-4.2766,-4.2405,-4.2564,-4.3078,-4.3786,-4.42,-4.4403,-4.411,-4.3242,-4.2459,-4.1901,-4.1475,-4.1399,-4.1742,-4.2736,-4.3903,-4.522,-4.5914,-4.6301,-4.6301,-4.6301,-4.6301,-4.6301,-4.6301,-4.6301,-4.6301,-4.6301,-4.6301,-1.5965,-1.6301,-1.6711,-1.7911,-1.9608,-2.1364,-2.2842,-2.4794,-2.6768,-2.8611,-2.8777,-2.8429,-2.7928,-2.7716,-2.7757,-2.7955,-2.8744,-2.964,-3.0584,-3.0904,-3.1132,-3.1315,-3.1346,-3.1209,-3.0874,-3.0843,-3.066,-3.0219,-3.0508,-3.0752,-3.0809,-3.1234,-3.1584,-3.1729,-3.1599,-3.1432,-3.1406,-3.0991,-3.0764,-3.0673,-3.1335,-3.2751,-3.4848,-3.5769,-3.587,-3.5424,-3.6528,-3.7234,-3.7759,-3.9644,-4.0397,-4.0301,-4.0196,-3.9798,-3.9301,-3.944,-3.94,-3.9301,-3.9301,-3.9445,-3.9662,-3.9662,-3.9806,-4.0074,-4.0074,-4.0074,-4.0074,-4.0074,-4.0074,-4.0074,-4.0074,-4.031,-4.0525,-4.0811,-4.0882,-4.0924,-4.1048,-4.1338,-4.1648,-4.1917,-4.2228,-4.2456,-4.2456,-4.2456,-4.2518,-4.2704,-4.2799,-4.3052,-4.361,-4.3236,-4.293,-4.2873,-4.1686,-4.088,-4.0705,-4.0011,-3.9982,-4.0928,-4.1375,-4.2358,-4.4199,-4.5123,-4.5574,-4.5574,-4.5574,-4.5574,-4.5574,-4.5574,-4.5574,-4.5574,-4.5574,-4.5772,-1.6404,-1.6932,-1.7604,-1.9169,-2.1013,-2.2988,-2.5052,-2.6179,-2.7247,-2.8856,-2.8783,-2.8286,-2.7759,-2.751,-2.7364,-2.7364,-2.7964,-2.8651,-2.9281,-2.9544,-2.972,-2.9851,-2.9866,-2.9734,-2.9412,-2.9383,-2.9237,-2.8915,-2.931,-2.9661,-2.9851,-3.029,-3.0627,-3.0817,-3.0642,-3.0481,-3.0431,-3.024,-2.9998,-2.9947,-3.0402,-3.1468,-3.2979,-3.3839,-3.4017,-3.3574,-3.4878,-3.5828,-3.6588,-3.8241,-3.8702,-3.8311,-3.8066,-3.7633,-3.7125,-3.7125,-3.7125,-3.7125,-3.7125,-3.7345,-3.7712,-3.7859,-3.8151,-3.8535,-3.8753,-3.8773,-3.8773,-3.8773,-3.8773,-3.8773,-3.8773,-3.9063,-3.959,-4.0453,-4.0811,-4.0882,-4.0882,-4.1089,-4.1338,-4.1524,-4.1866,-4.2053,-4.2053,-4.2219,-4.2352,-4.2621,-4.2973,-4.3221,-4.3325,-4.2704,-4.226,-4.2073,-4.0924,-4.022,-4.022,-3.9488,-3.9452,-4.0341,-4.0743,-4.1551,-4.289,-4.3828,-4.4242,-4.4089,-4.4089,-4.4089,-4.4089,-4.4089,-4.4089,-4.4089,-4.4089,-4.4501,-1.6668,-1.7384,-1.8379,-2.0355,-2.2345,-2.4627,-2.77,-2.8107,-2.8169,-2.8798,-2.871,-2.8432,-2.8063,-2.7976,-2.7961,-2.7961,-2.8286,-2.8681,-2.9251,-2.9325,-2.9442,-2.9734,-2.9778,-2.9661,-2.9354,-2.9325,-2.9208,-2.8915,-2.9442,-2.9793,-2.9822,-3.0407,-3.0744,-3.0773,-3.0803,-3.0685,-3.0475,-3.0475,-3.0246,-2.9954,-3.064,-3.0951,-3.1033,-3.1456,-3.162,-3.1716,-3.2811,-3.3985,-3.517,-3.604,-3.6228,-3.5857,-3.5857,-3.5381,-3.4676,-3.4676,-3.4676,-3.4694,-3.4729,-3.5011,-3.544,-3.5774,-3.6238,-3.6608,-3.707,-3.7144,-3.7144,-3.7144,-3.7144,-3.7144,-3.7144,-3.753,-3.819,-3.9662,-4.0382,-4.0811,-4.0882,-4.0882,-4.1007,-4.1421,-4.1503,-4.1503,-4.1431,-4.1782,-4.2071,-4.2113,-4.2857,-4.3174,-4.2761,-4.2402,-4.1968,-4.1534,-4.0657,-4.0141,-4.0141,-3.9729,-3.9689,-4.0076,-4.0631,-4.1133,-4.1451,-4.2345,-4.2692,-4.2234,-4.2212,-4.2212,-4.2212,-4.2212,-4.2212,-4.2212,-4.2212,-4.2893,-1.6828,-1.7882,-1.9111,-2.132,-2.3691,-2.5944,-2.7596,-2.8122,-2.8505,-2.9134,-2.9222,-2.9149,-2.9076,-2.8856,-2.8695,-2.8695,-2.8754,-2.8842,-2.8973,-2.8988,-2.9017,-2.909,-2.9105,-2.9076,-2.9003,-2.8988,-2.8973,-2.89,-2.9017,-2.9208,-2.9471,-2.9851,-3.0188,-3.0451,-3.07,-3.0788,-3.0715,-3.0715,-3.0685,0.0,-3.0768,-3.0798,-3.0881,-3.1737,-3.2067,-3.2067,-3.269,-3.3265,-3.3903,-3.4717,-3.4769,-3.4194,-3.4194,-3.3741,-3.307,-3.307,-3.307,-3.3104,-3.3312,-3.378,-3.4197,-3.4568,-3.4993,-3.5363,-3.5512,-3.553,-3.553,-3.553,-3.553,-3.553,-3.553,-3.6034,-3.6756,-3.7438,-3.8753,-4.0146,-4.074,-4.0882,-4.0832,-4.0648,-4.0597,-4.0453,-4.0144,-4.0153,-4.0407,-4.0772,-4.1299,-4.1603,-4.1502,-4.1096,-4.0793,-4.0691,-4.0112,-3.9789,-3.9789,-3.9404,-3.9495,-4.0217,-4.003,-4.0124,-4.0494,-4.1878,-4.2635,-4.2523,-4.2523,-4.2523,-4.2523,-4.2523,-4.2523,-4.2523,-4.2523,-4.3057,-1.6856,-1.8277,-1.9945,-2.2842,-2.492,-2.6544,-2.7611,-2.8122,-2.8578,-2.9047,-2.9149,-2.9149,-2.9149,-2.9003,-2.8886,-2.8886,-2.8886,-2.8886,-2.8886,-2.8886,-2.8886,-2.8886,-2.8886,-2.8886,-2.8886,-2.8886,-2.8886,-2.8886,-2.9032,-2.9193,-2.9369,-2.969,-3.0012,-3.0416,-3.051,-3.0671,-3.0817,-3.0817,-3.0817,-3.0817,-3.0817,-3.0817,-3.0817,-3.1331,-3.1497,-3.1497,-3.173,-3.1963,-3.2211,-3.2623,-3.2464,-3.1839,-3.1839,-3.1418,-3.0793,-3.0793,-3.0902,-3.1074,-3.1246,-3.1699,-3.2278,-3.2689,-3.3092,-3.3469,-3.3624,-3.3701,-3.3701,-3.3701,-3.3701,-3.3701,-3.3701,-3.4146,-3.4759,-3.5369,-3.7409,-3.936,-3.9963,-4.0217,-4.0285,-4.0084,-4.0084,-4.0011,-3.977,-3.9929,-4.0147,-4.0365,-4.1008,-4.1323,-4.1103,-4.0907,-4.062,-4.0398,-3.9976,-3.9714,-3.9714,-3.9513,-3.9544,-4.0002,-3.9943,-4.0034,-4.0268,-4.1262,-4.1589,-4.1136,-4.1136,-4.1136,-4.1136,-4.1136,-4.1136,-4.1136,-4.1136,-4.1646,-1.6711,-1.8642,-2.1011,-2.4239,-2.5696,-2.6661,-2.7583,-2.8037,-2.8373,-2.8739,-2.8856,-2.8886,-2.8886,-2.8886,-2.8886,-2.8886,-2.8886,-2.8886,-2.8886,-2.8886,-2.8886,-2.8886,-2.8886,-2.8886,-2.8886,-2.8886,-2.8886,-2.8886,-2.9134,-2.9295,-2.9295,-2.9603,-2.991,-3.0255,-3.0313,-3.0393,-3.0656,-3.0656,-3.0656,-3.0656,-3.0715,-3.0773,-3.0817,-3.0817,-3.0817,-3.0817,-3.0817,-3.0817,-3.0817,-3.0817,-3.0437,-2.9866,-2.9866,-2.95,-2.8973,-2.8973,-2.9178,-2.9471,-2.9529,-3.0011,-3.0525,-3.0987,-3.1358,-3.1696,-3.1999,-3.2078,-3.2078,-3.2078,-3.2078,-3.2078,-3.2078,-3.2396,-3.2855,-3.3628,-3.5775,-3.7878,-3.8477,-3.8895,-3.9089,-3.9013,-3.8937,-3.8937,-3.8937,-3.9204,-3.9491,-3.9644,-4.0433,-4.0935,-4.0735,-4.0833,-4.0773,-4.0318,-3.9958,-3.9698,-3.9618,-3.9618,-3.9578,-3.957,-3.995,-4.0166,-4.0166,-4.0525,-4.0389,-3.9646,-3.9695,-3.9765,-3.9765,-3.9765,-3.9765,-3.9765,-3.9765,-4.0299,-1.5979,-1.9125,-2.2301,-2.4174,-2.5359,-2.6266,-2.6954,-2.7364,-2.7773,-2.8373,-2.871,-2.8886,-2.8886,-2.8886,-2.8886,-2.8886,-2.8886,-2.8886,-2.8886,-2.8886,-2.8886,-2.8886,-2.8886,-2.8886,-2.8886,-2.8886,-2.8886,-2.8886,-2.893,-2.8959,-2.8959,-2.9266,-2.9456,-2.95,-2.9778,-2.9954,-2.9998,-2.9998,-2.9998,-2.9998,-3.0276,-3.0554,-3.0817,-3.0817,-3.0817,-3.0817,-3.0817,-3.0817,-3.0817,-3.0817,-3.0437,-2.9866,-2.9866,-2.9632,-2.931,-2.931,-2.9515,-2.9837,-3.0211,-3.0395,-3.057,-3.0935,-3.1073,-3.1216,-3.1232,-3.1216,-3.1216,-3.1216,-3.1216,-3.1216,-3.1216,-3.1536,-3.1999,-3.2475,-3.3383,-3.4592,-3.6011,-3.6362,-3.632,-3.5934,-3.5642,-3.5349,-3.5349,-3.5461,-3.5729,-3.6445,-3.733,-3.8135,-3.8861,-3.96,-4.0014,-3.9955,-3.9896,-3.97,-3.9288,-3.9269,-3.9259,-3.9268,-3.9321,-3.9445,-3.9786,-3.9858,-3.9962,-4.0218,-4.0554,-4.0696,-4.0696,-4.0696,-4.0696,-4.0696,-4.0696,-4.1022,-1.6682,-1.9769,-2.252,-2.394,-2.5022,-2.5871,-2.6339,-2.6837,-2.7335,-2.7803,-2.8286,-2.8695,-2.8856,-2.8886,-2.8886,-2.8886,-2.8886,-2.8886,-2.8886,-2.8886,-2.8886,-2.8886,-2.8886,-2.8886,-2.8886,-2.8886,-2.8886,-2.8886,-2.8886,-2.8886,-2.8886,-2.9032,-2.9193,-2.9369,-2.9515,-2.9676,-2.9866,-2.9866,-2.9954,-3.0211,-3.0181,-3.0246,-3.0554,-3.0364,-3.0481,-3.0817,-3.0817,-3.0817,-3.0817,-3.0817,-3.0554,-3.0211,-3.0211,-3.002,-2.9647,-2.9647,-2.9851,-3.024,-3.0387,-3.0542,-3.0683,-3.0816,-3.0936,-3.0885,-3.0885,-3.0885,-3.0885,-3.0885,-3.0885,-3.0885,-3.0885,-3.1048,-3.1212,-3.1441,-3.1726,-3.2196,-3.2887,-3.4222,-3.518,-3.5021,-3.4798,-3.4718,-3.4718,-3.4718,-3.4895,-3.5532,-3.664,-3.7505,-3.8168,-3.9009,-3.9567,-3.9567,-3.9356,-3.9126,-3.8839,-3.9046,-3.9096,-3.8891,-3.9313,-3.9486,-3.9393,-3.957,-3.9786,-3.993,-4.0382,-4.0668,-4.0882,-4.0882,-4.0882,-4.0882,-4.0882,-4.1025,-1.7077,-1.9535,-2.1584,-2.3193,-2.4262,-2.5037,-2.5535,-2.6149,-2.6764,-2.7247,-2.773,-2.8183,-2.8578,-2.8783,-2.8886,-2.8886,-2.8886,-2.8886,-2.8886,-2.8886,-2.8886,-2.8886,-2.8886,-2.8886,-2.8886,-2.8886,-2.8886,-2.8886,-2.8886,-2.8886,-2.8886,-2.8886,-2.9003,-2.9251,-2.9251,-2.9369,-2.9617,-2.9617,-2.9778,-3.0181,-2.9851,-2.991,-3.0299,-2.9968,-3.0129,-3.0583,-3.0671,-3.0744,-3.0817,-3.0817,-3.0642,-3.0431,-3.0431,-3.0284,-3.0064,-3.0064,-3.0188,-3.0466,-3.0466,-3.0627,-3.0817,-3.0817,-3.0817,-3.0817,-3.0817,-3.0817,-3.0817,-3.0817,-3.0817,-3.0817,-3.0817,-3.0817,-3.0817,-3.0817,-3.0817,-3.0817,-3.0817,-3.2376,-3.3674,-3.3674,-3.3674,-3.3674,-3.3674,-3.3674,-3.3919,-3.449,-3.5527,-3.6511,-3.7108,-3.7952,-3.8494,-3.8494,-3.8139,-3.7995,-3.8133,-3.8555,-3.8709,-3.8439,-3.9219,-3.9465,-3.905,-3.9301,-3.9498,-3.957,-3.9878,-4.0238,-4.074,-4.0882,-4.0882,-4.0882,-4.0882,-4.0882,-1.6433,-1.7706,-1.9111,-2.1642,-2.2769,-2.3486,-2.4437,-2.514,-2.5871,-2.6822,-2.7042,-2.7261,-2.7801,-2.8491,-2.8886,-2.8886,-2.8886,-2.8886,-2.8886,-2.8886,-2.8886,-2.8886,-2.8886,-2.8886,-2.8886,-2.8886,-2.8886,-2.8886,-2.8886,-2.8886,-2.8886,-2.8886,-2.89,-2.8915,-2.8915,-2.8915,-2.8944,-2.8944,-2.9105,-2.9427,-2.9412,-2.9573,-2.9976,-2.9866,-2.9881,-2.9925,-3.0246,-3.0554,-3.0817,-3.0817,-3.0642,-3.0431,-3.0431,-3.0416,-3.0401,-3.0401,-3.0525,-3.0803,-3.0803,-3.0803,-3.0817,-3.0817,-3.0817,-3.0817,-3.0817,-3.0817,-3.0817,-3.0817,-3.0817,-3.0817,-3.0817,-3.0817,-3.0817,-3.0817,-3.0817,-3.0817,-3.0817,-3.09,-3.0984,-3.0984,-3.0984,-3.0984,-3.0984,-3.0984,-3.1316,-3.2128,-3.3019,-3.3919,-3.4734,-3.5672,-3.6138,-3.6138,-3.6104,-3.6286,-3.6727,-3.7535,-3.7998,-3.799,-3.8754,-3.9077,-3.8667,-3.8647,-3.8865,-3.9248,-3.9248,-3.961,-4.031,-4.074,-4.0882,-4.0882,-4.0882,-4.0882,-1.5069,-1.6477,-1.8057,-1.9623,-2.0794,-2.1832,-2.2813,-2.3852,-2.4818,-2.5593,-2.6237,-2.6808,-2.7247,-2.7861,-2.8286,-2.8286,-2.8461,-2.8593,-2.8593,-2.8769,-2.8886,-2.8886,-2.8886,-2.8886,-2.8886,-2.8886,-2.8886,-2.8886,-2.8886,-2.8886,-2.8886,-2.8886,-2.8886,-2.8886,-2.8886,-2.8886,-2.8886,-2.8886,-2.9047,-2.9369,-2.9164,-2.9237,-2.9544,-2.9339,-2.9354,-2.9559,-2.9676,-3.0027,-3.0539,-3.0744,-3.0759,-3.0656,-3.0656,-3.0656,-3.0656,-3.0656,-3.0729,-3.0817,-3.0817,-3.0817,-3.0817,-3.0817,-3.0817,-3.0817,-3.0817,-3.0817,-3.0817,-3.0817,-3.0817,-3.0817,-3.0817,-3.0817,-3.0817,-3.0817,-3.0817,-3.0817,-3.0817,-3.0993,-3.1139,-3.1139,-3.13,-3.1446,-3.1446,-3.1446,-3.1616,-3.2279,-3.2936,-3.3609,-3.4414,-3.5064,-3.5574,-3.5808,-3.5841,-3.5937,-3.6153,-3.7231,-3.777,-3.7535,-3.867,-3.9032,-3.8611,-3.8592,-3.8667,-3.8817,-3.9067,-3.9433,-3.993,-4.0074,-4.0146,-4.0146,-4.0146,-4.0289,-1.3931,-1.5145,-1.6491,-1.7677,-1.8789,-1.9901,-2.1101,-2.2359,-2.3559,-2.4525,-2.5418,-2.6149,-2.6588,-2.71,-2.7494,-2.783,-2.8063,-2.8238,-2.8341,-2.8608,-2.8769,-2.8871,-2.8886,-2.8886,-2.8886,-2.8886,-2.8886,-2.8886,-2.8886,0.0,-2.8886,-2.8886,-2.8886,-2.8886,-2.8886,-2.8886,-2.8886,-2.8886,-2.9003,-2.9208,-2.8988,-2.9003,-2.9208,-2.8988,-2.9003,-2.9222,-2.9325,-2.969,-3.0284,-3.0407,-3.0568,-3.0671,-3.0671,-3.0729,-3.0817,-3.0817,-3.0817,-3.0817,-3.0817,-3.0817,-3.0817,-3.0817,-3.0817,-3.0817,-3.0817,-3.0817,-3.0817,-3.0817,-3.0817,-3.0817,-3.0817,-3.0905,-3.0993,-3.0993,-3.1066,-3.1154,-3.1154,-3.1227,-3.1315,-3.1315,-3.1578,-3.1798,-3.1798,-3.1798,-3.1839,-3.2078,-3.2378,-3.2762,-3.3121,-3.3615,-3.3965,-3.4203,-3.4329,-3.4566,-3.4911,-3.6023,-3.6654,-3.6515,-3.7564,-3.7956,-3.7477,-3.733,-3.7411,-3.7718,-3.8274,-3.8735,-3.9135,-3.9485,-3.9714,-3.9714,-3.9714,-3.993,0.0,0.0,0.0,-1.592,-1.6755,-1.7662,-1.9338,-2.0676,-2.2081,-2.3676,-2.4606,-2.5213,-2.5871,-2.6252,-2.6793,-2.7684,-2.7844,-2.7976,-2.8373,-2.8355,-2.8549,-2.8856,-2.8886,-2.8886,-2.8886,-2.8886,-2.8886,-2.8886,-2.8886,-2.8886,-2.8886,-2.8886,-2.8886,-2.8886,-2.8886,-2.8886,-2.8886,-2.8886,-2.8886,-2.8886,-2.8886,-2.8886,-2.8886,-2.8886,-2.8886,-2.89,-2.9222,-2.9544,-2.9851,-2.9866,-3.0137,-3.0431,-3.0431,-3.0539,-3.0817,-3.0817,-3.0817,-3.0817,-3.0817,-3.0817,-3.0817,-3.0817,-3.0817,-3.0817,-3.0817,-3.0817,-3.0817,-3.0817,-3.0817,-3.0832,-3.0832,-3.1066,-3.1315,-3.1329,-3.1563,-3.1798,-3.1798,-3.1563,-3.1344,-3.1344,-3.1593,-3.1812,-3.1827,-3.1812,-3.171,-3.1402,-3.1344,-3.1212,-3.092,-3.1139,-3.1329,-3.1344,-3.1637,-3.2155,-3.2996,-3.3901,-3.457,-3.4948,-3.5503,-3.5634,-3.5197,-3.4902,-3.5106,-3.5962,-3.6873,-3.7514,-3.7971,-3.9155,-3.9662,-3.9642,-3.9714,-3.9858,-1.2658,0.0,0.0,0.0,0.0,0.0,-1.7035,-1.8722,-2.0398,-2.2023,-2.3237,-2.4276,-2.5154,-2.5579,-2.6047,-2.6778,-2.7305,-2.7715,-2.7961,-2.8286,-2.8549,-2.8856,-2.8886,-2.8886,-2.8886,-2.8886,-2.8886,0.0,-2.8886,-2.8886,-2.8886,-2.8886,-2.8886,-2.8886,-2.8886,-2.8886,-2.8886,-2.8886,-2.8886,-2.8886,-2.8886,-2.8886,-2.8886,-2.8886,-2.8886,-2.89,-2.8988,-2.9208,-2.9529,-2.9764,-3.0137,-3.0431,-3.0431,-3.0539,-3.0817,-3.0817,-3.0817,-3.0817,-3.0817,-3.0817,-3.0817,-3.0817,-3.0817,-3.0817,-3.0817,-3.0817,-3.0817,-3.0817,-3.0817,-3.0876,-3.111,-3.1242,-3.1373,-3.1607,-3.1739,-3.1798,-3.1798,-3.1915,-3.2017,-3.2017,-3.209,-3.2222,-3.2456,-3.231,-3.2193,-3.2339,-3.1959,-3.1798,-3.2178,-3.19,-3.1841,-3.231,-3.2441,-3.266,-3.2928,-3.376,-3.4359,-3.4518,-3.5326,-3.5643,-3.5543,-3.5444,-3.5589,-3.5889,-3.6817,-3.7348,-3.7513,-3.8778,-3.916,-3.8938,-3.9228,-3.9393,-1.2842,-1.2921,-1.2965,-1.317,0.0,0.0,-1.554,-1.7062,-1.8781,-2.0355,-2.1598,-2.2696,-2.3676,-2.4218,-2.4642,-2.5022,-2.5871,-2.6764,-2.7627,-2.8037,-2.8344,-2.8666,-2.8812,-2.8886,-2.8886,-2.8886,-2.8886,-2.8886,-2.8886,-2.8886,-2.8886,-2.8769,-2.8754,-2.8886,-2.8886,-2.8886,-2.8886,-2.8886,-2.8886,-2.8886,-2.8886,-2.8886,-2.8886,-2.8886,-2.8886,-2.8886,-2.8886,-2.9076,-2.9398,-2.9588,-2.9939,-3.0431,-3.0431,-3.0539,-3.0817,-3.0817,-3.0817,-3.0817,-3.0817,-3.0817,-3.0817,-3.0817,-3.0817,-3.0817,-3.0817,-3.0817,-3.0817,-3.0817,-3.092,-3.1066,-3.1256,-3.152,-3.1768,-3.1959,-3.2105,-3.2207,-3.2207,-3.2354,-3.2441,-3.231,-3.228,-3.2339,-3.2529,-3.2412,-3.231,-3.2354,-3.2163,-3.209,-3.2339,-3.2149,-3.2149,-3.2529,-3.269,-3.2778,-3.2851,-3.3345,-3.369,-3.3751,-3.4112,-3.429,-3.429,-3.4149,-3.4234,-3.455,-3.5392,-3.6075,-3.6491,-3.812,-3.8908,-3.888,-3.9121,-3.9318,-1.3586,-1.3645,-1.3616,-1.3572,-1.3799,0.0,-1.4666,-1.5774,-1.7138,-1.8672,-1.9784,-2.0764,-2.1789,-2.2418,-2.2813,-2.2886,-2.3896,-2.5301,-2.7071,-2.7627,-2.7903,-2.8268,-2.8622,-2.8783,-2.8783,-2.8812,-2.8842,-2.8842,-2.8842,-2.8842,-2.8842,-2.8578,-2.8578,-2.8886,-2.8886,-2.8886,-2.8886,-2.8886,-2.8886,-2.8886,-2.8886,-2.8886,-2.8886,-2.8886,-2.8915,-2.8944,-2.8944,-2.9149,-2.9486,-2.9486,-2.9822,-3.0431,-3.0431,-3.0539,-3.0817,-3.0817,-3.0817,-3.0817,-3.0817,-3.0817,-3.0817,-3.0817,-3.0817,-3.0817,-3.0817,-3.0817,-3.0832,-3.0876,-3.1081,-3.1329,-3.1402,-3.1856,-3.2295,-3.2324,-3.2559,-3.2778,-3.2778,-3.2778,-3.269,-3.2398,-3.231,-3.2295,-3.2339,-3.228,-3.2149,-3.1944,-3.209,-3.2149,-3.1929,-3.209,-3.2266,-3.2324,-3.2559,-3.2734,-3.2763,-3.2778,-3.2778,-3.2778,-3.25,-3.2339,-3.2339,-3.2017,-3.2123,-3.2624,-3.3437,-3.4326,-3.5356,-3.7304,-3.8576,-3.9013,-3.9089,-3.9348,-1.4402,-1.4451,-1.4313,-1.4055,-1.4006,0.0,-1.3944,-1.4645,-1.5659,-1.6863,-1.8003,-1.9155,-2.0384,-2.072,-2.0913,-2.1496,-2.2023,-2.3281,-2.593,-2.6808,-2.7393,-2.7903,-2.8095,-2.8139,-2.8139,-2.8373,-2.852,-2.852,-2.852,-2.852,-2.852,-2.8476,-2.8578,-2.8886,-2.8886,-2.8886,-2.8886,-2.8886,-2.8886,-2.8886,-2.8886,-2.8886,-2.8886,-2.8886,-2.9032,-2.9281,-2.9281,-2.9617,-3.024,-3.024,-3.0313,-3.0431,-3.0431,-3.0539,-3.0817,-3.0817,-3.0817,-3.0817,-3.0817,-3.0817,-3.0817,-3.0817,-3.0817,-3.0817,-3.0817,-3.0817,-3.0876,-3.1139,-3.1256,-3.1432,-3.1959,-3.2193,-3.2354,-3.2617,-3.2719,-3.2778,-3.2778,-3.2778,-3.2749,-3.269,-3.2456,-3.2368,-3.2632,-3.2237,-3.2046,-3.2515,-3.2193,-3.2061,-3.2529,-3.2178,-3.209,-3.2617,-3.25,-3.2485,-3.2749,-3.2778,-3.2778,-3.2778,-3.2705,-3.2676,-3.2676,-3.2368,-3.2291,-3.2549,-3.3162,-3.3952,-3.4861,-3.5931,-3.6913,-3.7681,-3.8386,-3.9126,-1.552,-1.5358,-1.5064,-1.4835,0.0,0.0,0.0,-1.3916,-1.45,-1.5605,-1.6427,-1.7316,-1.8534,-1.8869,-1.914,-1.9462,-2.0208,-2.1408,-2.3354,-2.514,-2.6617,-2.7598,-2.7861,-2.7874,-2.7874,-2.802,-2.8122,-2.8122,-2.8052,-2.8095,-2.8341,-2.8209,-2.8403,-2.8871,-2.8886,-2.8886,-2.8886,-2.8886,-2.8886,-2.8886,-2.8886,-2.8886,-2.8886,-2.8886,-2.9061,-2.9383,-2.9383,-2.9749,-3.0431,-3.0431,-3.0451,-3.0583,-3.0583,-3.0685,-3.0817,-3.0817,-3.0817,-3.0817,-3.0817,-3.0817,-3.0817,-3.0817,-3.0817,-3.0817,-3.0817,-3.0934,-3.1095,-3.1271,-3.1549,-3.1871,-3.2193,-3.2412,-3.2573,-3.2734,-3.2778,-3.2778,-3.2778,-3.2778,-3.2778,-3.2778,-3.2632,-3.2529,-3.2529,-3.212,-3.19,-3.2237,-3.2149,-3.2105,-3.2266,-3.2149,-3.2105,-3.2266,-3.228,-3.2354,-3.2515,-3.2676,-3.2778,-3.2778,-3.2778,-3.2705,-3.2529,-3.2368,-3.2148,-3.1904,-3.2055,-3.2293,-3.2772,-3.3629,-3.5208,-3.7337,-3.7998,-3.8778,-1.647,-1.6164,-1.5743,0.0,0.0,-1.4024,0.0,0.0,0.0,-1.4694,-1.512,-1.5691,-1.6704,-1.713,-1.7276,-1.7395,-1.8379,-1.9529,-2.0501,-2.2769,-2.4949,-2.6617,-2.71,-2.732,-2.7393,-2.7377,-2.7436,-2.7494,-2.7335,-2.751,-2.8212,-2.799,-2.8242,-2.8871,-2.8886,-2.8886,-2.8886,-2.8886,-2.8886,-2.8886,-2.8886,-2.8886,-2.8886,-2.8886,-2.9105,-2.9471,-2.9471,-2.9837,-3.0437,-3.0437,-3.0583,-3.0817,-3.0817,-3.0817,-3.0817,-3.0817,-3.0817,-3.0817,-3.0817,-3.0817,-3.0817,-3.0817,-3.0817,-3.0832,-3.089,-3.1095,-3.1329,-3.1461,-3.1871,-3.2295,-3.2368,-3.2573,-3.2778,-3.2778,-3.2778,-3.2778,-3.2778,-3.2778,-3.2778,-3.2778,-3.2778,-3.269,-3.2427,-3.2105,-3.1915,-3.1973,-3.2149,-3.2207,-3.2017,-3.2105,-3.212,-3.1915,-3.2017,-3.2149,-3.2266,-3.2529,-3.2705,-3.2763,-3.2705,-3.2559,-3.2295,-3.2163,-3.1812,-3.1227,-3.0964,-3.0817,-3.0817,-3.1565,-3.3576,-3.6574,-3.709,-3.7806,0.0,0.0,0.0,0.0,-1.5362,0.0,0.0,0.0,-1.3833,-1.4048,0.0,-1.4628,-1.5317,0.0,0.0,-1.5821,-1.6388,-1.724,-1.8452,-1.9418,-2.1101,-2.4115,-2.4759,-2.5066,-2.5359,-2.5637,-2.593,-2.6208,-2.6208,-2.6588,-2.7539,-2.7817,-2.8242,-2.8871,-2.8886,-2.8886,-2.8886,-2.8886,-2.8886,-2.8886,-2.8886,-2.8886,-2.8886,-2.8886,-2.9222,-2.9807,-2.9807,-3.0173,-3.0773,-3.0773,-3.0788,-3.0817,-3.0817,-3.0817,-3.0817,-3.0817,-3.0817,-3.0817,-3.0817,-3.0817,-3.0817,-3.0817,-3.0817,-3.0876,-3.1168,-3.1285,-3.1432,-3.2017,-3.2222,-3.2354,-3.2646,-3.2749,-3.2778,-3.2778,-3.2778,-3.2778,-3.2778,-3.2778,-3.2778,-3.2778,-3.2778,-3.2763,-3.2719,-3.2441,-3.2324,-3.2617,-3.2441,-3.2368,-3.2632,-3.2193,-3.1944,-3.2207,-3.1739,-3.1651,-3.2237,-3.231,-3.2456,-3.2749,-3.25,-3.2324,-3.228,-3.1724,-3.1256,-3.089,-3.0846,-3.0817,-3.0817,-3.1316,-3.2376,-3.3838,-3.4653,-3.5511,0.0,0.0,0.0,0.0,0.0,0.0,-1.4173,0.0,-1.3777,0.0,0.0,0.0,0.0,0.0,0.0,0.0,-1.5749,-1.6285,-1.734,-1.7852,-1.9213,-2.2081,0.0,0.0,-2.3881,-2.4218,-2.4466,0.0,-2.4964,-2.5608,-2.6574,-2.7291,-2.7964,-2.8608,-2.8622,-2.871,-2.8886,-2.8886,-2.8886,-2.8886,-2.8886,-2.8886,-2.8886,-2.8886,-2.9251,-2.9866,-2.9866,-3.0232,-3.0817,-3.0817,-3.0817,-3.0817,-3.0817,-3.0817,-3.0817,-3.0817,-3.0817,-3.0817,-3.0817,-3.0817,-3.0861,-3.1037,-3.1227,-3.1417,-3.1549,-3.1724,-3.1929,-3.2207,-3.2427,-3.2602,-3.2734,-3.2778,-3.2778,-3.2778,-3.2778,-3.2778,-3.2778,-3.2778,-3.2778,-3.2778,-3.2778,-3.2778,-3.2778,-3.25,-3.2324,-3.2471,-3.2368,-3.2266,-3.2207,-3.1973,-3.1783,-3.1724,-3.1476,-3.1417,-3.1695,-3.2061,-3.2266,-3.2207,-3.19,-3.1724,-3.1724,-3.1271,-3.0964,-3.0832,-3.0817,-3.0817,-3.0817,-3.0984,-3.1399,-3.1881,-3.3265,-3.4409,-1.8731,0.0,0.0,0.0,0.0,0.0,0.0,0.0,0.0,0.0,0.0,0.0,0.0,0.0,0.0,-1.543,0.0,-1.5591,-1.6212,-1.64,-1.7461,-2.0106,0.0,0.0,0.0,-2.2667,-2.2886,0.0,0.0,-2.4408,-2.5564,-2.6632,-2.7539,-2.8209,-2.8311,-2.8578,-2.8886,-2.8886,-2.8886,-2.8886,-2.8886,-2.8886,-2.89,-2.8988,-2.9325,-2.9947,-3.0035,-3.032,-3.0817,-3.0817,-3.0817,-3.0817,-3.0817,-3.0817,-3.0817,-3.0817,-3.0817,-3.0817,-3.0817,-3.0876,-3.1007,-3.1344,-3.1607,-3.1812,-3.19,-3.2105,-3.231,-3.2398,-3.2588,-3.2778,-3.2778,-3.2778,-3.2778,-3.2778,-3.2778,-3.2778,-3.2778,-3.2778,-3.2778,-3.2778,-3.2778,-3.2778,-3.2778,-3.2573,-3.2412,-3.2412,-3.2412,-3.2339,-3.209,-3.1988,-3.1841,-3.1607,-3.149,-3.1476,-3.1563,-3.2017,-3.2178,-3.1944,-3.171,-3.1534,-3.1446,-3.1212,-3.1095,-3.1095,-3.1095,-3.1051,-3.0964,-3.0964,-3.092,-3.0817,-3.2128,-3.3019,0.0,0.0,0.0,-1.7326,0.0,0.0,0.0,0.0,-1.4968,0.0,0.0,0.0,0.0,0.0,0.0,0.0,0.0,0.0,0.0,-1.4531,-1.5376,-1.8081,0.0,0.0,0.0,-2.0808,-2.1072,0.0,-2.2067,0.0,-2.454,-2.5827,-2.6969,-2.7859,-2.8195,-2.8578,-2.8886,-2.8886,-2.8886,-2.8886,-2.8886,-2.8886,-2.89,-2.9222,-2.9544,-2.9881,-3.0284,-3.0525,-3.0817,-3.0817,-3.0817,-3.0817,-3.0817,-3.0817,-3.0817,-3.0817,-3.0817,-3.0817,-3.0817,-3.1037,-3.1344,-3.1681,-3.1783,-3.1856,-3.2178,-3.228,-3.2354,-3.2661,-3.2763,-3.2778,-3.2778,-3.2778,-3.2778,-3.2778,-3.2778,-3.2778,-3.2778,-3.2778,-3.2778,-3.2778,-3.2778,-3.2778,-3.2778,-3.2763,-3.2749,-3.2749,-3.2749,-3.2749,-3.2749,-3.2456,-3.2266,-3.2251,-3.1973,-3.1915,-3.2222,-3.2266,-3.228,-3.2266,-3.2266,-3.2105,-3.1798,-3.1768,-3.1768,-3.1768,-3.1768,-3.1607,-3.13,-3.13,-3.1139,-3.0817,-3.0817,-3.09,0.0,0.0,-1.9052,-1.8464,0.0,0.0,0.0,0.0,0.0,0.0,0.0,0.0,0.0,0.0,0.0,0.0,0.0,0.0,0.0,0.0,-1.4527,-1.5817,-1.7246,-1.8338,-1.8709,0.0,0.0,0.0,-2.0472,0.0,0.0,-2.4715,-2.6193,-2.7598,-2.7949,-2.8373,-2.8886,-2.8886,-2.8886,-2.8886,-2.8886,-2.9003,-2.9208,-2.9325,-2.9676,-3.0269,-3.0387,-3.0525,-3.0817,-3.0817,-3.0817,-3.0817,-3.0817,-3.0817,-3.0817,-3.0817,-3.0817,-3.0861,-3.1066,-3.1505,-3.1973,-3.209,-3.2266,-3.2456,-3.2573,-3.2602,-3.2632,-3.2734,-3.2778,-3.2778,-3.2778,-3.2778,-3.2778,-3.2778,-3.2778,-3.2778,-3.2778,-3.2778,-3.2778,-3.2778,-3.2778,-3.2778,-3.2778,-3.2778,-3.2778,-3.2778,-3.2778,-3.2778,-3.2778,-3.2485,-3.228,-3.228,-3.1988,-3.1841,-3.1959,-3.1959,-3.2046,-3.2266,-3.2076,-3.1915,-3.1798,-3.1798,-3.1798,-3.1798,-3.1798,-3.1637,-3.1315,-3.1315,-3.1139,-3.0817,-3.0817,-3.0817,-2.1096,-2.0788,0.0,-1.9826,-1.9038,0.0,-1.7021,0.0,0.0,0.0,0.0,0.0,0.0,0.0,0.0,0.0,0.0,0.0,0.0,-1.3758,-1.3812,-1.4281,-1.5675,-1.6774,-1.7301,-1.7906,-1.8321,-1.8438,-1.9242,0.0,0.0,0.0,-2.533,-2.7071,-2.7671,-2.8256,-2.8886,-2.8886,-2.8886,-2.8886,-2.9003,-2.9178,-2.9383,-2.9617,-2.9954,-3.0446,-3.0466,-3.0627,-3.0817,-3.0817,-3.0817,-3.0817,-3.0817,-3.0817,-3.0817,-3.0817,-3.089,-3.1051,-3.1505,-3.1929,-3.231,-3.2412,-3.2602,-3.2778,-3.2778,-3.2778,-3.2778,-3.2778,-3.2778,-3.2778,-3.2778,-3.2778,-3.2778,-3.2778,-3.2778,-3.2778,-3.2778,-3.2778,-3.2778,-3.2778,-3.2778,-3.2778,-3.2778,-3.2778,-3.2778,-3.2778,-3.2778,-3.2778,-3.2778,-3.2588,-3.2456,-3.2456,-3.2266,-3.2149,-3.2149,-3.2149,-3.2237,-3.2441,-3.2266,-3.2149,-3.2149,-3.2149,-3.2149,-3.2149,-3.2149,-3.1988,-3.1651,-3.1651,-3.149,-3.1168,-3.1168,-3.111]},{"header":{"parameterUnit":"m.s-1","parameterCategory":1,"la1":30.6,"la2":29.2853,"lo1":-89.7004,"lo2":-87.6739,"dy":0.0162,"dx":0.0183,"nx":112,"ny":82,"refTime":"2026-04-17T00:00:00:Z","depth":0,"parameterNumber":3,"parameterNumberName":"V-component_of_WINDS"},"data":[0.0,0.0,0.0,0.0,0.0,0.0,0.0,0.0,0.0,0.0,0.0,0.0,0.0,0.0,0.0,0.0,0.0,0.0,0.0,0.0,0.0,0.0,0.0,0.0,0.0,0.0,0.0,0.0,0.0,0.0,0.0,0.0,0.0,0.0,0.0,0.0,0.0,0.0,0.0,0.0,0.0,0.0,0.0,0.0,0.0,0.0,0.0,0.0,0.0,0.0,0.0,0.0,0.0,0.0,0.0,0.0,0.0,0.0,0.0,0.0,0.0,0.0,0.0,0.0,0.0,0.0,0.0,0.0,0.0,0.0,0.0,0.0,0.0,0.0,0.0,0.0,0.0,0.0,0.0,0.0,0.0,0.0,0.0,0.0,0.0,0.0,0.0,0.0,0.0,0.0,1.5477,1.7504,2.0559,2.2343,2.2184,2.1454,2.0171,1.8197,0.0,0.0,0.0,0.0,0.0,0.0,0.0,0.0,0.0,0.0,0.0,0.0,0.0,0.0,0.0,0.0,0.0,0.0,0.0,0.0,0.0,0.0,0.0,0.0,0.0,0.0,0.0,0.0,0.0,0.0,0.0,0.0,0.0,0.0,0.0,0.0,0.0,0.0,0.0,0.0,0.0,0.0,0.0,0.0,0.0,0.0,0.0,0.0,0.0,0.0,0.0,0.0,0.0,0.0,0.0,0.0,0.0,0.0,0.0,0.0,0.0,0.0,0.0,0.0,0.0,0.0,0.0,0.0,0.0,0.0,0.0,0.0,0.0,0.0,0.0,0.0,0.0,0.0,0.0,0.0,0.0,0.0,0.0,0.0,0.0,0.0,0.0,0.0,0.0,0.0,0.0,0.0,0.0,0.0,0.0,0.0,0.0,0.0,0.0,0.0,0.0,0.0,0.0,0.0,1.7046,2.0604,2.2661,2.3815,2.3924,2.3526,2.2418,2.037,0.0,0.0,0.0,0.0,0.0,0.0,0.0,0.0,0.0,0.0,0.0,0.0,0.0,0.0,0.0,0.0,0.0,0.0,0.0,0.0,0.0,0.0,0.0,0.0,0.0,0.0,0.0,0.0,0.0,0.0,0.0,0.0,0.0,0.0,0.0,0.0,0.0,0.0,0.0,0.0,0.0,0.0,0.0,0.0,0.0,0.0,0.0,0.0,0.0,0.0,0.0,0.0,0.0,0.0,0.0,0.0,0.0,0.0,0.0,0.0,0.0,0.0,0.0,0.0,0.0,0.0,0.0,0.0,0.0,0.0,0.0,0.0,0.0,0.0,0.0,0.0,0.0,0.0,0.0,0.0,0.0,0.0,0.0,0.0,0.0,0.0,0.0,0.0,0.0,0.0,0.0,0.0,0.0,0.0,0.0,0.0,0.0,0.0,0.0,0.0,0.0,0.0,0.0,1.762,2.0009,2.2318,2.3973,2.4707,2.4174,2.3506,2.2236,2.0292,1.6548,0.0,0.0,0.0,0.0,0.0,0.0,0.0,0.0,0.0,0.0,0.0,0.0,0.0,0.0,0.0,0.0,0.0,0.0,0.0,0.0,0.0,0.0,0.0,0.0,0.0,0.0,0.0,0.0,0.0,0.0,0.0,0.0,0.0,0.0,0.0,0.0,0.0,0.0,0.0,0.0,0.0,0.0,0.0,0.0,0.0,0.0,0.0,0.0,0.0,0.0,0.0,0.0,0.0,0.0,0.0,0.0,0.0,0.0,0.0,0.0,0.0,0.0,0.0,0.0,0.0,0.0,0.0,0.0,0.0,0.0,0.0,0.0,0.0,0.0,0.0,0.0,0.0,0.0,0.0,0.0,0.0,0.0,0.0,0.0,0.0,0.0,0.0,0.0,0.0,0.0,0.0,0.0,0.0,0.0,0.0,0.0,0.0,0.0,0.0,0.0,0.0,0.0,2.0675,2.2588,2.3457,2.4906,2.535,2.4187,2.3013,2.158,1.9714,1.6581,0.0,0.0,0.0,0.0,0.0,0.0,0.0,0.0,0.0,0.0,0.0,0.0,0.0,0.0,0.0,0.0,0.0,0.0,0.0,0.0,0.0,0.0,0.0,0.0,0.0,0.0,0.0,0.0,0.0,0.0,0.0,0.0,0.0,0.0,0.0,0.0,0.0,0.0,0.0,0.0,0.0,0.0,0.0,0.0,0.0,0.0,0.0,0.0,0.0,0.0,0.0,0.0,0.0,0.0,0.0,0.0,0.0,0.0,0.0,0.0,0.0,0.0,0.0,0.0,0.0,0.0,0.0,0.0,0.0,0.0,0.0,0.0,0.0,0.0,0.0,0.0,0.0,0.0,0.0,0.0,0.0,0.0,0.0,0.0,0.0,0.0,0.0,0.0,0.0,0.0,0.0,0.0,0.0,0.0,0.0,0.0,0.0,0.0,0.0,0.0,0.0,0.0,2.1812,2.3816,2.4283,2.5557,2.581,2.4485,2.2891,2.1191,1.9453,1.6083,0.0,0.0,0.0,0.0,0.0,0.0,0.0,0.0,0.0,0.0,0.0,0.0,0.0,0.0,0.0,0.0,0.0,0.0,0.0,0.0,0.0,0.0,0.0,0.0,0.0,0.0,0.0,0.0,0.0,0.0,0.0,0.0,0.0,0.0,0.0,0.0,0.0,0.0,0.0,0.0,0.0,0.0,0.0,0.0,0.0,0.0,0.0,0.0,0.0,0.0,0.0,0.0,0.0,0.0,0.0,0.0,0.0,0.0,0.0,0.0,0.0,0.0,0.0,0.0,0.0,0.0,0.0,0.0,0.0,0.0,0.0,0.0,0.0,0.0,0.0,0.0,0.0,0.0,0.0,0.0,0.0,0.0,0.0,0.0,0.0,0.0,0.0,0.0,0.0,0.0,0.0,0.0,0.0,0.0,0.0,0.0,0.0,0.0,0.0,0.0,0.0,0.0,2.2305,2.4336,2.4785,2.5996,2.6035,2.418,2.2461,2.0625,1.8613,0.0,0.0,0.0,0.0,0.0,0.0,0.0,0.0,0.0,0.0,0.0,0.0,0.0,0.0,0.0,0.0,0.0,0.0,0.0,0.0,0.0,0.0,0.0,0.0,0.0,0.0,0.0,0.0,0.0,0.0,0.0,0.0,0.0,0.0,0.0,0.0,0.0,0.0,0.0,0.0,0.0,0.0,0.0,0.0,0.0,0.0,0.0,0.0,0.0,0.0,0.0,0.0,0.0,0.0,0.0,0.0,0.0,0.0,0.0,0.0,0.0,0.0,0.0,0.0,0.0,0.0,0.0,0.0,0.0,0.0,0.0,0.0,0.0,0.0,0.0,0.0,0.0,0.0,0.0,0.0,0.0,0.0,0.0,0.0,0.0,0.0,0.0,0.0,0.0,0.0,0.0,0.0,0.0,0.0,0.0,0.0,0.0,0.0,0.0,0.0,0.0,0.0,1.9727,2.2754,2.4785,2.5234,2.6445,2.6348,2.418,2.2305,2.0274,1.8144,0.0,0.0,0.0,0.0,0.0,0.0,0.0,0.0,0.0,0.0,0.0,0.0,0.0,0.0,0.0,0.0,0.0,0.0,0.0,0.0,0.0,0.0,0.0,0.0,0.0,0.0,0.0,0.0,0.0,0.0,0.0,0.0,0.0,0.0,0.0,0.0,0.0,0.0,0.0,0.0,0.0,0.0,0.0,0.0,0.0,0.0,0.0,0.0,0.0,0.0,0.0,0.0,0.0,0.0,0.0,0.0,0.0,0.0,0.0,0.0,0.0,0.0,0.0,0.0,0.0,0.0,0.0,0.0,0.0,0.0,0.0,0.0,0.0,0.0,0.0,0.0,0.0,0.0,0.0,0.0,0.0,0.0,0.0,0.0,0.0,0.0,0.0,0.0,0.0,0.0,0.0,0.0,0.0,0.0,0.0,0.0,0.0,0.0,0.0,0.0,0.0,0.0,2.0214,2.3247,2.5234,2.5635,2.6894,2.6777,2.459,2.2418,2.0274,0.0,0.0,0.0,0.0,0.0,0.0,0.0,0.0,0.0,0.0,0.0,0.0,0.0,0.0,0.0,0.0,0.0,0.0,0.0,0.0,0.0,0.0,0.0,0.0,0.0,0.0,0.0,0.0,0.0,0.0,0.0,0.0,0.0,0.0,0.0,0.0,0.0,0.0,0.0,0.0,0.0,0.0,0.0,0.0,0.0,0.0,0.0,0.0,0.0,0.0,0.0,0.0,0.0,0.0,0.0,0.0,0.0,0.0,0.0,0.0,0.0,0.0,0.0,0.0,0.0,0.0,0.0,0.0,0.0,0.0,0.0,0.0,0.0,0.0,0.0,0.0,0.0,0.0,0.0,0.0,0.0,0.0,0.0,0.0,0.0,0.0,0.0,0.0,0.0,0.0,0.0,0.0,0.0,0.0,0.0,0.0,0.0,0.0,0.0,0.0,0.0,0.0,0.0,2.0605,2.3398,2.5234,2.5635,2.6621,2.6328,2.416,2.2578,2.0644,1.8164,0.0,0.0,0.0,0.0,0.0,0.0,0.0,0.0,0.0,0.0,0.0,0.0,0.0,0.0,0.0,0.0,0.0,0.0,0.0,0.0,0.0,0.0,0.0,0.0,0.0,0.0,0.0,0.0,0.0,0.0,0.0,0.0,0.0,0.0,0.0,0.0,0.0,0.0,0.0,0.0,0.0,0.0,0.0,0.0,0.0,0.0,0.0,0.0,0.0,0.0,0.0,0.0,0.0,0.0,0.0,0.0,0.0,0.0,0.0,0.0,0.0,0.0,0.0,0.0,0.0,0.0,0.0,0.0,0.0,0.0,0.0,0.0,0.0,0.0,0.0,0.0,0.0,0.0,0.0,0.0,0.0,0.0,0.0,0.0,0.0,0.0,0.0,0.0,0.0,0.0,0.0,0.0,0.0,0.0,0.0,0.0,0.0,0.0,0.0,0.0,0.0,0.0,2.1273,2.3999,2.5825,2.6231,2.7061,2.6764,2.475,2.343,2.153,1.8938,0.0,0.0,0.0,0.0,0.0,0.0,0.0,0.0,0.0,0.0,0.0,0.0,0.0,0.0,0.0,0.0,0.0,0.0,0.0,0.0,0.0,0.0,0.0,0.0,0.0,0.0,0.0,0.0,0.0,0.0,0.0,0.0,0.0,0.0,0.0,0.0,0.0,0.0,0.0,0.0,0.0,0.0,0.0,0.0,0.0,0.0,0.0,0.0,0.0,0.0,0.0,0.0,0.0,0.0,0.0,0.0,0.0,0.0,0.0,0.0,0.0,0.0,0.0,0.0,0.0,0.0,0.0,0.0,0.0,0.0,0.0,0.0,0.0,0.0,0.0,0.0,0.0,0.0,0.0,0.0,0.0,0.0,0.0,0.0,0.0,0.0,0.0,0.0,0.0,0.0,0.0,0.0,0.0,0.0,0.0,0.0,0.0,0.0,0.0,0.0,0.0,0.0,2.215,2.4982,2.6782,2.7138,2.8036,2.7854,2.6007,2.4694,2.2857,2.0228,0.0,0.0,0.0,0.0,0.0,0.0,0.0,0.0,0.0,0.0,0.0,0.0,0.0,0.0,0.0,0.0,0.0,0.0,0.0,0.0,0.0,0.0,0.0,0.0,0.0,0.0,0.0,0.0,0.0,0.0,0.0,0.0,0.0,0.0,0.0,0.0,0.0,0.0,0.0,0.0,0.0,0.0,0.0,0.0,0.0,0.0,0.0,0.0,0.0,0.0,0.0,0.0,0.0,0.0,0.0,0.0,0.0,0.0,0.0,0.0,2.4463,2.2518,0.0,0.0,0.0,0.0,0.0,0.0,0.0,0.0,0.0,0.0,0.0,0.0,0.0,0.0,0.0,0.0,0.0,0.0,0.0,0.0,0.0,0.0,0.0,0.0,0.0,0.0,0.0,0.0,0.0,0.0,0.0,0.0,0.0,0.0,0.0,0.0,0.0,0.0,0.0,0.0,2.2785,2.5855,2.771,2.7794,2.8635,2.8425,2.6575,2.5841,2.4282,2.1502,1.9411,0.0,0.0,0.0,0.0,0.0,0.0,0.0,0.0,0.0,0.0,0.0,0.0,0.0,0.0,0.0,0.0,0.0,0.0,0.0,0.0,0.0,0.0,0.0,0.0,0.0,0.0,0.0,0.0,0.0,0.0,0.0,0.0,0.0,0.0,0.0,0.0,0.0,0.0,0.0,0.0,0.0,0.0,0.0,0.0,0.0,0.0,0.0,0.0,0.0,0.0,0.0,0.0,0.0,0.0,0.0,0.0,0.0,0.0,0.0,2.8964,2.6324,0.0,0.0,0.0,0.0,0.0,0.0,0.0,0.0,0.0,0.0,0.0,0.0,0.0,0.0,0.0,0.0,0.0,0.0,0.0,0.0,0.0,0.0,0.0,0.0,0.0,0.0,0.0,0.0,0.0,0.0,0.0,0.0,0.0,0.0,0.0,0.0,0.0,0.0,0.0,0.0,2.3764,2.6801,2.8715,2.9004,2.9689,2.9512,2.8121,2.7302,2.5994,2.3831,2.1732,0.0,0.0,0.0,0.0,0.0,0.0,0.0,0.0,0.0,0.0,0.0,0.0,0.0,0.0,0.0,0.0,0.0,0.0,0.0,0.0,0.0,0.0,0.0,0.0,0.0,0.0,0.0,0.0,0.0,0.0,0.0,0.0,0.0,0.0,0.0,0.0,0.0,0.0,0.0,0.0,0.0,0.0,0.0,0.0,0.0,0.0,0.0,0.0,0.0,0.0,0.0,0.0,0.0,3.7521,3.838,3.935,4.0031,4.0265,3.9913,3.5073,3.2162,3.0664,2.9448,0.0,0.0,0.0,0.0,0.0,0.0,0.0,0.0,0.0,0.0,0.0,0.0,0.0,0.0,0.0,0.0,0.0,0.0,0.0,0.0,0.0,0.0,0.0,0.0,2.8107,2.6956,0.0,0.0,0.0,0.0,0.0,0.0,0.0,0.0,0.0,0.0,0.0,0.0,2.4936,2.7924,2.991,3.0395,3.0859,3.0743,2.9813,2.8885,2.7743,2.6302,2.405,2.1736,0.0,0.0,0.0,0.0,0.0,0.0,0.0,0.0,0.0,0.0,0.0,0.0,0.0,0.0,0.0,0.0,0.0,0.0,0.0,0.0,0.0,0.0,0.0,0.0,0.0,0.0,0.0,0.0,0.0,0.0,0.0,0.0,2.6993,2.7573,0.0,0.0,0.0,0.0,0.0,0.0,0.0,0.0,0.0,0.0,0.0,0.0,0.0,3.6788,3.8573,4.0315,4.1485,4.2126,4.3148,4.3787,4.3954,4.4566,4.4844,4.474,4.3421,0.0,3.5304,3.3577,0.0,0.0,0.0,0.0,0.0,0.0,0.0,0.0,0.0,0.0,0.0,0.0,0.0,0.0,0.0,0.0,0.0,0.0,0.0,0.0,0.0,0.0,3.1029,3.2081,3.158,3.0813,0.0,2.8013,2.5333,2.4387,2.2027,0.0,0.0,0.0,0.0,0.0,0.0,0.0,2.6502,2.9516,3.14,3.1516,3.1905,3.1786,3.0778,3.0199,2.9169,2.7666,2.5937,2.3939,2.1594,1.965,0.0,0.0,0.0,0.0,0.0,0.0,0.0,0.0,0.0,0.0,0.0,0.0,0.0,0.0,0.0,0.0,0.0,0.0,0.0,0.0,0.0,0.0,0.0,0.0,0.0,0.0,0.0,0.0,0.0,2.8653,3.0238,3.075,3.0551,3.0348,0.0,0.0,0.0,0.0,0.0,0.0,0.0,0.0,0.0,3.9493,4.1409,4.3297,4.523,4.6757,4.7795,4.8473,4.9259,4.9887,5.0258,5.0543,5.0458,5.0058,4.9038,4.6785,4.3519,3.9508,3.6365,3.3875,0.0,0.0,0.0,0.0,2.8395,2.9006,2.9377,2.9479,2.929,2.836,0.0,0.0,0.0,0.0,0.0,0.0,0.0,0.0,0.0,0.0,3.2993,3.3796,3.3621,3.3319,3.3571,3.2279,3.0424,0.0,2.5815,2.364,2.2115,0.0,0.0,0.0,0.0,2.4599,2.7922,3.0482,3.2093,3.2457,3.2684,3.2635,3.2185,3.1304,3.0556,2.988,2.8261,2.6426,2.4293,2.239,2.0136,0.0,0.0,0.0,0.0,0.0,0.0,0.0,0.0,0.0,0.0,0.0,0.0,0.0,0.0,0.0,0.0,0.0,0.0,0.0,0.0,0.0,0.0,0.0,0.0,0.0,0.0,0.0,0.0,3.2166,3.3787,3.4306,3.4215,3.4175,0.0,0.0,0.0,0.0,0.0,0.0,3.9596,4.0786,4.2557,4.5111,4.723,4.9059,5.0656,5.1933,5.2833,5.3297,5.3762,5.4168,5.4517,5.4517,5.4139,5.3442,5.2339,5.112,4.9562,4.4624,4.1119,3.8741,3.6233,3.495,3.4312,3.2869,3.2829,3.345,3.3363,3.3299,3.3055,3.2122,3.0794,2.9402,2.8574,0.0,0.0,0.0,0.0,3.0192,3.2315,3.3596,3.4449,3.5002,3.5027,3.4881,3.4881,3.4881,3.4065,0.0,2.9026,2.7005,2.5126,0.0,0.0,0.0,2.4481,2.6364,2.9361,3.1306,3.2591,3.3043,3.3194,3.3244,3.3136,3.2164,3.1537,3.1411,2.9704,2.7875,2.6134,2.428,2.1952,1.9135,0.0,0.0,0.0,0.0,0.0,0.0,0.0,0.0,0.0,0.0,0.0,0.0,0.0,0.0,0.0,0.0,0.0,0.0,0.0,0.0,0.0,0.0,0.0,0.0,0.0,0.0,0.0,0.0,0.0,3.8486,3.945,0.0,0.0,0.0,0.0,3.977,4.215,4.3602,4.3689,4.6011,4.7695,4.8449,5.0946,5.263,5.3326,5.4575,5.5242,5.5271,5.53,5.5039,5.4517,5.4517,5.4139,5.3471,5.2804,5.1839,5.0423,4.763,4.552,4.3741,4.0887,3.9114,3.8171,3.7634,3.7187,3.6919,3.7437,3.7286,3.6749,3.5617,3.347,3.126,3.121,3.003,0.0,0.0,3.1612,3.2441,3.4104,3.4981,3.5558,3.6157,3.5881,3.5458,3.5458,3.5458,3.4911,0.0,3.1216,2.9584,2.8142,0.0,2.5071,2.6773,2.7729,2.8969,3.0785,3.2214,3.3086,3.3111,3.3545,3.3646,3.3162,3.2516,3.1938,3.1411,2.9352,2.7573,2.6248,2.4443,2.2359,1.9879,1.8108,0.0,0.0,0.0,0.0,0.0,0.0,0.0,0.0,0.0,0.0,0.0,0.0,0.0,0.0,0.0,0.0,0.0,0.0,0.0,0.0,0.0,0.0,0.0,0.0,0.0,0.0,0.0,0.0,4.2674,4.3582,0.0,4.4424,4.4017,4.4486,4.6172,4.7521,4.8827,5.0046,5.0975,5.2136,5.3617,5.4923,5.5939,5.6578,5.7477,5.771,5.7274,5.6839,5.6316,5.5707,5.4894,5.4371,5.411,5.3036,5.2362,5.181,5.0017,4.7901,4.5602,4.3849,4.2838,4.2273,4.1407,4.1113,4.114,4.0796,4.043,3.9913,3.821,3.64,3.4793,3.4439,3.355,3.28,3.3753,3.4474,3.5127,3.6056,3.6458,3.6659,3.6835,3.6483,3.6081,3.6081,3.578,3.5332,3.464,3.3489,3.2197,3.095,2.9234,2.8325,2.9308,2.9685,3.0323,3.1639,3.2549,3.3219,3.3571,3.3796,3.3822,3.3621,3.2742,3.1838,3.0959,2.9126,2.7584,2.6421,2.5078,2.3586,2.1981,1.9947,1.8265,0.0,0.0,0.0,0.0,0.0,0.0,0.0,0.0,0.0,0.0,0.0,0.0,0.0,0.0,0.0,0.0,0.0,0.0,0.0,0.0,0.0,0.0,0.0,0.0,0.0,4.1782,4.4964,4.6556,4.7747,4.8549,4.9039,4.8559,4.8975,5.0679,5.1519,5.2426,5.3471,5.3907,5.4749,5.6026,5.71,5.7855,5.829,5.9161,5.9161,5.829,5.7855,5.7216,5.6374,5.53,5.4691,5.4458,5.3355,5.2775,5.2565,5.1722,4.9997,4.7806,4.663,4.6052,4.5779,4.4921,4.4574,4.4482,4.3639,4.2915,4.2225,4.0769,3.9265,3.7925,3.7402,3.6564,3.5906,3.6235,3.6659,3.7036,3.7362,3.7462,3.7462,3.7462,3.7186,3.6908,3.6732,3.6207,3.5734,3.5533,3.4756,3.3872,3.2943,3.1738,3.1035,3.1386,3.1286,3.1486,3.239,3.2842,3.3294,3.3847,3.4073,3.4098,3.3922,3.3043,3.1964,3.0683,2.8875,2.7318,2.6248,2.5134,2.3973,2.2844,2.084,1.9284,1.8204,0.0,0.0,0.0,0.0,0.0,0.0,0.0,0.0,0.0,0.0,0.0,0.0,0.0,0.0,0.0,0.0,0.0,0.0,0.0,0.0,0.0,0.0,0.0,4.1205,4.5454,4.8865,5.0166,5.1935,5.303,5.2951,5.2564,5.2507,5.3122,5.4089,5.4313,5.3646,5.4749,5.5387,5.5416,5.7245,5.8261,5.829,5.9568,5.9597,5.8348,5.8348,5.7681,5.6403,5.5707,5.5068,5.4487,5.3791,5.3181,5.2652,5.2623,5.1897,5.0598,4.9291,4.8769,4.8682,4.8072,4.7481,4.6908,4.5909,4.4804,4.3742,4.3245,4.1898,4.0386,3.9895,3.8966,3.8065,3.8065,3.8065,3.8065,3.8065,3.804,3.804,3.804,3.8015,3.7864,3.7312,3.6784,3.6232,3.5633,3.5082,3.46,3.4022,3.347,3.3119,3.3136,3.2591,0.0,3.2993,3.3068,3.3269,3.3872,3.4399,3.45,3.3972,3.3395,3.2365,3.0708,2.8524,2.6791,2.5661,2.4582,2.3477,2.2318,2.069,1.9334,1.8254,0.0,0.0,0.0,0.0,0.0,0.0,0.0,0.0,0.0,0.0,0.0,0.0,0.0,0.0,0.0,0.0,0.0,0.0,0.0,0.0,0.0,4.0758,4.3037,4.3419,4.7489,5.1079,5.2905,5.48,5.6072,5.634,5.6242,5.6326,5.6731,5.7059,5.6807,5.5946,5.5362,5.5138,5.5387,5.6403,5.7361,5.829,6.0032,6.0496,5.9684,5.9248,5.8348,5.7013,5.591,5.5068,5.4487,5.3791,5.3413,5.321,5.2746,5.242,5.1984,5.0627,4.9843,4.9378,4.9204,4.8709,4.8021,4.7544,4.6651,4.5573,4.5017,4.3549,4.1889,4.136,4.0262,3.922,3.922,3.922,3.922,3.922,3.8944,3.8642,3.8642,3.8316,3.7864,3.7312,3.6759,3.638,3.6157,3.6006,3.5604,3.465,3.4374,3.4148,3.3746,3.2842,0.0,3.2993,3.2717,3.2968,3.4349,3.4625,3.463,3.45,3.3621,3.2365,3.0708,2.8524,2.7002,2.6273,2.4782,2.3477,2.2318,2.1468,2.0489,0.0,0.0,0.0,0.0,0.0,0.0,0.0,0.0,0.0,0.0,0.0,0.0,0.0,0.0,0.0,0.0,0.0,0.0,0.0,0.0,0.0,0.0,4.5279,4.7764,4.83,5.0979,5.3503,5.5209,5.6915,5.8058,5.8286,5.8154,5.8224,5.8415,5.825,5.7875,5.7038,5.5904,5.5533,5.5958,5.6488,5.7419,5.8726,6.038,6.0874,6.0206,5.9829,5.8987,5.7681,5.6665,5.5881,5.5271,5.4604,5.4168,5.3907,5.353,5.3065,0.0,0.0,0.0,0.0,0.0,4.9375,4.898,4.8831,4.8155,4.725,4.65,4.4792,4.2891,4.2185,4.0543,3.8994,3.8994,3.8642,3.8391,3.8868,3.8919,3.8969,3.917,3.9145,3.8843,3.8065,3.731,3.6757,3.6757,3.6757,0.0,3.5855,3.5554,3.5228,3.4675,3.3646,3.3043,3.337,3.2918,3.3119,3.4575,3.468,3.468,3.468,3.3922,0.0,0.0,0.0,2.7419,2.6172,2.4958,0.0,0.0,0.0,0.0,0.0,0.0,0.0,0.0,1.9772,1.9986,0.0,0.0,0.0,0.0,0.0,0.0,0.0,0.0,0.0,0.0,0.0,0.0,0.0,0.0,0.0,0.0,4.9438,5.2575,5.4335,5.5239,5.6149,5.7184,5.8501,5.9308,5.9219,5.9001,5.8808,5.8748,5.85,5.8014,5.7483,5.653,0.0,0.0,0.0,5.7999,5.9306,6.0555,6.0903,6.0322,6.0322,5.9655,5.8406,5.771,5.7042,5.6374,5.5707,5.5097,5.4604,5.4546,5.3733,5.2507,5.1236,5.0743,5.0598,5.0017,4.9727,4.9717,4.9717,0.0,0.0,4.7659,4.5779,4.3778,4.2724,4.0514,3.8365,3.8315,3.7585,3.7056,3.7989,3.8668,3.917,3.9597,4.0124,4.0224,3.912,3.809,3.7362,3.7287,3.7337,3.7362,3.7287,3.6883,3.6282,3.5683,3.46,3.3822,3.3897,3.337,3.3395,3.45,0.0,0.0,3.468,3.4274,3.3119,3.1009,2.9615,2.7946,2.5787,2.5184,2.4657,2.4104,2.4632,2.4424,2.3471,2.5109,2.5661,2.5202,2.3552,2.2824,0.0,0.0,0.0,0.0,0.0,0.0,0.0,0.0,0.0,0.0,0.0,0.0,0.0,0.0,0.0,5.0268,5.2477,5.4835,5.7695,5.8675,5.8972,5.8734,5.9907,6.0505,5.9937,5.9852,5.9613,5.905,5.8936,5.8768,5.8461,5.728,5.6947,5.7576,5.7666,5.8198,5.9306,6.0555,6.1135,6.1019,0.0,0.0,5.9074,5.8406,5.7477,5.6374,5.5707,5.5329,5.5184,5.472,5.3733,5.2484,5.173,5.112,5.0656,5.054,5.0133,4.9717,4.9717,4.9582,4.9348,4.8511,4.7024,4.5298,4.3975,4.2265,0.0,4.016,3.9702,3.9424,3.9652,3.9927,4.0124,3.9772,4.0124,4.0224,3.912,3.8743,3.8417,3.7939,3.8216,3.8391,3.7939,3.7387,3.6835,3.6329,3.45,3.3395,3.3847,3.3018,3.2817,3.3947,3.4449,3.468,3.468,3.4625,3.3997,3.2692,3.0281,2.8147,2.6399,2.5762,2.5209,2.4682,2.5184,2.5561,2.5845,2.7042,2.7795,2.806,2.644,2.5921,0.0,0.0,0.0,0.0,0.0,0.0,0.0,0.0,0.0,0.0,0.0,4.4633,4.6529,0.0,5.1669,5.3812,5.6037,5.8187,6.0279,6.1789,6.2139,6.0717,6.1017,6.1177,6.0816,6.0376,6.0086,6.0116,5.9787,5.9703,5.9866,5.8833,5.8525,5.9168,5.8916,5.9157,5.9976,6.0788,6.1019,6.07,6.07,6.0032,5.8784,5.8464,5.7768,5.6839,5.649,5.5997,5.5329,5.44,5.3617,5.3007,5.2688,5.1788,5.0734,5.0734,5.0299,4.9717,4.9717,4.9717,4.9571,4.893,4.7728,4.6389,4.543,4.3563,4.1693,4.1421,4.0421,3.9561,4.0134,4.0385,4.0526,4.0526,4.0927,4.1028,3.9923,3.9697,3.9521,3.8969,3.8868,3.8768,3.8492,3.7739,3.7086,3.6857,3.5378,3.4399,3.47,3.3746,3.347,3.4555,3.468,3.4781,3.5056,3.4374,3.3671,3.3119,3.0733,2.9001,2.8184,2.7318,2.6465,2.5661,2.644,2.6866,2.6901,2.8273,2.9227,2.9754,2.9202,2.8837,0.0,0.0,0.0,0.0,0.0,0.0,0.0,4.3065,4.4266,4.6059,4.8544,5.0635,5.1399,5.3565,5.5612,5.6825,5.9058,6.1071,6.228,6.4116,6.4632,6.2587,6.2245,6.2042,6.181,6.0997,6.0655,6.1074,6.0595,6.0595,6.1253,6.0552,6.0384,6.0981,6.0554,6.05,6.0999,6.123,6.1024,6.0383,6.0238,5.951,5.8287,5.8171,5.7734,5.7122,5.7038,5.6401,5.5384,5.4168,5.3646,5.35,5.35,5.2426,5.0859,5.0859,5.0365,4.9717,4.9717,4.9717,4.962,4.9157,4.829,4.7341,4.6751,4.4891,4.2924,4.2819,4.1271,3.9926,4.0818,4.1027,4.0981,4.1307,4.181,4.1911,4.0752,4.0425,4.0224,3.9772,3.9245,3.8944,3.907,3.809,3.7312,3.7211,3.6157,3.5382,3.5483,3.45,3.4173,3.5232,3.4931,3.4931,3.5608,3.4374,3.347,3.3244,3.1361,3.0156,2.9955,2.8875,2.7846,2.6977,2.7821,2.8147,2.7921,2.9402,3.0507,3.126,3.1687,3.1235,3.3506,3.6031,4.0243,4.3131,4.5019,4.6676,0.0,4.873,4.9457,5.3276,5.454,5.5448,5.7061,5.7462,5.8065,5.9661,6.05,6.1613,6.3444,6.4576,6.4803,6.3634,6.4,6.3973,6.2925,6.222,6.1672,6.1164,6.1044,6.1283,6.1942,6.1912,6.201,6.2377,6.2319,6.2173,6.1939,6.1969,6.1674,6.1027,6.0409,5.9468,5.8176,5.7559,5.7025,5.6383,5.6109,5.5913,5.5767,5.4798,5.4052,5.35,5.35,5.2688,5.1527,5.1527,5.0743,4.9717,4.9717,4.9717,4.962,4.9355,4.8852,4.8233,4.7369,4.6556,4.5724,4.4979,4.4057,4.332,4.3226,4.2784,4.2261,4.1831,4.1973,4.1911,4.0752,4.0124,3.9772,3.9697,3.9245,3.9019,3.9521,3.8668,3.7739,3.7262,3.583,3.4956,3.5433,3.4148,3.3596,3.4655,3.4751,3.5152,3.6229,3.5655,3.4806,3.3872,3.2641,3.1512,3.0557,2.9428,2.8737,2.8612,2.8737,2.9264,3.0231,3.0909,3.2014,3.3545,3.3596,3.2742,3.8118,4.0967,4.4854,4.7835,5.0883,5.35,5.4394,5.5057,5.6045,5.8217,5.9738,6.0675,6.0571,6.0826,6.1278,6.1989,6.2914,6.401,6.522,6.6489,6.6498,6.4462,6.3434,6.2801,6.2517,6.1304,6.0756,6.1322,6.1216,6.1403,6.2061,6.245,6.2752,6.2905,6.2673,6.2556,6.2351,6.2175,6.1585,6.0583,5.9905,5.8876,5.758,5.6932,5.652,5.6255,5.5736,5.5454,5.5265,5.4433,5.392,5.35,5.35,5.2949,5.2136,5.1759,5.0801,4.9717,4.9717,4.9717,4.9669,4.9571,4.9375,4.912,4.8763,4.8224,4.7673,4.7412,4.6562,4.5664,4.5302,4.452,4.371,4.3125,4.287,4.2333,4.1229,4.0551,4.0074,3.9747,3.8969,3.8542,3.912,3.8291,3.7437,3.7211,3.6332,3.5755,3.5981,3.4575,3.3746,3.4198,3.4781,3.5504,3.6329,3.5855,3.5157,3.4424,3.3319,3.2365,3.1562,3.0442,2.9905,2.9905,2.9905,3.0281,3.106,3.1938,3.2893,3.3897,3.4223,3.3997,4.2195,4.5152,4.8597,5.1943,5.562,5.8502,5.8899,5.9827,6.0821,6.155,6.2775,6.3405,6.242,6.2444,6.2808,6.3249,6.4465,6.5591,6.6154,6.7479,6.7328,6.4465,6.2561,6.1431,6.132,6.0013,5.969,6.0965,6.1211,6.1583,6.2061,6.272,6.3079,6.3079,6.2847,6.2731,6.2731,6.2468,6.1758,6.0455,5.9569,5.8474,5.7143,5.6373,5.6107,5.6225,5.5522,5.5159,5.5066,5.4339,5.3919,5.3739,5.3914,5.3646,5.3033,5.2566,5.1358,5.0008,5.0008,4.9814,4.9717,4.9717,4.9717,4.9717,4.9717,4.9349,4.8992,4.9014,4.824,4.7359,4.6888,4.5847,4.4778,4.4367,4.3708,4.2962,4.1796,4.1062,4.0455,3.9901,3.8944,3.8417,3.8994,3.8165,3.7412,3.7412,3.6857,3.6405,3.6405,3.5052,3.3997,3.3696,3.465,3.5508,3.6081,3.5906,3.5479,3.4731,3.3972,3.3269,3.2692,3.1788,3.1361,3.1512,3.1361,3.1562,3.2089,3.2893,3.3671,3.4349,3.4731,3.5027,4.452,4.7835,5.1148,5.5454,5.8237,6.0291,6.1757,6.2122,6.2354,6.3083,6.2719,6.2255,6.2221,6.1616,6.1649,6.3083,6.4465,6.5425,6.5459,6.6672,6.6494,6.332,6.1829,6.0627,5.9511,5.8726,5.8735,5.9789,6.1232,6.2061,6.2091,6.272,6.3079,6.3079,6.3079,6.3079,6.3079,6.3079,6.2421,6.1048,5.9703,5.8387,5.7094,5.5807,5.5598,5.6166,5.5202,5.5159,5.5612,5.4672,5.4304,5.4311,5.4959,5.4893,5.4333,5.4304,5.2792,5.0705,5.0705,5.022,4.9717,4.9717,4.9717,4.9717,4.9717,4.9717,4.962,4.9355,4.8881,4.8302,4.7824,4.6583,4.5422,4.5127,4.4476,4.3592,4.2413,4.1511,4.0743,4.0185,3.9424,3.9019,3.9572,3.8743,3.799,3.799,3.7061,3.6405,3.6405,3.5378,3.4299,3.3262,3.4098,3.4931,3.5483,3.6031,3.5881,3.4801,3.47,3.4424,3.3872,3.3294,3.3244,3.3796,3.3269,3.3269,3.3822,3.3847,3.4424,3.5458,3.5458,3.5805,4.6807,5.085,5.4494,5.7442,6.0556,6.304,6.3471,6.3968,6.4133,6.3405,6.1914,6.0887,6.1384,6.0887,6.1152,6.3603,6.5624,6.6837,6.6837,6.7711,6.7202,6.4277,6.222,6.045,5.874,5.7611,5.7634,5.9153,6.01,6.1056,6.2017,6.3105,6.3709,6.3709,6.3481,6.3367,6.3367,6.3194,6.2421,6.1074,5.883,5.7094,5.5807,5.5388,5.5299,5.5508,5.5197,5.5075,5.5129,5.5204,5.5108,5.5041,5.5689,5.5837,5.5624,5.5159,5.42,5.2981,5.1669,5.0789,5.0231,5.0231,5.0231,5.0183,5.0038,4.999,4.9892,4.9649,4.9742,4.9724,4.8745,4.8126,4.757,4.6717,4.6006,4.5209,4.4124,4.3023,4.2035,4.1157,4.0133,3.9471,3.9672,3.8743,3.7764,3.7036,3.6656,3.6003,3.4876,3.5052,3.4806,3.3746,3.4274,3.4906,3.5458,3.5378,3.4951,3.4223,3.4173,3.4098,3.3897,3.337,3.3495,3.4424,3.3897,3.3897,3.4449,3.4781,3.5132,3.5508,3.5906,3.6182,5.032,5.4262,5.7707,5.9926,6.2444,6.4365,6.4332,6.4498,6.41,6.2113,5.9761,5.8204,5.8668,5.8568,5.9396,6.2345,6.5293,6.7202,6.7202,6.8076,6.7811,6.5425,6.3438,6.1655,6.0022,5.8277,5.7628,5.8514,5.9668,6.0978,6.2417,6.3988,6.474,6.4549,6.4158,6.3819,6.3622,6.3309,6.2181,6.0356,5.8141,5.6436,5.5209,5.5448,5.5538,5.5568,5.5777,5.5765,5.5641,5.6058,5.6102,5.6034,5.6687,5.6954,5.6865,5.6212,5.556,5.473,5.2575,5.1385,5.0795,5.0589,5.0501,5.0453,5.0309,5.0183,5.0038,4.9892,5.0261,5.0411,4.9329,4.9086,4.8883,4.7782,4.7023,4.634,4.5407,4.4408,4.3439,4.2346,4.1131,4.0284,4.0129,3.9095,3.799,3.7086,3.6832,3.5981,3.4148,3.4525,3.4525,3.342,3.3796,3.4274,3.4625,3.4525,3.4198,3.3646,3.3596,3.3796,3.4173,3.3847,3.4173,3.5278,3.4951,3.4951,3.5303,3.5655,3.583,3.5855,3.6207,3.6505,5.4821,5.8005,6.0788,6.2875,6.3935,6.4465,6.4399,6.3769,6.242,5.9396,5.6349,5.4262,5.4328,5.4854,5.631,5.9429,6.3603,6.6485,6.6585,6.7844,6.8208,6.6784,6.5359,6.4079,6.3144,6.0748,5.8917,5.8209,5.9996,6.1828,6.3331,6.5322,6.6248,6.5692,6.5063,6.4457,6.3928,6.3273,6.1669,5.9093,5.7805,5.6517,5.5319,5.5978,5.6278,5.6308,5.6825,5.7094,5.7094,5.7124,5.7154,5.7214,5.7902,5.8171,5.8082,5.7363,5.6735,5.5876,5.3355,5.2083,5.1404,5.0784,5.0578,5.0548,5.0501,5.0327,5.0135,5.0164,5.0466,5.0569,4.9635,4.9495,4.9297,4.8421,4.7796,4.7142,4.6362,4.5714,4.4958,4.388,4.2449,4.1311,4.0922,3.9828,3.8718,3.814,3.7586,3.6455,3.4248,3.3972,3.3545,3.2416,3.2792,3.3162,3.3162,3.3571,3.3646,3.3119,3.3136,3.3596,3.4675,3.4751,3.5253,3.638,3.6405,3.6405,3.6405,3.6405,3.6405,3.6405,3.643,3.6732,5.7906,6.1417,6.4167,6.473,6.5425,6.569,6.463,6.3372,6.1492,5.7972,5.3632,5.0817,5.191,5.181,5.3268,5.8369,6.2842,6.6088,6.7135,6.8606,6.9169,6.8241,6.7347,6.6242,6.4873,6.3198,6.2342,6.2618,6.2142,6.2715,6.458,6.6224,6.693,6.6565,6.5768,6.4956,6.4111,6.2366,6.0596,5.8934,5.8654,5.7704,5.6284,5.6946,5.7092,5.6855,5.7034,5.7094,5.7124,5.7663,5.7872,5.7932,5.859,5.886,5.871,5.7543,5.7004,5.6585,5.449,5.3009,5.1995,5.1816,5.1429,5.0994,5.0775,5.068,5.0674,5.1012,5.1533,5.1836,5.1141,5.1286,5.1362,5.0155,4.9795,4.9464,4.8899,4.8297,4.7421,4.593,4.3661,4.1697,4.0773,3.9981,3.9267,3.8681,3.8146,3.7137,3.5303,3.5082,3.4655,3.3596,3.3596,3.3696,3.3696,3.3445,3.3262,3.3136,3.347,3.3997,3.4655,3.5082,3.5655,3.6405,3.6405,3.6405,3.6405,3.6405,3.6405,3.6405,3.6832,3.7061,6.1119,6.3868,6.5889,6.5889,6.5757,6.5028,6.2941,6.1053,5.8535,5.4262,4.9823,4.704,4.8166,4.8597,5.0551,5.6084,6.092,6.4597,6.6419,6.7645,6.8307,6.8241,6.7579,6.6904,6.6374,6.5359,6.4995,6.5724,6.4361,6.4323,6.6176,6.7606,6.8236,6.7834,6.7086,6.5901,6.4193,6.2383,6.0969,5.9919,5.9439,5.8583,5.7527,5.7971,5.7992,5.7573,0.0,5.7992,5.8022,5.8381,5.856,5.859,5.8949,5.9099,5.8979,5.7932,5.7543,5.7304,5.5658,5.4371,5.3354,5.2486,5.1947,5.1541,5.1101,5.1125,5.1279,5.155,5.2221,5.2623,5.1709,5.1945,5.2093,5.0795,5.0501,5.0405,4.999,4.9493,4.8652,4.6757,4.4936,4.3271,4.1845,4.1352,4.0934,4.0285,3.9641,3.8592,3.678,3.5892,3.5021,3.3951,3.3824,3.3926,3.4154,3.3944,3.3969,3.4502,3.4832,3.5339,3.6151,3.6434,3.6818,3.7278,3.7278,3.7278,3.7278,3.7278,3.7278,3.7303,3.7606,3.7835,6.41,6.5657,6.6606,6.6506,6.5425,6.357,6.0423,5.7839,5.4692,4.969,4.5682,4.3297,4.4092,4.5549,4.8266,5.3268,5.8469,6.261,6.4697,6.569,6.6519,6.7202,6.685,6.6817,6.7499,6.7214,6.7214,6.7877,6.6717,6.6519,6.7711,6.9069,6.9559,6.8945,6.8241,6.6699,6.4342,6.2983,6.1989,6.1293,6.0335,5.9532,5.8924,5.9154,5.8949,5.8398,5.8967,0.0,5.9207,5.9207,5.9207,5.9153,5.9153,5.9153,5.9039,5.8381,5.8112,5.7962,5.6705,5.5867,5.4999,5.3084,5.2336,5.2127,5.1618,5.1637,5.1862,5.2089,5.2753,5.3225,5.2152,5.2221,5.2339,5.1039,5.0714,5.0637,5.0309,5.0038,4.9202,4.7219,4.6349,4.5407,4.3849,4.3506,4.3264,4.2677,4.179,4.0463,3.8484,3.6689,3.5084,3.3854,3.3725,3.3982,3.464,3.4717,3.5205,3.6431,3.6585,3.7047,3.795,3.8079,3.8191,3.8409,3.8409,3.8409,3.8409,3.8409,3.8409,3.8409,3.851,3.864,6.5768,6.6784,6.7235,6.6639,6.5425,6.3305,5.9131,5.5554,5.1843,4.7305,4.2999,4.0415,4.174,4.3694,4.6543,5.1149,5.6647,6.092,6.251,6.3902,6.5028,6.5724,6.622,6.6817,6.7499,6.8606,6.9268,6.9401,6.9169,6.8871,6.8539,6.9334,6.943,6.8699,6.7232,6.5964,6.5062,6.3658,6.2604,6.1981,6.2123,6.1491,6.0185,6.0628,6.0402,5.9675,5.9796,0.0,5.9827,5.9827,5.9667,5.9422,5.9422,5.9315,5.9039,5.8381,5.8112,5.8022,5.7214,5.6526,5.5777,5.4341,5.3114,5.2276,5.2725,5.2498,5.2378,5.3465,5.3943,5.4013,5.3774,5.3804,5.3535,5.2222,5.1894,5.1745,5.116,5.0662,5.0105,4.9251,4.8252,4.7334,4.6538,4.6014,4.5699,4.5539,4.4207,4.2383,4.0187,3.7915,3.576,3.3879,3.3725,3.4135,3.523,3.5333,3.5865,3.6996,3.7484,3.7796,3.7976,3.8438,3.86,3.8409,3.8605,3.8605,3.8409,3.8605,3.8605,3.8434,3.8916,3.9045,6.673,6.7612,6.791,6.6784,6.4597,6.1417,5.6614,5.2407,4.8266,4.3893,4.0415,3.8493,3.9553,4.1243,4.3923,4.8299,5.3268,5.7342,5.9562,6.1152,6.251,6.3603,6.4697,6.5823,6.6904,6.8705,6.9798,6.9798,6.9798,6.9633,6.9268,6.9599,6.9655,6.9237,6.8041,6.698,6.5864,6.4836,6.3955,6.3238,6.326,6.2906,6.2284,6.2242,6.1853,6.1195,6.1195,0.0,6.1195,6.0918,6.0555,6.0106,5.9819,5.9446,5.9069,5.874,5.865,5.853,5.7872,5.7423,5.7034,5.6047,5.4581,5.3234,5.3204,5.3204,5.3384,5.4042,5.4461,5.464,5.4311,5.4221,5.3952,5.2965,5.2456,5.2007,5.1349,5.0899,5.0567,5.0154,4.9533,4.8846,4.8084,4.772,4.7453,4.7138,4.6168,4.465,4.2332,4.0795,3.8407,3.45,3.4063,3.4701,3.6152,3.6567,3.7344,3.8769,3.9391,3.9728,3.9728,3.9988,3.9969,3.9721,3.982,3.982,3.9671,3.982,3.982,3.9746,4.0029,4.0006,6.7326,6.8188,6.8367,6.6531,6.3391,5.9352,5.404,4.9327,4.4912,4.0801,3.8214,3.6895,3.7599,3.8924,4.1177,4.5086,4.9525,5.34,5.6017,5.8071,5.9827,6.1326,6.3007,6.4664,6.6154,6.8407,6.9798,6.9798,6.9798,6.9798,6.9798,6.9798,6.9798,6.9798,6.9069,6.8076,6.6784,6.6022,6.5293,6.4531,6.412,6.393,6.3988,6.3516,6.3004,6.2485,6.2485,0.0,0.0,6.1972,6.1418,6.0856,6.0368,5.9819,5.9261,5.9261,5.9261,5.9147,5.8554,5.8284,5.8022,5.7483,5.6107,5.4521,5.3982,5.4102,5.4431,5.4431,5.479,5.5059,5.4551,5.4431,5.4251,5.3563,5.2905,5.2276,5.1738,5.1387,5.103,5.0869,5.0589,5.0103,4.9355,4.922,4.9044,4.8594,4.7996,4.6803,4.463,4.3814,4.1505,3.6507,3.5542,3.5848,3.7377,3.8062,3.9064,4.0597,4.1232,4.1498,4.1448,4.1398,4.1248,4.0896,4.0946,4.0998,4.1077,4.1128,4.1128,4.1077,4.1207,4.1028,6.7505,6.8281,6.8365,6.5459,6.2199,5.8117,5.2265,4.7015,4.2445,3.9261,3.6837,3.549,3.61,3.74,3.9189,4.1541,4.6179,5.0055,5.168,5.4825,5.7541,5.9032,6.1649,6.3935,6.5359,6.8109,6.9798,6.9798,6.9798,6.9798,6.9798,6.9798,6.9798,6.9798,6.9069,6.8307,6.7499,6.6784,6.6055,6.5326,6.509,6.4728,6.4268,6.3941,6.3563,6.3004,6.3004,0.0,0.0,6.2776,6.2184,6.1418,6.1144,6.0586,5.991,5.991,5.972,5.9476,5.9416,5.8834,5.8112,5.8052,5.7094,5.5987,5.5927,5.5538,5.5089,5.5089,5.5149,5.5179,5.5119,5.5089,5.494,5.4281,5.3593,5.3084,5.3025,5.2516,5.2049,5.2049,5.1523,5.1058,5.0999,5.0969,5.0969,5.0909,4.9952,4.8647,4.692,4.5751,4.4077,4.1393,3.9341,3.8407,3.9023,3.9618,4.051,4.168,4.2162,4.2289,4.2043,4.1796,4.1448,4.0896,4.1147,4.1434,4.1698,4.1929,4.1929,4.1698,4.219,4.2034,6.5634,6.7179,6.7657,6.4343,6.0491,5.5984,5.0057,4.4704,4.0287,3.7728,3.6085,3.5148,3.54,3.6224,3.7466,3.9162,4.3032,4.6477,4.8365,5.1777,5.4792,5.6713,5.9131,6.155,6.3902,6.6386,6.8374,6.9699,6.9798,6.9798,6.9798,6.9798,6.9798,6.9798,6.95,6.9003,6.8274,6.7546,6.6771,6.6088,6.5523,6.5156,6.4943,6.4852,6.4715,6.4499,6.4499,0.0,0.0,6.4114,6.3516,6.2907,6.2467,6.1922,6.1317,6.099,6.0628,6.0158,5.9842,5.9295,5.871,5.871,5.8351,5.7782,5.6974,5.6286,5.5777,5.5777,5.5508,5.5179,5.5179,5.5179,5.5029,5.4371,5.4012,5.3683,5.3264,5.2965,5.2665,5.2276,5.2306,5.2276,5.1887,5.1798,5.1798,5.1798,5.0947,4.9875,4.8652,4.7975,4.6703,4.4525,4.1692,4.0161,4.0701,4.0935,4.1529,4.275,4.3018,4.2991,4.2528,4.2164,4.1696,4.1147,4.1587,4.19,4.2033,4.2475,4.2631,4.2554,4.2762,4.2684,6.3342,6.5908,6.6901,6.2922,5.8979,5.4418,4.8274,4.3037,3.8908,3.6904,3.5803,3.5198,3.5175,3.5514,3.6206,3.7418,4.0276,4.3127,4.5284,4.8763,5.191,5.4096,5.6282,5.8767,6.1682,6.473,6.7446,6.9633,6.9798,6.9798,6.9798,6.9798,6.9798,6.9798,6.9798,6.9434,6.8705,6.7976,6.7247,6.6519,6.5757,6.5425,6.5425,6.5425,6.5425,6.5425,6.5425,0.0,0.0,6.4976,6.4485,6.3988,6.3516,6.3004,6.2485,6.2022,6.1469,6.0856,6.042,5.9872,5.9399,5.9399,5.9399,5.9218,5.8256,5.7401,5.6675,5.6338,5.5688,5.5179,5.5179,5.5179,5.5059,5.461,5.4491,5.4371,5.3862,5.3623,5.3354,5.2875,5.2995,5.3025,5.2576,5.2486,5.2426,5.2217,5.1655,5.0929,5.0088,4.9858,4.8992,4.7092,4.4618,4.2898,4.2423,4.2336,4.2748,4.3754,4.4003,4.3907,4.3547,4.309,4.2659,4.2298,4.2722,4.3012,4.3222,4.3594,4.378,4.378,4.3913,4.394,6.0973,6.4581,6.6372,6.1116,5.7732,5.3923,4.7229,4.2252,3.8541,3.6936,3.6013,3.5463,3.5314,3.5291,3.5512,3.6104,3.801,4.0153,4.2237,4.5715,4.8862,5.1083,5.3235,5.5719,5.8668,6.3537,6.7446,6.9633,6.9798,6.9798,6.9798,6.9798,6.9798,6.9798,6.9798,6.9434,6.8705,6.7976,6.7247,6.6519,6.5757,6.5425,6.5425,6.5425,6.5425,0.0,0.0,0.0,0.0,6.5189,6.4793,6.4268,6.3988,6.3563,6.3052,6.2873,6.2234,6.1469,6.1277,6.0638,6.0016,6.0016,6.0016,6.0016,5.9986,5.9077,5.7842,5.6526,5.5688,5.5179,5.5179,5.5179,5.5179,5.5179,5.5179,5.5179,5.5179,5.467,5.4192,5.4192,5.3653,5.3174,5.3174,5.3174,5.2935,5.2306,5.2187,5.1947,5.1242,5.1152,5.072,4.9374,4.8626,4.708,4.4225,4.3921,4.4168,4.485,4.4994,4.5164,4.5287,4.4788,4.4529,4.466,4.4688,4.4986,4.5584,4.5584,4.5584,4.5584,4.613,4.6191,5.6008,5.877,5.991,5.6385,5.3281,4.9763,4.4553,4.073,3.7797,3.6253,3.5712,3.5508,3.5429,3.536,3.5358,3.5546,3.6919,3.8883,4.1521,4.4981,4.8431,5.168,5.6183,5.9761,6.1715,6.516,6.7976,6.9666,6.9798,6.9798,6.9798,6.9798,6.9798,6.9798,6.9798,6.9666,6.9434,6.8241,6.7466,6.7235,6.6022,6.5425,6.5425,6.5425,6.5425,0.0,0.0,0.0,0.0,6.5336,6.5201,6.5033,6.4943,6.4852,6.4636,6.4254,6.3658,6.3052,6.2663,6.2072,6.157,6.157,6.157,6.157,6.157,6.0219,5.842,5.6886,5.6323,5.6002,5.5349,5.5179,5.5179,5.5179,5.5179,5.5179,5.5179,5.5029,5.476,5.4311,5.4401,5.4401,5.3952,5.3892,5.3803,5.3593,5.2785,5.2127,5.1917,5.1498,5.072,4.9449,4.8686,4.776,4.6383,4.5836,4.6043,4.714,4.6931,4.6887,4.703,4.651,4.6067,4.5776,4.6144,4.6451,4.6645,4.7063,4.7258,4.7258,4.7402,4.7256,5.0238,5.2977,5.409,5.1252,4.8951,4.6244,4.2016,3.9208,3.7144,3.5836,3.5588,3.5543,3.5543,3.5475,3.5406,3.5383,3.6095,3.7828,4.1249,4.4564,4.8561,5.369,5.8401,6.1775,6.3278,6.5702,6.791,6.9666,6.9798,6.9798,6.9798,6.9798,6.9798,6.9798,6.9798,6.9798,6.9798,6.8341,6.7566,6.7566,6.6121,6.5425,6.5425,6.5425,6.5425,0.0,0.0,0.0,0.0,6.5425,6.5425,6.5425,6.5425,6.5425,6.5381,6.4976,6.4485,6.3988,6.3563,6.3052,6.2583,6.2583,6.2583,6.2583,6.2583,6.1171,5.9308,5.8126,5.7476,5.6889,5.582,5.5568,5.5508,5.5239,5.5179,5.5179,5.5179,5.5179,5.5059,5.467,5.491,5.5059,5.464,5.4581,5.4491,5.4251,5.3503,5.2875,5.2606,5.2007,5.1169,5.0122,4.9404,4.8656,4.7758,4.683,4.689,4.8207,4.7911,4.7936,4.8401,4.8025,4.776,4.7604,4.7926,4.8076,4.8076,4.8475,4.8674,4.8674,4.8674,4.8374,0.0,4.7259,4.8917,4.6109,4.4857,4.3396,3.9749,3.7821,0.0,3.5769,3.56,3.56,3.56,3.56,3.5611,3.5565,3.5677,3.7244,4.154,4.506,4.9821,5.6932,6.0117,6.2291,6.3724,6.5559,6.7546,6.9633,6.9798,6.9798,6.9798,6.9798,6.9798,6.9798,6.9798,6.9798,6.9798,6.8341,6.7566,6.7566,6.6121,6.5425,6.5425,6.5425,6.5425,0.0,0.0,0.0,0.0,6.5425,6.5425,6.5425,6.5425,6.5425,6.5381,6.5189,6.4793,6.4314,6.4081,6.3705,6.3244,6.3244,6.3244,6.3244,6.3244,6.2041,6.0521,5.9939,5.8981,5.7891,5.6663,5.6359,5.6179,5.5529,5.5349,5.5319,5.5319,5.5259,5.5229,5.5179,5.5179,5.5179,5.5179,5.5179,5.497,5.4371,5.4251,5.3982,5.3324,5.2665,5.2007,5.1289,5.0584,4.9657,4.8386,4.716,4.701,4.8267,4.8149,4.852,4.9592,4.9387,4.9443,4.9815,4.9815,4.9815,4.9815,4.9815,4.9815,4.9815,4.9815,4.9522,3.7696,0.0,4.4553,4.2726,4.2117,4.1305,0.0,3.7449,3.6569,3.5769,3.56,3.56,3.56,3.56,3.5802,3.6411,3.7364,3.9547,4.3967,5.096,5.713,6.1153,6.3651,6.533,6.609,6.7566,6.8872,6.9699,6.9798,6.9798,6.9798,6.9798,6.9798,6.9798,6.9798,6.9798,6.9798,6.8341,6.7566,6.7566,6.6121,6.5425,6.5425,6.5425,6.5425,0.0,0.0,0.0,6.5425,6.5425,6.5425,6.5425,6.5425,6.5425,6.5381,6.5336,6.5246,6.5123,6.5078,6.4988,6.4852,6.4852,6.4852,6.4852,6.4852,6.3623,6.2035,6.0727,6.0028,5.9378,5.7942,5.7586,5.7556,5.7374,5.695,5.6537,5.6334,5.5842,5.5431,5.5229,5.5179,5.5179,5.5179,5.5179,5.5149,5.497,5.4521,5.4162,5.3982,5.3384,5.2516,5.1349,5.0584,4.9657,4.8386,4.7997,4.8177,4.903,4.9,4.9522,5.0743,5.0756,5.0768,5.0822,5.0822,5.0822,5.0822,5.0822,5.0822,5.0822,5.0822,5.0614,3.56,3.7956,4.0087,3.8913,3.8903,3.8768,3.7212,3.6535,3.6129,3.5667,3.56,3.56,3.56,3.5926,3.6502,3.7618,3.926,4.2787,4.967,5.6785,6.2401,6.5396,6.7295,6.8473,6.8741,6.9249,6.9696,6.9955,6.9893,6.9633,6.9301,6.9301,6.9301,6.9301,6.9301,6.9434,6.9798,6.8341,6.7566,6.7566,6.6121,6.5425,6.5425,6.5425,6.5425,0.0,0.0,0.0,6.5425,6.5425,6.5425,6.5425,6.5425,6.5425,6.5425,6.5425,6.5425,6.5425,6.5425,6.5425,6.5425,6.5425,6.5425,6.5425,6.5425,6.4702,6.3626,6.2444,6.1831,6.1231,5.9899,5.9513,5.9513,5.9563,5.8869,5.8078,5.7728,5.6859,5.6043,5.534,5.5179,5.5179,5.5179,5.5179,5.5179,5.5179,5.488,5.467,5.467,5.4072,5.3264,5.2247,5.1528,5.072,4.9733,4.9643,4.9523,4.9329,4.9553,5.0152,5.1169,5.1229,5.1229,5.1229,5.1229,5.1379,5.1678,5.1678,5.1828,5.2127,5.2127,5.1935,3.5735,3.6434,3.6931,3.6028,3.6468,3.6931,3.6107,3.5938,3.5938,3.5938,3.5836,3.5836,3.6073,3.6772,3.7879,3.958,4.2286,4.7293,5.6224,6.1704,6.5865,6.8741,7.022,7.0961,7.0916,7.0549,7.027,7.0209,6.9988,6.9514,6.8738,6.8672,6.8672,6.8672,6.8572,6.8871,6.9599,6.8307,6.7533,6.74,6.6055,6.5425,6.5425,6.5425,6.5425,0.0,0.0,0.0,6.5425,6.5425,6.5492,6.5591,6.5459,6.5492,6.5558,6.5459,6.5425,6.5425,6.5425,6.5425,6.5425,6.5425,6.5425,6.5425,6.5425,6.5246,6.5008,6.4347,6.3705,6.2972,6.1852,6.1597,6.1597,6.1645,6.0752,5.9795,5.9222,5.8132,5.7,5.5852,5.563,5.563,5.563,5.563,5.56,5.551,5.548,5.54,5.531,5.475,5.4151,5.3414,5.2755,5.2067,5.1439,5.1379,5.09,4.9838,5.0242,5.084,5.1498,5.1528,5.1528,5.1528,5.1528,5.1798,5.2336,5.2336,5.2636,5.3174,5.3174,5.3077,3.6434,3.7642,3.8328,3.6965,3.7652,3.8464,3.7719,3.755,3.755,3.755,3.7043,3.6998,3.8261,3.9106,4.0493,4.3295,4.8812,5.4566,5.9877,6.3429,6.6406,6.8808,7.0354,7.1176,7.0916,7.0825,7.0641,7.0223,7.0129,6.9736,6.8738,6.8672,6.8672,6.8672,6.8109,6.8142,6.8837,6.8042,6.7268,6.6684,6.5823,6.5425,6.5425,6.5425,6.5425,0.0,0.0,6.5425,6.5425,6.5425,6.579,6.6287,6.5657,6.579,6.6287,6.5657,6.5425,6.5425,6.5425,6.5425,6.5425,6.5425,6.5425,6.5425,6.5425,6.5381,6.5336,6.5168,6.4499,6.3626,6.2972,6.2844,6.2844,6.2844,6.2093,6.1199,6.0496,5.957,5.8627,5.773,5.7546,5.7546,5.7546,5.7546,5.7365,5.6819,5.6728,5.6416,5.5671,5.5441,5.504,5.4132,5.3443,5.2755,5.2097,5.2067,5.1947,5.1768,5.1828,5.2187,5.2845,5.2875,5.2875,5.2875,5.2875,5.2935,5.3025,5.3025,5.3084,5.3174,5.3174,5.3174,3.6264,3.7455,3.8384,3.7727,3.9171,4.0595,3.9851,3.9986,4.029,4.029,3.9681,3.9614,4.1102,4.2354,4.4891,5.0304,5.5141,5.937,6.2618,6.529,6.7421,6.891,7.0398,7.1267,7.1131,7.0961,7.0657,7.0025,6.9854,6.9215,6.799,6.7923,6.7923,6.7923,6.7488,6.7364,6.7696,6.726,6.685,6.6519,6.5757,6.5425,6.5425,6.5425,6.5425,6.5425,0.0,6.5425,6.5425,6.5425,6.5624,6.5889,6.5558,6.5624,6.5889,6.5525,6.5425,6.5425,6.5425,6.5425,6.5425,6.5425,6.5425,6.5425,6.5425,6.5425,6.5425,6.5425,6.5078,6.4636,6.4407,6.436,6.4458,6.485,6.4406,6.3755,6.318,6.2456,6.1667,6.0628,6.0434,6.0434,6.0434,6.0073,5.9731,5.942,5.8443,5.7543,5.6812,5.6161,5.5359,5.4331,5.3922,5.3623,5.3324,5.3294,5.3114,5.2755,5.2725,5.2875,5.3174,5.3174,5.3174,5.3174,5.3174,5.3354,5.3743,5.3743,5.3922,5.4281,5.4281,5.4281,3.6405,3.7416,3.8459,3.8631,4.0402,4.2053,4.168,4.2426,4.3267,4.3437,4.303,4.3098,4.4563,4.6496,5.0057,5.667,5.996,6.2537,6.4945,6.6878,6.8438,6.9422,7.0677,7.1446,7.1446,7.1278,7.0839,7.0018,6.9772,6.8998,6.7477,6.7544,6.7645,6.7645,6.7301,6.7246,6.7413,6.6823,6.6434,6.6254,6.569,6.5425,6.5425,6.5425,6.5425,6.5425,6.5425,6.5425,6.5425,6.5425,6.5525,6.5657,6.5492,6.5425,6.5425,6.5591,6.5558,6.5425,6.5425,6.5425,6.5425,6.5425,6.5425,6.5425,6.5425,6.5425,6.5425,6.5425,6.5425,6.5425,6.5425,6.5425,6.5558,6.6121,6.5936,6.554,6.5216,6.4787,6.4174,6.3334,6.314,6.314,6.314,6.2568,6.1979,6.1869,6.0342,5.8965,5.8244,5.7242,5.6271,5.519,5.496,5.481,5.463,5.463,5.4419,5.3879,5.3601,5.3503,5.3653,5.3653,5.3653,5.3653,5.3653,5.3922,5.4431,5.4431,5.47,5.5179,5.5179,5.5179,3.7662,3.8426,3.9188,3.9887,4.0873,4.1852,4.2509,4.438,4.6088,4.68,4.6902,4.7341,4.888,5.2033,5.5757,5.9857,6.1835,6.3918,6.6888,6.8015,6.9108,7.061,7.1464,7.1942,7.1942,7.1942,7.1504,7.0503,7.0425,6.9659,6.792,6.8494,6.8866,6.8866,6.8224,6.8147,6.8866,6.7471,6.6326,6.5492,6.5459,6.5425,6.5425,6.5425,6.5425,6.5425,6.5425,6.5425,6.5425,6.5425,6.5823,6.6386,6.569,6.5425,6.5492,6.6187,6.6022,6.5425,6.5425,6.5425,6.5425,6.5425,6.5425,6.5425,6.5425,6.5425,6.5425,6.5425,6.5425,6.5425,6.5425,6.5425,6.5425,6.5492,6.5301,6.518,6.5353,6.5153,6.4965,6.5087,6.5084,6.5084,6.5084,6.4508,6.3804,6.3132,6.2157,6.0977,5.9541,5.9153,5.8627,5.7821,5.7142,5.6536,5.5899,5.5869,5.5838,5.5778,5.4759,5.4401,5.5029,5.5059,5.5059,5.5059,5.5059,5.5059,5.5119,5.5119,5.5149,5.5179,5.5179,5.5179,3.7427,3.8078,3.8833,3.9608,4.192,4.4257,4.5316,4.8483,5.1597,5.2881,5.3952,5.468,5.4635,5.6941,5.9624,6.1953,6.4455,6.6855,6.9014,7.0371,7.138,7.1931,7.2661,7.2939,7.2412,7.2377,7.1816,7.0486,7.0833,7.0625,6.951,7.0169,7.062,7.062,6.9703,6.9307,6.9618,6.8463,6.7708,6.7311,6.6457,6.6086,6.6086,6.5922,6.5922,6.6086,6.6378,6.6535,6.6568,6.6901,6.682,6.6452,6.569,6.5425,6.5459,6.5724,6.5657,6.5425,6.5425,6.5425,6.5425,6.5425,6.5425,6.5425,6.5425,6.5425,6.5425,6.5425,6.5425,6.5425,6.5425,6.5425,6.5425,6.5425,6.57,6.6006,6.6087,6.6752,6.7301,6.7373,6.7799,6.8126,6.8126,6.7504,6.6915,6.6653,6.5277,6.3962,6.31,6.2252,6.1354,6.0246,5.9069,5.829,5.8009,5.7199,5.673,5.6862,5.5755,5.516,5.5431,5.528,5.5179,5.5179,5.5179,5.5179,5.5179,5.5179,5.5179,5.5179,5.5179,5.5179,3.7523,3.7932,3.8645,3.9948,4.3215,4.6738,4.9099,5.2696,5.6017,5.7599,5.9249,6.0097,5.9162,6.0473,6.2134,6.3684,6.611,6.8573,7.0687,7.1885,7.2692,7.3223,7.3713,7.3713,7.29,7.283,7.2196,7.0648,7.1246,7.139,7.0617,7.1605,7.2169,7.2169,7.1455,7.0958,7.0675,6.979,6.9153,6.8908,6.8102,6.7448,6.6954,6.7024,6.7167,6.7327,6.7861,6.8027,6.7974,6.8149,6.7545,6.6485,6.622,6.5823,6.5459,6.569,6.5624,6.5425,6.5425,6.5425,6.5425,6.5425,6.5425,6.5425,6.5425,6.5425,6.5425,6.5425,6.5425,6.5425,6.5425,6.5425,6.5425,6.5425,6.5823,6.6254,6.6485,6.7314,6.8142,6.8606,6.9103,6.9434,6.9434,6.9003,6.8606,6.8374,6.7155,6.6078,6.5606,6.4754,6.3597,6.2124,6.0661,5.9693,5.9471,5.836,5.7688,5.7777,5.6796,5.6047,5.57,5.5381,5.5179,5.5179,5.5179,5.5179,5.5179,5.5179,5.5179,5.5179,5.5179,5.5179,3.8227,3.8227,3.879,4.1162,4.4782,4.9039,5.3856,5.6707,5.8816,6.0413,6.1974,6.2825,6.2013,6.2474,6.3435,6.4997,6.6521,6.861,7.1761,7.2221,7.2752,7.4312,7.4489,7.4168,7.3352,7.3281,7.2644,7.1124,7.1761,7.1868,7.1054,7.2578,7.3429,7.3429,7.3429,7.3037,7.2221,7.1408,7.0629,6.9849,7.0265,6.9561,6.7945,6.8739,6.9124,6.9124,6.9748,6.9852,6.9567,6.8977,6.7859,6.6618,6.7347,6.6717,6.5492,6.622,6.6055,6.5425,6.5425,6.5425,6.5425,6.5425,6.5425,6.5425,6.5425,6.5425,6.5425,6.5425,6.5425,6.5425,6.5425,6.5425,6.5425,6.5425,6.5425,6.5624,6.6353,6.6519,6.6949,6.8407,6.8672,6.8672,6.8672,6.8672,6.844,6.7698,6.746,6.7133,6.6626,6.6306,6.5368,6.3437,6.1899,6.0779,6.012,5.937,5.885,5.8655,5.7887,5.6957,5.5967,5.5451,5.5179,5.5179,5.5179,5.5179,5.5179,5.5179,5.5179,5.5179,5.5179,5.5179,3.9514,4.022,4.1361,4.4331,4.8532,5.2878,5.6536,6.0043,6.3833,6.8228,6.8625,6.7796,6.6397,6.5893,6.579,6.6258,6.813,7.0253,7.2271,7.3027,7.3566,7.3998,7.407,7.3746,7.2955,7.2883,7.2451,7.1408,7.2091,7.2667,7.3024,7.4032,7.486,7.5434,7.4896,7.45,7.4214,7.3456,7.2916,7.2701,7.2715,7.1659,6.9704,7.0201,7.0589,7.0857,7.1305,7.1336,7.1015,7.007,6.9096,6.8247,6.79,6.7228,6.6388,6.6623,6.6556,6.6388,6.6388,6.6302,6.6172,6.6172,6.6086,6.5878,6.5878,6.5878,6.5878,6.5878,6.5878,6.5878,6.5878,6.578,6.5647,6.547,6.5425,6.5492,6.569,6.6154,6.6651,6.7082,6.7579,6.7943,6.7943,6.7943,6.8042,6.8341,6.8327,6.8399,6.8785,6.7866,6.6903,6.6335,6.4498,6.3252,6.3132,6.1906,6.1273,6.1398,6.0341,5.8839,5.6827,5.6096,5.578,5.578,5.578,5.578,5.578,5.578,5.578,5.578,5.578,5.6022,4.0474,4.1777,4.357,4.7446,5.2009,5.6899,6.2005,6.4794,6.7438,7.1422,7.1241,7.0009,6.8706,6.809,6.7728,6.7728,6.9213,7.0915,7.2472,7.3124,7.3559,7.3885,7.3921,7.3595,7.2798,7.2726,7.2364,7.1567,7.2545,7.3414,7.3885,7.4971,7.5804,7.6275,7.5841,7.5442,7.5083,7.4612,7.4247,7.3888,7.4082,7.3466,7.2157,7.2361,7.2537,7.2829,7.3123,7.3054,7.2589,7.1732,7.0728,6.9651,6.9206,6.8419,6.7495,6.7495,6.7495,6.7495,6.7495,6.7373,6.7168,6.7086,6.692,6.6745,6.6618,6.6652,6.6652,6.6652,6.6652,6.6652,6.6652,6.6482,6.6215,6.5692,6.547,6.5425,6.5425,6.5757,6.6154,6.6452,6.6837,6.7135,6.7135,6.74,6.7777,6.8208,6.8771,6.9169,6.9334,6.8341,6.7466,6.7168,6.5492,6.4365,6.4365,6.3348,6.268,6.2716,6.1849,6.0599,5.9033,5.7899,5.714,5.6814,5.6814,5.6814,5.6814,5.6814,5.6814,5.6814,5.6814,5.7087,4.1126,4.3027,4.549,5.0379,5.5305,6.0955,6.8561,6.9787,6.972,7.1277,7.106,7.0372,6.9678,6.9461,6.9424,6.9424,7.0009,7.0987,7.24,7.2581,7.2871,7.3595,7.3704,7.3414,7.2653,7.2581,7.2291,7.1567,7.2871,7.374,7.3812,7.5261,7.6094,7.6167,7.6239,7.5949,7.5192,7.5192,7.4863,7.4138,7.466,7.4954,7.4921,7.4786,7.4718,7.4719,7.5013,7.4789,7.4152,7.369,7.2464,7.0946,7.0946,7.0004,6.861,6.861,6.861,6.8645,6.8714,6.8527,6.8262,6.8176,6.7975,6.7776,6.7569,6.7529,6.7529,6.7529,6.7529,6.7529,6.7529,6.736,6.6988,6.6172,6.5736,6.547,6.5425,6.5425,6.5624,6.6287,6.6419,6.6419,6.6464,6.7028,6.7492,6.7558,6.8752,6.9429,6.8765,6.8022,6.7326,6.663,6.5382,6.4552,6.4552,6.3889,6.3361,6.321,6.2715,6.2293,6.2035,6.0334,5.9031,5.8398,5.8367,5.8367,5.8367,5.8367,5.8367,5.8367,5.8367,5.8499,4.1651,4.4258,4.7301,5.277,5.8637,6.4215,6.8518,6.9823,7.0553,7.211,7.2327,7.2146,7.1965,7.1422,7.1024,7.1024,7.1168,7.1386,7.1712,7.1748,7.182,7.2001,7.2038,7.1965,7.1784,7.1748,7.1712,7.1531,7.182,7.2291,7.2943,7.3885,7.4718,7.537,7.5985,7.6203,7.6022,7.6022,7.5949,0.0,7.5916,7.5988,7.5954,7.5685,7.5546,7.5546,7.5406,7.5155,7.4826,7.4452,7.3305,7.1891,7.1891,7.0939,6.9528,6.9528,6.9528,6.9599,7.0235,6.9838,6.9155,6.9713,6.9237,6.8478,6.8401,6.8435,6.8435,6.8435,6.8435,6.8435,6.8435,6.8128,6.7696,6.7366,6.6618,6.5834,6.5514,6.5425,6.5503,6.5847,6.5924,6.6013,6.6155,6.6333,6.6589,6.7191,6.8059,6.856,6.8393,6.7725,6.7224,6.7057,6.6266,6.5731,6.5731,6.5096,6.4767,6.5149,6.453,6.4057,6.387,6.1795,6.0607,6.0448,6.0448,6.0448,6.0448,6.0448,6.0448,6.0448,6.0448,6.0644,4.185,4.5236,4.9365,5.6536,6.1679,6.57,6.8555,6.9823,7.0734,7.1893,7.2146,7.2146,7.2146,7.1784,7.1494,7.1494,7.1494,7.1494,7.1494,7.1494,7.1494,7.1494,7.1494,7.1494,7.1494,7.1494,7.1494,7.1494,7.1857,7.2255,7.269,7.3486,7.4283,7.5047,7.5515,7.5913,7.6275,7.6275,7.6275,7.6275,7.6275,7.6275,7.6275,7.6108,7.6039,7.6039,7.59,7.576,7.5655,7.5478,7.444,7.3008,7.3008,7.2041,7.0609,7.0609,7.0859,7.1253,7.1647,7.1618,7.1445,7.173,7.1373,7.0765,7.0692,7.0655,7.0655,7.0655,7.0655,7.0655,7.0655,7.0398,7.0097,6.9791,6.8364,6.6987,6.6675,6.6933,6.7211,6.7376,6.7376,6.742,6.7517,6.7786,6.8156,6.8526,6.9099,6.9457,6.9088,6.825,6.7602,6.7234,6.6531,6.6095,6.6095,6.5761,6.5651,6.5922,6.5501,6.517,6.5072,6.3842,6.2834,6.215,6.215,6.215,6.215,6.215,6.215,6.215,6.215,6.2328,4.1361,4.6142,5.1841,5.9806,6.3599,6.5989,6.8271,6.9394,7.0227,7.1132,7.1422,7.1494,7.1494,7.1494,7.1494,7.1494,7.1494,7.1494,7.1494,7.1494,7.1494,7.1494,7.1494,7.1494,7.1494,7.1494,7.1494,7.1494,7.211,7.2509,7.2509,7.3269,7.403,7.4649,7.4793,7.5225,7.5877,7.5877,7.5877,7.5877,7.6022,7.6167,7.6275,7.6275,7.6275,7.6275,7.6275,7.6275,7.6275,7.6275,7.5334,7.3921,7.3921,7.3016,7.1712,7.1712,7.2219,7.2943,7.3088,7.3356,7.3694,7.367,7.3428,7.3113,7.2938,7.2903,7.2903,7.2903,7.2903,7.2903,7.2903,7.2762,7.2513,7.2115,7.0593,6.9042,6.8531,6.8923,6.9442,6.9484,6.9527,6.9527,6.9527,7.0004,7.0336,7.025,7.0565,7.0546,6.9849,6.8976,6.8194,6.7601,6.6997,6.6561,6.6426,6.6426,6.6359,6.6182,6.5999,6.5867,6.5867,6.5647,6.4951,6.3756,6.368,6.3637,6.3637,6.3637,6.3637,6.3637,6.3637,6.3716,3.955,4.7337,5.5196,5.9832,6.2766,6.5011,6.6714,6.7728,6.8742,7.0227,7.106,7.1494,7.1494,7.1494,7.1494,7.1494,7.1494,7.1494,7.1494,7.1494,7.1494,7.1494,7.1494,7.1494,7.1494,7.1494,7.1494,7.1494,7.1603,7.1675,7.1675,7.2436,7.2907,7.3016,7.3704,7.4138,7.4247,7.4247,7.4247,7.4247,7.4935,7.5623,7.6275,7.6275,7.6275,7.6275,7.6275,7.6275,7.6275,7.6275,7.5334,7.3921,7.3921,7.3342,7.2545,7.2545,7.3052,7.3849,7.454,7.4296,7.3802,7.4454,7.41,7.3319,7.3354,7.3319,7.3319,7.3319,7.3319,7.3319,7.3319,7.3182,7.2938,7.2727,7.2831,7.2524,7.0867,7.06,7.0709,7.0906,7.1097,7.1287,7.1287,7.1319,7.1272,7.0953,7.0579,7.0237,6.9748,6.9286,6.8958,6.8857,6.8755,6.8417,6.7708,6.7674,6.7318,6.6498,6.6421,6.6302,6.6052,6.6009,6.5855,6.5469,6.5216,6.5127,6.5127,6.5127,6.5127,6.5127,6.5127,6.5015,4.1289,4.8931,5.574,5.9253,6.1933,6.4033,6.5192,6.6424,6.7655,6.8814,7.0009,7.1024,7.1422,7.1494,7.1494,7.1494,7.1494,7.1494,7.1494,7.1494,7.1494,7.1494,7.1494,7.1494,7.1494,7.1494,7.1494,7.1494,7.1494,7.1494,7.1494,7.1857,7.2255,7.269,7.3052,7.345,7.3921,7.3921,7.4138,7.454,7.4468,7.4863,7.5623,7.5152,7.5442,7.6275,7.6275,7.6275,7.6275,7.6275,7.5623,7.454,7.454,7.4069,7.3378,7.3378,7.3885,7.4612,7.4974,7.5122,7.5234,7.5559,7.5383,7.5024,7.5024,7.5024,7.5024,7.5024,7.5024,7.5024,7.5024,7.4957,7.4889,7.475,7.4969,7.4939,7.4083,7.339,7.2935,7.3012,7.3161,7.3199,7.3199,7.3199,7.3159,7.2851,7.23,7.1855,7.1594,7.0738,7.0113,7.0113,6.9739,6.9331,6.8999,6.8838,6.8404,6.7531,6.7242,6.6868,6.6378,6.6182,6.6052,6.5965,6.5736,6.5559,6.5425,6.5425,6.5425,6.5425,6.5425,6.5336,4.2266,4.8351,5.3422,5.7406,6.005,6.1969,6.32,6.4722,6.6243,6.7438,6.8633,6.9756,7.0734,7.1241,7.1494,7.1494,7.1494,7.1494,7.1494,7.1494,7.1494,7.1494,7.1494,7.1494,7.1494,7.1494,7.1494,7.1494,7.1494,7.1494,7.1494,7.1494,7.1784,7.24,7.24,7.269,7.3305,7.3305,7.3704,7.4468,7.3885,7.403,7.4757,7.4175,7.4573,7.5696,7.5913,7.6094,7.6275,7.6275,7.5841,7.5083,7.5083,7.4721,7.4178,7.4178,7.4718,7.5406,7.5406,7.5804,7.6275,7.6275,7.6275,7.6275,7.6275,7.6275,7.6275,7.6275,7.6275,7.6275,7.6275,7.6275,7.6275,7.6275,7.6275,7.6275,7.6275,7.5584,7.4972,7.4972,7.4972,7.4972,7.4972,7.4972,7.4861,7.46,7.4068,7.3632,7.3421,7.2327,7.1641,7.1641,7.1167,7.0712,7.0416,7.0096,6.9475,6.8463,6.7929,6.7334,6.6626,6.6388,6.6225,6.6182,6.6042,6.5824,6.5514,6.5425,6.5425,6.5425,6.5425,6.5425,4.0546,4.3824,4.7301,5.3566,5.6355,5.813,6.0484,6.2223,6.4033,6.6388,6.6931,6.7474,6.9026,7.0517,7.1494,7.1494,7.1494,7.1494,7.1494,7.1494,7.1494,7.1494,7.1494,7.1494,7.1494,7.1494,7.1494,7.1494,7.1494,7.1494,7.1494,7.1494,7.1531,7.1567,7.1567,7.1567,7.1639,7.1639,7.2038,7.2834,7.2798,7.3197,7.3961,7.3921,7.3957,7.4066,7.4863,7.5623,7.6275,7.6275,7.5841,7.5083,7.5083,7.5047,7.5011,7.5011,7.5551,7.6239,7.6239,7.6239,7.6275,7.6275,7.6275,7.6275,7.6275,7.6275,7.6275,7.6275,7.6275,7.6275,7.6275,7.6275,7.6275,7.6275,7.6275,7.6275,7.6275,7.6242,7.6208,7.6208,7.6208,7.6208,7.6208,7.6208,7.6072,7.569,7.5263,7.4861,7.4487,7.3956,7.3685,7.3685,7.3615,7.3177,7.2081,7.1531,7.0533,6.8713,6.815,6.7514,6.6804,6.677,6.6643,6.6464,6.6464,6.6249,6.578,6.5514,6.5425,6.5425,6.5425,6.5425,3.718,4.0782,4.4693,4.8568,5.1466,5.4037,5.6464,5.9035,6.1426,6.3345,6.4939,6.6351,6.7438,6.8959,7.0009,7.0009,7.0444,7.077,7.077,7.1205,7.1494,7.1494,7.1494,7.1494,7.1494,7.1494,7.1494,7.1494,7.1494,7.1494,7.1494,7.1494,7.1494,7.1494,7.1494,7.1494,7.1494,7.1494,7.1893,7.269,7.2183,7.2364,7.3124,7.2617,7.2653,7.316,7.345,7.4319,7.5587,7.6094,7.613,7.5877,7.5877,7.5877,7.5877,7.5877,7.6058,7.6275,7.6275,7.6275,7.6275,7.6275,7.6275,7.6275,7.6275,7.6275,7.6275,7.6275,7.6275,7.6275,7.6275,7.6275,7.6275,7.6275,7.6275,7.6275,7.6275,7.671,7.7072,7.7072,7.747,7.7833,7.7833,7.7833,7.7764,7.7449,7.6661,7.6156,7.6396,7.5626,7.5215,7.5709,7.578,7.5345,7.433,7.3665,7.2555,7.078,7.0122,6.9518,6.8769,6.8735,6.8693,6.8608,6.7836,6.6944,6.5965,6.5878,6.5834,6.5834,6.5834,6.5746,3.448,3.7486,4.0818,4.3751,4.6504,4.9257,5.2226,5.5341,5.8311,6.0701,6.2911,6.4722,6.5808,6.7076,6.8265,6.9098,6.9678,7.0113,7.0366,7.0806,7.1205,7.1458,7.1494,7.1494,7.1494,7.1494,7.1494,7.1494,7.1494,0.0,7.1494,7.1494,7.1494,7.1494,7.1494,7.1494,7.1494,7.1494,7.1784,7.2291,7.1748,7.1784,7.2291,7.1748,7.1784,7.2327,7.2581,7.3486,7.4721,7.5261,7.5659,7.5913,7.5913,7.6058,7.6275,7.6275,7.6275,7.6275,7.6275,7.6275,7.6275,7.6275,7.6275,7.6275,7.6275,7.6275,7.6275,7.6275,7.6275,7.6275,7.6275,7.6492,7.671,7.671,7.6891,7.7108,7.7108,7.7289,7.7507,7.7507,7.8159,7.8702,7.8702,7.8702,7.8558,7.8166,7.745,7.6949,7.7092,7.6622,7.6511,7.7046,7.7332,7.7183,7.6384,7.5736,7.4738,7.3238,7.2353,7.1574,7.0856,7.0579,7.036,7.0196,6.9225,6.8116,6.6938,6.6369,6.6095,6.6095,6.6095,6.5965,0.0,0.0,0.0,3.9279,4.147,4.3715,4.7714,5.1176,5.4653,5.8601,6.0711,6.2404,6.4033,6.4975,6.6315,6.8736,6.9134,6.9461,7.0227,7.0403,7.0661,7.1422,7.1494,7.1494,7.1494,7.1494,7.1494,7.1494,7.1494,7.1494,7.1494,7.1494,7.1494,7.1494,7.1494,7.1494,7.1494,7.1494,7.1494,7.1494,7.1494,7.1494,7.1494,7.1494,7.1494,7.1531,7.2327,7.3124,7.3885,7.3921,7.4359,7.5083,7.5083,7.5587,7.6275,7.6275,7.6275,7.6275,7.6275,7.6275,7.6275,7.6275,7.6275,7.6275,7.6275,7.6275,7.6275,7.6275,7.6275,7.6311,7.6311,7.6891,7.7507,7.7543,7.8122,7.8702,7.8702,7.8122,7.7579,7.7579,7.8195,7.8738,7.8774,7.8738,7.8484,7.7724,7.7579,7.7253,7.6529,7.7072,7.7543,7.7579,7.8303,7.8598,7.8207,7.7734,7.6967,7.5808,7.4643,7.367,7.297,7.2158,7.1581,7.1155,7.0643,6.9817,6.8678,6.6972,6.6172,6.6139,6.6095,6.6009,3.1329,0.0,0.0,0.0,0.0,0.0,4.2031,4.6194,5.0488,5.4508,5.7514,6.0086,6.2259,6.3309,6.4468,6.6279,6.7583,6.8597,6.9424,7.0009,7.0661,7.1422,7.1494,7.1494,7.1494,7.1494,7.1494,0.0,7.1494,7.1494,7.1494,7.1494,7.1494,7.1494,7.1494,7.1494,7.1494,7.1494,7.1494,7.1494,7.1494,7.1494,7.1494,7.1494,7.1494,7.1531,7.1748,7.2291,7.3088,7.3667,7.4359,7.5083,7.5083,7.5587,7.6275,7.6275,7.6275,7.6275,7.6275,7.6275,7.6275,7.6275,7.6275,7.6275,7.6275,7.6275,7.6275,7.6275,7.6275,7.642,7.7,7.7326,7.7651,7.8231,7.8557,7.8702,7.8702,7.8992,7.9245,7.9245,7.9426,7.9752,8.0332,7.9969,7.968,8.0042,7.91,7.8702,7.9643,7.8955,7.881,7.9969,8.0295,8.008,7.9252,7.8816,7.8087,7.7076,7.6409,7.6003,7.579,7.5578,7.5035,7.4198,7.3043,7.1937,7.0925,6.854,6.715,6.6601,6.643,6.6378,3.1886,3.1981,3.2089,3.2596,0.0,0.0,3.8464,4.223,4.6339,5.0379,5.3458,5.6174,5.8601,5.9941,6.0991,6.1933,6.4033,6.6243,6.838,6.9394,7.0154,7.0951,7.1313,7.1494,7.1494,7.1494,7.1494,7.1494,7.1494,7.1494,7.1494,7.1205,7.1168,7.1494,7.1494,7.1494,7.1494,7.1494,7.1494,7.1494,7.1494,7.1494,7.1494,7.1494,7.1494,7.1494,7.1494,7.1965,7.2762,7.3233,7.4102,7.5083,7.5083,7.5587,7.6275,7.6275,7.6275,7.6275,7.6275,7.6275,7.6275,7.6275,7.6275,7.6275,7.6275,7.6275,7.6275,7.6275,7.6529,7.6891,7.7362,7.8014,7.8629,7.91,7.9462,7.9716,7.9716,8.0078,8.0295,7.9969,7.9897,8.0042,8.0513,8.0223,7.9969,8.0078,7.9607,7.9426,8.0042,7.9571,7.9571,8.0513,8.0911,8.0875,8.0298,8.0009,7.961,7.9032,7.8451,7.8161,7.8161,7.7839,7.7118,7.6034,7.5041,7.376,7.2201,6.9845,6.8422,6.7853,6.776,6.742,3.3945,3.3879,3.3806,3.3698,3.4154,0.0,3.6415,3.9043,4.2284,4.6214,4.8967,5.1393,5.3929,5.5486,5.6464,5.6645,5.9144,6.2621,6.7003,6.838,6.9279,7.0185,7.0842,7.1241,7.1241,7.1313,7.1386,7.1386,7.1386,7.1386,7.1386,7.0734,7.0734,7.1494,7.1494,7.1494,7.1494,7.1494,7.1494,7.1494,7.1494,7.1494,7.1494,7.1494,7.1567,7.1639,7.1639,7.2146,7.2979,7.2979,7.3812,7.5083,7.5083,7.5587,7.6275,7.6275,7.6275,7.6275,7.6275,7.6275,7.6275,7.6275,7.6275,7.6275,7.6275,7.6275,7.6311,7.642,7.6927,7.7543,7.7724,7.8847,7.9933,8.0006,8.0585,8.1128,8.1128,8.1128,8.0911,8.0187,7.9969,7.9933,8.0042,7.9897,7.9571,7.9064,7.9426,7.9571,7.9028,7.9426,7.9861,8.0006,8.0585,8.102,8.1092,8.1128,8.1128,8.1128,8.044,8.0042,8.0042,7.9245,7.8274,7.7092,7.6444,7.5105,7.2894,7.0903,6.9772,6.9484,6.9442,6.8845,3.7275,3.6921,3.622,3.5566,3.4996,0.0,3.5063,3.6592,3.8879,4.2268,4.4841,4.7409,5.0452,5.1285,5.1923,5.3204,5.4508,5.7623,6.4178,6.6351,6.78,6.9279,6.9539,6.9647,6.9647,7.0227,7.0589,7.0589,7.0589,7.0589,7.0589,7.048,7.0734,7.1494,7.1494,7.1494,7.1494,7.1494,7.1494,7.1494,7.1494,7.1494,7.1494,7.1494,7.1857,7.2472,7.2472,7.3305,7.4612,7.4612,7.4793,7.5083,7.5083,7.5587,7.6275,7.6275,7.6275,7.6275,7.6275,7.6275,7.6275,7.6275,7.6275,7.6275,7.6275,7.6275,7.642,7.7072,7.7362,7.7796,7.91,7.968,8.0078,8.073,8.0984,8.1128,8.1128,8.1128,8.1056,8.0911,8.0332,8.0114,8.0766,7.9788,7.9318,8.0476,7.968,7.9354,8.0513,7.9643,7.9426,8.073,8.044,8.0404,8.1056,8.1128,8.1128,8.1128,8.0947,8.0875,8.0875,8.0114,7.9176,7.8098,7.6266,7.4933,7.4125,7.187,7.0534,7.0127,6.9788,6.9331,4.0696,3.9879,3.8736,3.7903,0.0,0.0,0.0,3.5327,3.6692,3.9489,4.1306,4.3265,4.6017,4.6851,4.7373,4.817,5.0017,5.2987,5.7804,6.2223,6.5881,6.8307,6.8959,6.9207,6.9207,6.9569,6.9823,6.9823,6.943,6.9539,7.0366,7.004,7.0299,7.1458,7.1494,7.1494,7.1494,7.1494,7.1494,7.1494,7.1494,7.1494,7.1494,7.1494,7.1929,7.2726,7.2726,7.3631,7.5083,7.5083,7.537,7.5696,7.5696,7.5949,7.6275,7.6275,7.6275,7.6275,7.6275,7.6275,7.6275,7.6275,7.6275,7.6275,7.6275,7.6565,7.6963,7.7398,7.8086,7.8883,7.968,8.0223,8.0621,8.102,8.1128,8.1128,8.1128,8.1128,8.1128,8.1128,8.0766,8.0513,8.0513,7.9499,7.8955,7.9788,7.9571,7.9462,7.9861,7.9571,7.9462,7.9861,7.9897,8.0078,8.0476,8.0875,8.1128,8.1128,8.1128,8.0947,8.0513,8.0114,7.9319,7.7984,7.6442,7.562,7.5371,7.4006,7.2791,7.1723,7.1463,7.0865,4.3761,4.2665,4.128,0.0,0.0,3.6416,0.0,0.0,0.0,3.7665,3.8631,3.9707,4.1869,4.2666,4.3029,4.3191,4.549,4.8185,5.0741,5.6355,6.1752,6.5881,6.7076,6.7619,6.78,6.7975,6.812,6.8265,6.7655,6.809,6.9828,6.9497,6.9901,7.1458,7.1494,7.1494,7.1494,7.1494,7.1494,7.1494,7.1494,7.1494,7.1494,7.1494,7.2038,7.2943,7.2943,7.3849,7.5334,7.5334,7.5696,7.6275,7.6275,7.6275,7.6275,7.6275,7.6275,7.6275,7.6275,7.6275,7.6275,7.6275,7.6275,7.6311,7.6456,7.6963,7.7543,7.7869,7.8883,7.9933,8.0114,8.0621,8.1128,8.1128,8.1128,8.1128,8.1128,8.1128,8.1128,8.1128,8.1128,8.0911,8.0259,7.9462,7.8992,7.9136,7.9571,7.9716,7.9245,7.9462,7.9499,7.8992,7.9245,7.9571,7.9861,8.0513,8.0947,8.1092,8.0947,8.0585,7.9933,7.9607,7.8738,7.7289,7.6637,7.6275,7.6275,7.5969,7.4973,7.3557,7.3386,7.2624,0.0,0.0,0.0,0.0,4.0547,0.0,0.0,0.0,3.6155,3.7201,0.0,3.7984,3.9644,0.0,0.0,3.9908,4.0817,4.2537,4.5671,4.8061,5.2226,5.9687,6.1281,6.2041,6.2766,6.3454,6.4178,6.4867,6.4867,6.5808,6.8162,6.885,6.9901,7.1458,7.1494,7.1494,7.1494,7.1494,7.1494,7.1494,7.1494,7.1494,7.1494,7.1494,7.2327,7.3776,7.3776,7.4682,7.6167,7.6167,7.6203,7.6275,7.6275,7.6275,7.6275,7.6275,7.6275,7.6275,7.6275,7.6275,7.6275,7.6275,7.6275,7.642,7.7144,7.7434,7.7796,7.9245,7.9752,8.0078,8.0802,8.1056,8.1128,8.1128,8.1128,8.1128,8.1128,8.1128,8.1128,8.1128,8.1128,8.1092,8.0984,8.0295,8.0006,8.073,8.0295,8.0114,8.0766,7.968,7.9064,7.9716,7.8557,7.834,7.9788,7.9969,8.0332,8.1056,8.044,8.0006,7.9897,7.8521,7.7362,7.6456,7.6348,7.6275,7.6275,7.6072,7.5584,7.4898,7.4525,7.4033,0.0,0.0,0.0,0.0,0.0,0.0,3.7781,0.0,3.7094,0.0,0.0,0.0,0.0,0.0,0.0,0.0,3.9726,4.069,4.2918,4.4186,4.7554,5.4653,0.0,0.0,5.9108,5.9941,6.0557,0.0,6.1788,6.3382,6.5772,6.7547,6.9213,7.0806,7.0842,7.106,7.1494,7.1494,7.1494,7.1494,7.1494,7.1494,7.1494,7.1494,7.24,7.3921,7.3921,7.4826,7.6275,7.6275,7.6275,7.6275,7.6275,7.6275,7.6275,7.6275,7.6275,7.6275,7.6275,7.6275,7.6384,7.6818,7.7289,7.776,7.8086,7.8521,7.9028,7.9716,8.0259,8.0694,8.102,8.1128,8.1128,8.1128,8.1128,8.1128,8.1128,8.1128,8.1128,8.1128,8.1128,8.1128,8.1128,8.044,8.0006,8.0368,8.0114,7.9861,7.9716,7.9136,7.8666,7.8521,7.7905,7.776,7.8448,7.9354,7.9861,7.9716,7.8955,7.8521,7.8521,7.7398,7.6637,7.6311,7.6275,7.6275,7.6275,7.6208,7.6038,7.5795,7.5155,7.4638,5.1463,0.0,0.0,0.0,0.0,0.0,0.0,0.0,0.0,0.0,0.0,0.0,0.0,0.0,0.0,3.9935,0.0,3.9579,4.0635,4.1107,4.3628,4.9764,0.0,0.0,0.0,5.6102,5.6645,0.0,0.0,6.0412,6.3273,6.5917,6.8162,7.004,7.0294,7.0734,7.1494,7.1494,7.1494,7.1494,7.1494,7.1494,7.1531,7.1748,7.2581,7.3888,7.4106,7.5044,7.6275,7.6275,7.6275,7.6275,7.6275,7.6275,7.6275,7.6275,7.6275,7.6275,7.6275,7.642,7.6746,7.7579,7.8231,7.8738,7.8955,7.9462,7.9969,8.0187,8.0658,8.1128,8.1128,8.1128,8.1128,8.1128,8.1128,8.1128,8.1128,8.1128,8.1128,8.1128,8.1128,8.1128,8.1128,8.0621,8.0223,8.0223,8.0223,8.0042,7.9426,7.9173,7.881,7.8231,7.7941,7.7905,7.8122,7.9245,7.9643,7.9064,7.8484,7.805,7.7833,7.7253,7.6963,7.6963,7.6963,7.6855,7.6637,7.6637,7.6529,7.6275,7.569,7.5263,0.0,0.0,0.0,4.7443,0.0,0.0,0.0,0.0,4.0985,0.0,0.0,0.0,0.0,0.0,0.0,0.0,0.0,0.0,0.0,3.7854,3.9411,4.4894,0.0,0.0,0.0,5.1502,5.2154,0.0,5.4617,0.0,6.0738,6.3925,6.675,6.9171,7.0004,7.0734,7.1494,7.1494,7.1494,7.1494,7.1494,7.1494,7.1531,7.2327,7.3124,7.3957,7.4721,7.5551,7.6275,7.6275,7.6275,7.6275,7.6275,7.6275,7.6275,7.6275,7.6275,7.6275,7.6275,7.6818,7.7579,7.8412,7.8666,7.8847,7.9643,7.9897,8.0078,8.0839,8.1092,8.1128,8.1128,8.1128,8.1128,8.1128,8.1128,8.1128,8.1128,8.1128,8.1128,8.1128,8.1128,8.1128,8.1128,8.1092,8.1056,8.1056,8.1056,8.1056,8.1056,8.0332,7.9861,7.9825,7.9136,7.8992,7.9752,7.9861,7.9897,7.9861,7.9861,7.9462,7.8702,7.8629,7.8629,7.8629,7.8629,7.8231,7.747,7.747,7.7072,7.6275,7.6275,7.6242,0.0,0.0,5.2344,5.0729,0.0,0.0,0.0,0.0,0.0,0.0,0.0,0.0,0.0,0.0,0.0,0.0,0.0,0.0,0.0,0.0,3.7478,4.0413,4.3503,4.5675,4.6452,0.0,0.0,0.0,5.0669,0.0,0.0,6.1172,6.483,6.8307,6.9176,7.0227,7.1494,7.1494,7.1494,7.1494,7.1494,7.1784,7.2291,7.2581,7.345,7.4685,7.4974,7.5551,7.6275,7.6275,7.6275,7.6275,7.6275,7.6275,7.6275,7.6275,7.6275,7.6384,7.6891,7.7977,7.9136,7.9426,7.9861,8.0332,8.0621,8.0694,8.0766,8.102,8.1128,8.1128,8.1128,8.1128,8.1128,8.1128,8.1128,8.1128,8.1128,8.1128,8.1128,8.1128,8.1128,8.1128,8.1128,8.1128,8.1128,8.1128,8.1128,8.1128,8.1128,8.0404,7.9897,7.9897,7.9173,7.881,7.91,7.91,7.9318,7.9861,7.939,7.8992,7.8702,7.8702,7.8702,7.8702,7.8702,7.8303,7.7507,7.7507,7.7072,7.6275,7.6275,7.6275,5.796,5.7116,0.0,5.4473,5.2307,0.0,4.6764,0.0,0.0,0.0,0.0,0.0,0.0,0.0,0.0,0.0,0.0,0.0,0.0,3.6434,3.6456,3.7447,4.0049,4.2177,4.3229,4.4459,4.5345,4.5635,4.7627,0.0,0.0,0.0,6.2693,6.7003,6.8488,6.9937,7.1494,7.1494,7.1494,7.1494,7.1784,7.2219,7.2726,7.3305,7.4138,7.5119,7.5406,7.5804,7.6275,7.6275,7.6275,7.6275,7.6275,7.6275,7.6275,7.6275,7.6456,7.6855,7.7977,7.9028,7.9969,8.0223,8.0694,8.1128,8.1128,8.1128,8.1128,8.1128,8.1128,8.1128,8.1128,8.1128,8.1128,8.1128,8.1128,8.1128,8.1128,8.1128,8.1128,8.1128,8.1128,8.1128,8.1128,8.1128,8.1128,8.1128,8.1128,8.1128,8.1128,8.0658,8.0332,8.0332,7.9861,7.9571,7.9571,7.9571,7.9788,8.0295,7.9861,7.9571,7.9571,7.9571,7.9571,7.9571,7.9571,7.9173,7.834,7.834,7.7941,7.7144,7.7144,7.7]}]]